GFSWCAN_prec_cthk_000.txt.gz
RH
29 29 32 38 34 34 35 31 35 32 32 35 32 49 68 80 91 93 98 98 98 96 93 92 92 94 87 79 88 97 90 94 98 97 98 96 82 74 75 70 74 76 79 80 82 83 73 66 70 72 63 59 67 72
30 29 30 30 34 30 31 33 34 35 31 34 33 43 61 76 87 90 95 97 98 98 94 89 94 89 88 89 95 91 88 96 96 98 96 95 90 82 77 77 73 76 70 71 74 70 68 66 66 62 58 58 59 64
32 32 30 29 27 24 20 22 26 29 32 33 32 44 50 66 79 92 93 93 94 90 91 90 87 87 89 90 89 91 88 96 97 98 98 91 92 85 85 79 78 76 75 77 70 66 69 70 68 62 62 61 62 63
33 32 29 29 27 23 17 21 25 28 33 31 33 35 45 58 72 86 89 95 96 98 94 88 84 85 84 87 88 89 89 97 98 98 97 92 89 81 85 84 83 80 79 76 74 71 71 73 72 67 65 65 65 66
34 34 29 26 24 22 19 19 18 15 16 19 23 33 42 54 70 82 87 93 95 94 89 84 83 81 85 89 88 87 92 97 98 98 96 92 89 89 84 82 78 77 77 80 77 73 72 72 71 69 69 70 70 71
35 34 31 24 22 19 17 16 18 17 18 18 19 28 40 49 72 84 91 92 90 89 87 84 83 80 78 78 82 86 98 98 98 97 97 95 88 82 84 82 73 72 72 76 77 75 74 73 72 70 70 71 70 71
37 32 34 31 25 20 19 17 15 16 19 21 20 23 36 43 69 84 88 88 90 86 80 85 78 78 78 82 84 89 96 98 98 97 97 95 94 90 87 81 78 73 72 70 74 73 74 76 74 73 69 69 71 74
38 36 34 33 31 24 21 19 17 15 21 28 26 21 30 42 63 78 86 89 86 84 83 85 80 75 75 77 85 88 94 95 98 98 98 98 96 92 90 80 73 71 69 68 72 72 72 70 71 73 73 71 72 73
39 37 35 33 30 29 24 22 19 14 22 35 37 36 46 52 73 86 92 93 90 90 85 75 74 78 76 76 78 89 92 96 98 97 97 98 95 92 80 77 72 72 71 69 69 70 72 73 74 77 76 71 73 78
41 36 36 29 28 29 28 24 15 20 28 41 45 43 57 63 86 95 99 95 92 91 87 83 76 76 78 79 76 83 90 95 97 97 96 93 86 80 76 74 72 67 64 72 75 77 77 73 74 79 78 72 72 70
42 34 32 29 27 28 26 20 15 20 37 48 50 57 67 83 96 97 99 95 90 87 81 81 77 76 79 78 78 76 87 91 92 90 96 91 84 77 72 71 65 62 61 61 73 75 74 72 68 64 67 68 67 65
43 33 31 28 26 26 21 15 10 22 49 53 57 72 89 96 98 98 99 91 85 82 77 78 81 78 79 79 78 79 82 88 86 87 88 84 72 71 70 67 62 57 59 58 57 57 58 60 63 66 67 69 70 68
42 34 32 28 26 24 20 13 8 26 48 57 71 81 97 98 98 98 92 87 83 77 77 81 83 81 80 78 76 74 78 79 79 85 80 71 66 64 68 65 63 60 57 58 58 59 60 62 63 64 64 65 65 65
42 36 33 29 27 24 19 13 6 33 48 66 80 84 98 97 98 97 93 89 87 85 85 85 85 85 80 81 80 76 73 74 76 76 67 58 55 61 66 67 63 63 61 61 61 60 61 65 68 68 68 68 68 67
43 38 34 31 28 24 19 13 9 33 45 66 84 93 97 97 97 91 86 85 85 83 85 87 89 88 87 85 78 75 72 73 68 63 54 49 48 50 60 65 67 68 67 65 64 65 67 68 70 70 73 74 71 66
46 41 36 33 29 26 22 17 24 31 41 57 76 85 87 87 88 87 89 91 88 90 92 90 93 92 89 86 85 78 74 64 56 56 49 48 47 47 49 55 62 66 68 70 71 72 73 75 76 76 77 75 70 63
50 45 41 36 30 28 25 29 30 35 43 46 68 83 85 86 87 84 88 91 94 92 95 91 88 83 85 85 79 72 68 54 53 55 53 50 53 53 51 51 54 58 63 67 69 70 72 72 73 76 76 73 69 62
54 47 44 38 33 30 29 34 35 35 37 39 47 64 76 75 77 80 86 92 94 95 96 93 85 83 77 73 71 68 66 62 60 59 55 51 53 56 57 53 52 53 57 62 66 66 68 68 70 70 69 69 63 52
59 53 46 41 37 34 31 35 39 33 33 32 32 35 52 65 67 71 83 91 96 97 97 95 90 77 71 70 69 67 66 65 64 62 59 56 55 57 59 58 57 56 58 61 62 63 67 67 66 65 62 57 48 47
61 54 49 45 41 36 34 38 41 37 35 34 28 28 27 35 58 68 77 88 97 99 99 97 85 75 73 73 74 72 72 69 66 64 61 60 58 59 60 60 58 62 66 66 65 63 67 68 65 62 55 49 47 49
62 56 51 47 45 40 40 41 44 41 36 32 26 27 25 26 29 53 78 85 94 98 97 96 92 90 85 79 78 78 75 75 72 69 65 65 64 64 62 63 62 67 71 70 70 72 72 72 69 65 59 54 55 57
64 59 56 51 47 47 48 51 48 42 37 34 32 32 30 30 33 40 54 79 89 94 97 98 98 96 96 91 86 82 79 79 78 76 73 70 70 71 70 67 67 72 75 76 77 77 76 76 70 64 60 58 59 60
68 61 57 54 51 49 49 50 49 44 41 38 34 34 35 36 35 38 49 57 81 90 96 97 98 97 97 98 99 94 90 86 84 82 81 79 78 78 77 75 74 75 79 82 80 80 82 74 68 64 61 60 62 64
69 67 60 53 50 48 46 48 45 44 42 39 38 36 31 36 40 46 50 52 60 80 94 97 97 97 97 97 98 98 98 92 89 86 87 85 86 86 83 82 82 83 85 85 82 82 79 74 70 67 65 64 67 71
74 68 60 55 52 51 49 49 48 43 40 41 38 33 38 46 51 51 50 52 61 71 84 96 97 96 97 97 97 97 98 96 93 89 89 88 91 92 90 90 90 91 90 85 84 82 79 77 73 70 68 71 75 74
78 66 61 54 53 51 47 44 44 41 39 37 37 39 42 48 51 50 52 58 67 69 74 87 95 96 97 98 98 97 97 97 96 91 91 91 95 95 93 94 94 94 91 85 83 85 82 78 75 74 79 81 81 81
78 72 63 58 54 52 51 47 42 40 39 42 44 46 49 54 55 56 62 61 62 69 74 78 88 94 96 96 97 97 97 97 95 93 92 92 96 97 97 97 97 94 90 86 89 86 83 81 81 86 86 85 83 73
78 71 69 65 62 58 51 45 41 39 40 43 46 43 44 47 42 38 38 44 58 68 77 88 87 90 96 96 97 97 97 97 96 94 91 91 91 94 97 97 97 95 95 97 95 91 85 88 91 93 87 80 72 67
77 74 70 67 64 58 48 40 37 35 40 42 44 41 39 38 39 41 43 48 55 68 80 89 92 95 96 97 96 97 97 94 91 90 88 89 93 95 97 97 98 97 97 95 94 96 98 97 93 86 79 74 70 66
79 75 70 65 58 50 41 39 38 41 44 45 44 41 40 41 42 49 56 58 61 74 86 91 92 95 97 97 96 96 97 96 96 97 96 97 96 97 97 98 98 97 97 97 97 96 96 90 84 79 76 72 68 61
69 70 66 60 54 49 44 43 44 46 48 49 46 44 46 46 47 61 66 69 75 88 94 95 96 97 97 97 97 97 96 97 97 97 97 97 97 97 97 98 98 98 98 98 97 94 89 86 80 75 69 64 57 52
65 62 58 57 54 51 48 48 49 48 49 49 48 48 50 51 55 69 74 83 95 97 98 98 98 97 97 97 97 97 98 98 98 97 97 98 98 98 98 98 98 98 96 93 91 88 84 79 72 67 61 56 52 46
63 60 61 61 56 51 51 51 52 51 52 53 52 52 52 53 59 73 83 96 98 98 98 98 98 98 98 98 98 98 98 98 98 98 98 98 98 98 97 97 97 96 93 89 83 78 72 69 64 59 56 51 44 39

GFSWCAN_prec_cthk_003.txt.gz
RH
35 36 34 31 28 22 16 20 20 20 20 26 38 44 50 52 72 90 92 95 97 95 94 86 79 80 86 83 81 87 89 87 90 95 98 98 93 84 75 66 71 72 80 81 82 84 77 74 78 78 70 71 73 73
32 37 35 32 25 18 15 15 18 18 18 23 27 40 44 47 62 80 91 94 95 97 96 91 82 82 88 78 78 87 88 86 91 97 98 97 95 83 77 74 69 75 68 69 70 67 65 69 70 67 64 64 67 74
34 39 37 33 26 19 17 18 18 14 15 11 14 26 41 47 60 74 89 94 96 96 91 90 86 86 85 84 86 90 88 90 93 97 98 98 95 84 82 76 74 72 72 74 70 64 66 69 70 66 65 65 65 70
37 42 38 32 29 21 18 20 17 15 15 15 14 16 29 49 58 68 76 86 96 99 96 86 84 81 80 83 87 88 88 94 98 98 97 97 92 83 82 76 80 79 77 73 71 68 66 66 69 66 66 68 69 72
40 43 39 31 33 23 21 21 23 17 15 14 17 17 23 44 54 65 72 87 95 94 89 89 84 81 81 80 85 87 86 95 98 98 98 96 92 87 81 80 79 75 72 74 74 69 70 68 70 68 70 69 68 71
43 45 41 38 36 28 26 24 27 23 18 15 20 29 27 41 58 67 92 97 96 93 91 86 82 83 81 81 86 89 84 97 97 97 97 94 90 87 87 80 73 67 69 72 74 74 72 72 71 70 70 69 68 69
44 45 42 40 37 33 30 28 27 23 18 16 25 30 25 38 59 71 92 94 96 94 90 85 79 80 82 80 81 82 88 94 96 98 96 95 97 92 86 81 75 71 72 73 74 76 75 74 73 71 70 70 69 71
47 48 44 39 38 34 31 30 26 21 17 12 26 31 28 34 58 71 82 95 96 95 91 88 79 77 77 77 76 82 85 90 92 96 98 96 94 90 89 81 74 74 71 72 72 73 76 76 77 76 75 72 70 72
48 50 46 38 38 33 32 28 25 20 15 26 38 45 43 47 65 80 92 99 98 95 87 79 79 76 75 76 75 82 82 87 90 96 96 95 93 91 80 80 77 73 71 72 72 72 73 75 76 77 77 76 73 74
51 52 47 36 38 32 30 25 23 17 24 44 51 46 56 52 73 86 98 99 99 96 85 79 74 76 73 76 78 76 77 84 88 90 93 93 86 78 76 79 76 73 75 75 76 76 75 77 78 78 77 78 74 74
52 53 45 36 33 30 29 24 18 17 30 50 48 58 53 56 85 98 99 99 97 91 83 82 79 77 75 76 80 78 76 81 83 84 88 88 84 74 73 74 76 71 68 67 77 80 79 80 79 77 81 73 70 72
54 54 45 36 33 30 30 23 17 14 38 58 59 57 57 86 97 98 99 99 95 90 82 83 85 81 79 77 78 80 77 77 79 79 85 83 73 72 77 76 74 68 65 64 67 75 76 76 73 71 67 68 69 70
56 57 45 38 34 30 27 23 15 9 38 56 69 77 84 95 98 97 97 97 91 83 80 84 88 84 85 83 82 81 77 74 73 75 73 67 65 67 71 75 74 70 64 64 61 61 63 65 66 66 67 66 68 70
58 57 46 40 35 31 28 24 17 16 36 55 77 81 92 96 97 96 95 93 91 87 82 84 86 90 87 86 84 81 77 73 70 68 64 57 54 62 68 73 74 73 65 63 64 63 63 66 69 71 70 71 72 71
62 58 48 42 36 32 29 25 24 25 35 51 69 84 86 88 94 94 90 89 91 89 86 85 88 91 90 86 86 83 79 70 64 61 55 49 47 52 61 71 74 72 70 68 65 65 66 66 68 71 71 71 72 72
68 60 50 45 39 34 31 28 33 31 37 44 59 74 77 80 81 80 84 86 86 86 86 88 91 90 86 82 86 81 77 70 55 53 47 47 47 49 52 60 68 73 74 74 73 72 71 72 73 75 76 77 78 73
70 63 56 50 42 37 34 34 36 38 38 40 49 57 71 71 71 74 80 89 91 89 88 89 88 84 83 82 79 77 71 66 63 55 52 51 51 53 54 54 58 63 68 72 73 73 75 75 76 77 78 79 77 72
71 66 59 54 46 40 38 40 40 40 38 34 36 43 49 58 63 64 70 80 87 94 92 91 87 84 79 78 71 67 66 67 65 63 57 54 55 54 55 57 58 56 60 65 70 73 75 75 74 73 76 81 72 68
74 70 65 57 50 45 39 40 41 40 41 37 32 31 27 29 36 48 59 67 77 90 96 95 93 84 78 77 73 68 68 68 69 68 64 60 59 56 56 57 61 61 60 62 66 68 69 70 70 70 75 70 66 59
78 74 68 61 54 47 42 43 42 43 42 44 38 33 29 25 19 19 29 48 66 79 88 91 88 87 86 81 81 79 75 75 72 70 68 63 60 58 58 59 60 65 64 64 67 65 64 66 69 77 73 69 59 51
80 76 68 63 58 50 47 46 46 47 46 42 38 36 34 30 26 25 27 31 37 59 73 85 91 89 89 91 92 84 80 79 79 75 72 72 70 69 65 62 63 67 68 69 73 72 70 76 79 72 69 63 55 53
81 76 71 64 60 55 54 54 53 50 45 44 43 42 38 33 30 30 32 32 36 39 47 67 84 92 95 95 96 97 91 84 87 82 77 74 72 72 71 70 67 68 72 74 77 75 76 79 80 76 69 65 63 58
82 77 72 65 63 56 54 56 54 51 47 46 44 41 39 36 33 32 33 36 36 40 48 55 66 85 94 97 97 98 98 94 89 88 83 79 78 76 76 76 75 74 78 79 80 80 80 85 80 75 73 67 62 61
86 79 73 66 61 54 52 53 52 50 49 47 44 42 36 34 34 37 38 34 34 40 42 45 48 57 78 92 96 97 97 98 98 93 90 86 85 85 84 82 83 82 83 86 84 83 83 82 80 79 71 66 63 64
85 83 75 64 59 56 54 53 53 51 49 50 47 38 37 39 43 40 35 32 40 48 45 45 47 49 60 80 93 95 97 97 97 98 98 94 92 90 89 86 89 89 88 88 85 84 82 82 86 75 70 70 69 69
88 79 71 61 59 57 53 51 52 51 51 47 41 39 42 43 45 40 40 41 50 45 43 43 48 54 58 69 85 96 95 97 97 97 97 98 96 94 91 88 90 92 92 91 89 86 84 89 80 77 76 76 75 77
87 80 71 65 60 57 56 55 54 53 50 44 41 44 44 48 46 40 38 32 29 29 32 40 48 57 60 66 80 90 97 96 97 97 98 97 96 93 92 90 91 95 95 94 92 87 92 85 85 84 82 79 81 84
84 78 75 71 68 64 60 58 56 52 45 40 42 43 42 43 37 26 26 28 33 38 41 43 46 58 63 69 79 93 96 96 96 97 97 95 92 93 93 94 96 97 98 97 92 94 92 91 88 84 83 88 88 86
85 80 75 75 73 70 62 56 52 41 37 39 40 39 38 34 29 27 30 35 43 50 51 52 52 58 70 75 80 88 96 96 95 97 97 97 97 96 96 97 97 97 97 97 96 98 95 93 90 93 97 93 85 76
82 79 78 77 72 67 57 52 46 42 40 38 38 39 38 36 30 31 35 42 55 60 62 63 62 66 76 81 87 88 93 97 96 96 97 97 98 99 98 98 97 97 97 97 97 96 97 96 97 96 90 84 79 74
80 78 73 71 67 62 55 51 50 46 43 40 41 42 40 38 33 34 39 55 64 71 74 74 75 80 84 90 91 96 96 97 97 97 97 97 98 97 97 97 97 96 97 97 96 96 97 97 96 89 84 80 76 70
74 71 71 69 63 57 54 54 53 48 44 42 41 41 42 43 42 40 47 63 74 79 82 86 91 92 93 94 95 97 97 97 97 97 97 97 97 98 97 97 97 98 97 98 98 97 97 95 89 85 81 75 66 60
70 72 70 65 59 56 59 59 55 49 44 43 42 44 47 46 45 45 58 71 81 89 95 97 97 97 97 98 98 98 98 97 97 98 98 97 98 97 98 98 98 98 98 98 98 96 90 85 82 78 71 64 59 53

GFSWCAN_prec_cthk_006.txt.gz
RH
45 39 41 41 36 34 26 27 24 17 10 10 14 19 31 35 43 63 79 85 87 84 82 80 79 80 90 85 84 90 93 92 90 92 90 90 87 78 80 69 67 69 79 83 80 80 79 69 75 73 72 73 74 83
47 39 43 42 37 36 26 26 26 17 14 13 14 14 23 37 42 53 76 81 86 87 86 83 81 78 81 79 81 82 89 88 89 92 92 93 89 81 79 72 70 72 68 69 67 63 62 67 68 68 68 69 73 77
48 39 43 43 39 37 29 29 27 24 21 12 15 14 15 29 44 49 65 81 86 88 90 89 84 81 80 80 78 81 94 89 91 91 95 94 92 89 81 76 74 73 72 75 70 65 68 67 68 67 67 69 70 79
49 42 41 45 42 37 37 33 29 28 27 21 17 17 19 19 37 52 62 77 84 87 91 84 82 83 84 85 83 89 93 91 91 94 95 92 92 85 83 81 77 78 78 72 68 65 67 66 68 68 68 71 73 76
53 49 43 47 45 40 38 34 31 29 27 21 19 19 22 27 29 46 56 70 80 89 88 87 84 82 82 81 84 89 91 91 90 93 94 94 88 89 84 83 74 73 72 68 66 68 69 66 71 69 69 71 72 74
56 49 49 50 46 42 39 35 32 29 26 21 21 20 27 30 25 47 80 87 87 90 91 90 88 87 86 85 87 89 94 90 86 93 93 90 92 92 87 78 68 67 65 67 68 69 71 70 71 70 70 69 69 71
63 50 55 53 49 41 40 36 32 29 23 20 21 30 34 30 26 55 86 88 92 94 97 91 88 83 87 86 86 87 87 88 87 90 92 95 95 95 91 78 71 69 68 69 70 72 75 72 74 71 70 69 71 71
71 50 54 55 52 41 41 37 32 27 15 19 38 41 42 34 25 59 79 91 96 97 95 92 83 80 81 85 82 86 87 86 86 90 93 97 96 93 87 77 75 71 69 71 71 74 76 74 77 76 74 73 74 72
75 56 55 56 54 40 35 36 32 22 17 36 39 49 52 40 34 74 93 97 98 96 92 92 84 79 78 81 79 81 78 80 80 87 94 97 94 89 80 76 76 74 72 70 70 72 73 76 78 78 77 76 75 75
79 62 58 59 53 41 34 35 29 17 24 40 39 50 57 37 55 92 97 98 99 97 95 92 83 79 75 75 76 72 74 78 79 80 90 91 89 80 74 77 79 76 75 72 73 73 74 74 75 77 77 76 76 74
84 66 60 62 52 41 36 32 24 15 26 46 43 47 39 45 96 98 98 98 98 96 91 90 78 76 74 75 76 75 76 78 77 78 86 85 79 77 73 73 74 74 73 74 77 77 75 74 74 77 78 77 76 74
81 70 64 64 52 42 37 29 23 15 29 47 41 44 63 95 98 97 98 98 95 92 91 87 80 79 79 77 75 76 78 77 75 74 80 74 68 70 72 73 74 73 72 70 74 80 81 80 80 82 77 78 70 70
80 75 66 65 53 43 36 29 24 16 36 45 53 67 86 94 95 96 97 98 93 89 89 86 85 83 81 80 81 80 80 75 72 73 68 59 59 65 69 78 78 72 67 65 65 72 77 79 80 76 73 71 67 68
88 76 67 62 53 45 38 31 25 25 33 47 56 68 81 84 87 94 92 88 88 91 91 86 85 84 83 84 84 83 79 77 77 71 60 49 50 53 64 72 78 78 70 66 64 64 66 70 71 70 67 67 68 69
93 83 72 61 54 47 40 32 29 32 33 44 56 65 73 80 86 84 82 84 87 90 91 90 88 86 88 86 83 82 83 79 70 62 54 46 43 47 54 68 76 78 76 68 66 66 66 67 70 70 71 71 71 73
91 88 71 61 55 49 43 36 35 37 37 40 49 60 66 70 72 73 79 86 89 90 91 92 93 91 87 84 85 82 82 78 69 65 52 45 46 48 50 56 68 76 79 75 71 70 70 72 71 70 71 74 74 76
94 87 72 64 58 52 47 41 41 41 43 39 44 47 57 63 65 65 70 77 88 90 93 94 93 90 88 86 84 80 82 77 74 68 61 55 53 51 52 54 55 62 69 74 78 77 77 77 77 77 77 77 78 79
95 87 78 67 62 55 52 47 44 43 46 41 36 37 37 41 51 58 61 66 73 86 91 93 92 91 86 84 79 77 78 79 76 74 68 65 61 58 58 57 58 59 61 62 69 74 79 80 79 79 78 78 79 82
95 91 79 72 65 58 54 51 45 44 46 43 40 36 31 26 22 22 36 51 61 69 83 92 94 89 86 85 85 84 84 82 80 76 73 71 69 66 61 59 57 59 61 64 64 68 74 77 79 79 76 77 84 78
98 93 85 76 68 61 57 52 47 48 45 46 44 40 37 34 29 24 22 22 27 44 61 72 77 82 87 88 90 90 87 87 87 81 75 72 71 68 67 64 62 62 61 64 68 67 71 72 75 74 74 80 82 71
97 92 86 78 70 65 60 57 53 51 50 48 46 41 40 39 38 35 32 34 32 31 33 37 45 57 73 83 87 89 89 86 86 88 82 76 72 70 69 69 70 68 66 66 68 72 73 71 73 73 74 87 75 67
96 92 83 77 73 68 66 63 59 57 52 50 46 43 42 40 38 36 35 35 34 30 31 33 37 38 38 45 60 75 85 90 89 92 89 80 74 72 72 74 75 75 71 70 71 74 77 74 74 76 88 79 72 67
95 90 83 78 76 73 68 66 62 58 53 50 49 46 44 41 40 36 34 32 30 26 30 32 32 31 31 32 36 46 64 76 88 94 97 95 82 77 76 78 77 76 77 77 77 79 79 78 77 92 85 76 73 68
94 88 83 79 77 72 67 65 62 58 56 52 48 45 42 42 42 40 37 30 28 28 30 30 29 26 25 27 31 35 45 60 75 91 94 95 97 88 84 84 82 81 80 80 83 86 82 79 89 85 82 79 72 67
94 90 87 80 75 72 68 64 62 57 54 54 51 46 45 44 44 41 36 26 24 28 33 35 32 29 29 28 32 36 42 50 65 85 96 98 98 98 96 93 91 88 85 83 84 87 86 84 88 87 82 76 73 68
95 88 81 75 74 70 64 61 61 57 56 54 51 48 49 47 45 39 33 25 30 27 24 22 21 21 23 29 32 38 44 50 54 73 93 98 98 98 98 98 95 92 92 90 91 92 90 87 91 86 83 81 73 71
93 87 80 76 72 67 66 61 57 55 55 50 49 53 49 47 43 32 27 30 26 21 20 23 26 30 32 31 33 41 46 53 57 65 88 97 96 97 97 97 98 97 96 94 95 95 92 91 89 87 87 79 78 76
89 84 85 83 78 72 67 63 59 57 52 49 50 50 43 38 29 26 27 25 24 22 24 27 35 42 44 45 41 42 50 57 62 67 84 96 96 97 97 98 98 97 96 96 97 97 94 92 94 92 83 82 81 79
90 89 87 84 79 75 68 63 59 52 49 47 44 39 34 28 25 26 27 27 25 26 29 36 52 55 54 51 48 48 59 64 67 73 87 95 98 97 97 97 97 98 98 96 97 97 95 97 95 90 91 88 84 88
93 87 84 83 79 74 66 61 56 53 48 44 40 36 31 29 28 30 29 28 28 31 40 55 61 64 63 60 56 56 64 70 74 83 86 95 97 97 97 97 97 97 97 97 97 97 97 95 96 97 91 90 96 91
92 88 85 82 77 70 66 62 58 51 47 45 42 39 36 31 27 29 29 29 32 46 59 65 71 72 73 72 69 70 73 78 82 90 90 94 97 97 97 97 97 97 97 97 97 97 97 97 96 93 96 96 88 83
88 85 84 76 72 71 68 63 58 51 49 47 42 39 37 34 33 31 30 33 47 60 67 72 77 79 80 80 79 85 86 84 90 96 93 96 97 97 97 97 97 97 97 97 97 97 97 97 97 97 96 90 85 80
87 86 79 73 72 68 62 57 54 53 50 46 41 40 38 38 36 33 33 44 58 68 73 77 84 86 88 89 90 91 92 93 96 98 97 96 97 97 97 97 97 97 97 97 98 98 98 98 97 94 90 86 79 69

GFSWCAN_prec_cthk_012.txt.gz
RH
94 81 80 69 58 53 46 44 42 40 38 37 33 31 24 16 16 13 34 63 68 69 72 73 74 71 72 74 83 88 87 88 88 85 83 85 86 81 77 74 79 79 79 81 85 88 83 66 69 73 70 73 72 80
93 82 78 75 63 54 48 47 46 42 39 38 35 34 33 23 19 18 19 40 67 71 72 76 75 76 80 82 87 86 90 87 89 88 88 87 88 85 79 80 74 77 70 71 70 69 63 64 66 69 69 72 71 79
87 84 86 82 69 56 52 49 48 46 41 40 36 38 35 30 27 21 24 28 58 76 75 76 74 76 80 81 87 86 84 84 89 90 91 94 91 84 85 78 77 73 69 71 66 67 66 64 66 67 67 70 71 79
95 90 84 84 72 61 56 52 50 47 43 40 37 36 35 31 34 27 25 26 56 84 85 84 79 81 79 82 83 82 83 82 88 89 91 92 92 85 85 82 81 77 75 72 70 66 64 66 66 66 66 71 75 78
96 89 86 88 77 65 59 60 52 48 47 41 37 38 35 40 38 30 23 26 45 94 90 88 83 81 82 82 85 81 82 81 87 89 89 89 89 88 83 80 74 72 74 75 76 68 66 64 64 67 67 70 75 79
93 91 86 88 80 69 62 65 56 49 50 42 37 41 48 46 45 37 38 28 41 87 96 94 90 88 86 84 85 86 83 78 83 87 89 87 86 89 88 83 75 69 70 70 70 66 67 67 67 70 68 71 73 74
94 96 96 95 87 74 64 68 56 52 48 41 34 47 44 45 47 50 44 58 73 95 98 97 93 90 93 91 90 89 85 85 83 87 87 87 88 92 90 86 75 73 72 70 70 68 69 71 73 73 72 73 73 75
94 95 96 96 93 78 69 70 57 51 47 35 44 44 47 44 44 45 40 59 97 98 98 98 93 94 93 93 92 89 87 86 87 86 86 85 85 88 88 78 76 73 68 70 71 72 72 74 77 78 77 75 77 77
94 96 96 96 97 82 72 69 57 50 38 39 40 44 48 40 43 36 49 84 97 98 98 97 94 94 89 91 88 90 89 89 86 84 78 79 84 93 83 86 85 83 80 77 75 75 75 75 78 82 81 79 79 80
95 95 94 96 97 83 73 66 58 41 36 43 37 39 37 37 41 56 84 98 98 98 98 97 93 92 90 86 84 86 87 84 82 76 77 78 80 82 89 89 86 83 82 84 81 79 78 78 79 83 85 82 82 84
93 91 95 96 97 81 75 65 52 42 37 47 43 37 49 62 74 85 98 98 98 98 97 97 92 89 88 83 81 80 83 82 80 78 76 80 78 81 82 83 83 77 81 85 85 84 82 79 79 81 86 86 85 84
93 92 94 97 97 86 80 64 51 44 35 59 60 65 70 80 85 93 97 96 94 93 93 96 93 88 83 81 79 78 76 77 78 75 77 76 76 72 66 63 76 83 82 84 83 84 86 85 85 85 85 86 84 86
94 94 95 96 97 94 81 67 52 45 35 53 60 64 69 76 81 83 84 85 88 89 92 93 93 88 85 84 83 79 77 76 70 77 74 74 71 62 56 62 72 86 86 84 83 81 81 88 93 92 88 86 85 90
95 94 93 96 97 96 81 67 55 48 42 47 62 65 69 72 75 79 80 84 85 89 94 93 93 91 87 86 83 79 76 74 74 77 74 75 66 59 58 62 72 85 91 85 83 81 77 86 94 94 90 86 91 90
96 95 96 96 97 97 87 66 58 53 47 41 56 60 62 68 75 80 80 82 83 84 88 92 91 88 87 86 80 80 77 74 71 75 77 71 62 60 59 58 66 81 86 91 89 82 79 81 87 92 93 92 88 78
97 96 95 97 98 97 85 69 61 61 59 48 48 54 58 66 71 73 75 79 82 83 86 87 91 89 86 84 83 77 75 73 76 75 73 70 65 65 65 62 60 64 77 86 88 84 82 80 80 81 84 86 83 77
93 95 97 98 97 95 85 73 67 67 65 53 45 47 55 62 64 67 70 76 77 80 84 89 90 88 89 87 81 77 74 78 75 74 76 75 73 69 67 67 64 62 62 69 83 84 87 85 83 84 84 83 81 78
95 96 97 98 97 96 84 72 70 70 68 57 51 44 48 51 54 54 56 62 69 81 85 85 86 89 88 84 79 80 79 78 77 76 74 74 74 74 75 73 68 66 65 65 66 74 81 82 83 85 87 86 84 82
96 97 98 97 97 94 79 76 73 74 71 66 57 50 47 43 44 42 41 45 52 57 69 82 85 81 78 76 80 82 80 79 77 76 74 73 73 71 72 74 74 73 70 67 66 68 69 75 81 84 85 84 86 86
98 98 98 97 97 90 79 79 76 75 74 70 61 54 45 40 35 32 30 27 28 28 33 48 58 68 74 78 78 76 72 70 68 67 69 72 70 67 67 67 70 72 71 72 70 69 71 72 75 80 82 84 84 85
97 98 97 97 98 94 85 80 79 80 76 72 69 58 49 44 42 40 40 40 43 41 37 32 35 28 30 33 30 28 28 29 33 38 42 47 56 61 62 65 67 69 72 72 70 72 74 75 76 78 79 81 82 81
97 98 98 97 97 94 90 86 84 84 83 79 70 63 56 52 48 45 43 43 43 40 36 33 31 30 29 26 23 20 18 17 16 16 16 17 19 23 33 48 58 64 71 73 74 71 73 77 80 78 80 79 82 79
98 98 98 97 98 94 89 85 87 86 87 81 77 72 64 57 52 49 47 46 41 35 33 31 29 29 27 26 24 21 21 20 20 20 19 19 19 19 22 24 30 50 62 74 75 74 74 74 78 83 82 81 81 77
98 98 97 97 95 91 84 85 86 92 91 84 77 69 63 59 56 54 51 44 39 33 30 28 28 27 25 24 20 15 15 14 14 14 15 17 16 16 21 22 24 29 43 61 79 81 78 78 77 80 83 85 81 83
98 97 96 93 91 88 84 84 86 89 86 82 76 68 65 60 58 56 52 45 39 31 26 24 24 24 24 22 19 17 16 17 17 17 17 21 21 19 16 19 21 26 35 48 68 85 88 85 83 81 81 83 84 85
96 96 93 89 84 84 82 83 84 84 83 79 73 66 64 62 62 56 48 37 29 23 23 22 21 22 22 21 20 19 19 20 21 22 22 27 27 26 24 23 24 26 35 43 58 77 90 93 89 85 83 83 86 89
95 90 88 84 83 79 78 76 78 80 77 73 71 69 66 69 63 49 36 31 28 25 25 26 26 25 22 22 22 22 22 23 28 31 32 33 33 33 31 27 22 26 36 44 55 72 87 92 96 96 91 88 86 94
86 84 87 88 84 80 81 79 77 73 72 68 68 71 69 61 51 41 38 33 28 26 26 26 25 24 23 23 23 23 29 36 38 38 38 38 39 40 37 32 29 32 39 46 56 70 87 97 98 98 97 93 90 96
82 82 84 90 89 86 85 79 76 71 72 70 70 68 61 53 48 42 36 32 29 27 26 24 24 24 22 24 31 37 41 43 45 46 48 48 46 46 42 37 37 42 48 53 58 75 95 98 97 97 97 97 98 97
85 85 87 89 89 88 86 80 77 73 69 67 66 60 55 50 45 39 35 32 29 27 25 24 23 25 30 35 38 41 49 50 50 53 56 57 55 49 44 44 49 53 57 61 62 77 94 96 96 97 97 97 97 97
87 89 89 87 89 87 88 85 78 74 73 70 63 59 55 50 42 36 33 30 27 24 24 24 29 35 38 41 44 45 47 53 54 58 63 65 60 54 51 55 60 64 69 70 73 85 93 95 97 97 97 97 98 97
92 93 92 91 91 91 89 85 82 79 74 68 64 59 53 47 42 35 29 27 26 26 26 29 36 40 43 46 50 52 55 57 64 70 76 75 67 62 61 67 70 73 76 82 89 97 97 97 97 97 97 97 97 94
95 93 93 94 94 93 89 83 81 77 69 64 58 52 48 44 41 34 30 27 27 28 31 36 39 42 46 50 53 57 61 67 74 80 85 83 76 73 78 76 81 82 90 93 98 97 97 97 97 97 97 97 95 95

GFSWCAN_prec_cthk_015.txt.gz
RH
87 93 96 95 87 74 66 64 57 46 45 45 44 42 40 40 28 19 17 21 43 61 62 68 69 71 69 69 74 77 78 81 81 80 76 76 78 77 77 77 84 81 85 85 85 87 81 67 71 76 69 69 71 71
85 95 97 91 86 79 73 69 62 52 48 49 48 44 46 40 32 31 21 24 22 35 59 65 71 75 79 79 81 82 86 83 79 82 81 82 80 79 80 82 75 85 77 81 76 71 62 65 67 68 69 67 70 71
96 96 96 95 90 86 75 67 67 58 53 52 50 48 51 49 40 37 32 25 30 26 30 65 69 78 81 84 88 87 87 85 85 84 88 88 86 81 80 80 78 76 76 78 76 69 66 66 68 69 67 65 70 72
97 97 97 97 93 88 78 71 66 65 58 54 52 50 49 43 44 47 48 33 32 35 36 71 77 82 82 83 85 88 93 88 89 90 91 90 90 84 82 78 78 77 81 80 76 73 71 71 67 66 67 66 72 75
97 97 97 97 93 92 88 77 65 70 60 55 55 50 48 50 51 50 42 40 29 40 54 82 89 85 84 85 88 90 89 90 86 89 90 87 85 84 80 79 81 70 73 79 78 77 75 72 68 68 68 68 71 75
97 97 97 96 97 97 91 82 70 70 60 57 56 49 50 48 51 50 50 47 36 40 68 95 99 90 89 88 90 94 89 88 87 84 85 85 85 86 87 86 74 69 74 73 73 74 73 71 69 71 72 70 73 75
97 97 97 97 97 97 96 84 72 67 58 58 51 52 48 47 43 51 49 66 51 50 88 98 99 94 92 95 94 95 92 93 88 83 82 86 87 89 85 83 77 76 76 76 75 78 78 75 71 73 76 74 76 76
97 97 97 97 96 94 95 86 73 64 61 53 54 44 46 46 38 43 50 59 77 97 98 98 99 98 94 97 96 94 97 94 90 87 88 88 82 82 91 90 89 86 82 80 79 79 76 76 74 75 81 78 80 78
97 97 98 97 97 95 96 85 72 62 52 49 45 42 46 41 41 39 48 69 94 98 98 99 97 97 95 96 96 98 97 95 91 92 85 85 82 89 91 95 92 87 86 83 81 80 78 77 75 78 82 83 83 81
97 97 97 97 95 95 93 82 71 58 48 48 51 53 51 49 49 60 91 97 97 97 99 99 98 98 97 95 97 96 96 97 93 91 85 84 80 83 87 85 84 86 80 78 81 82 81 81 79 79 84 86 87 83
97 97 96 96 92 92 91 84 71 58 49 60 61 57 59 61 71 91 96 96 96 98 98 98 99 96 96 92 92 92 90 91 91 85 79 80 81 81 80 73 68 77 83 80 83 85 85 84 81 80 83 87 92 89
97 96 96 95 93 92 92 92 75 60 49 51 60 64 68 74 78 86 86 88 92 95 97 98 95 96 93 94 88 84 85 86 85 81 81 75 78 74 67 64 68 75 86 89 85 87 88 87 87 85 85 84 93 93
98 96 96 95 92 92 93 93 78 62 54 49 58 62 68 73 78 80 79 82 83 86 91 94 93 91 91 86 84 84 80 78 73 77 75 78 76 66 63 64 73 84 90 88 90 90 89 89 91 92 92 90 89 89
97 93 94 95 94 95 94 95 79 64 59 53 60 64 64 71 72 72 77 80 81 83 86 90 92 93 91 90 87 85 80 74 73 76 77 79 73 66 66 64 74 86 90 95 94 90 90 88 91 96 96 94 90 88
91 94 95 94 96 97 96 94 82 67 64 59 55 61 60 66 71 76 76 78 80 84 88 89 92 92 93 92 89 86 81 74 70 76 79 78 70 69 68 67 67 75 88 90 92 93 89 88 91 96 98 96 93 93
89 88 94 94 96 97 97 94 85 74 70 69 59 54 54 59 72 76 79 81 81 81 87 90 94 94 93 89 87 81 76 73 75 77 77 75 73 71 71 70 69 69 68 77 88 91 90 88 86 89 95 96 94 96
84 92 94 95 97 97 97 95 85 84 80 77 65 53 45 54 65 72 75 81 81 83 87 88 90 87 88 88 85 79 78 80 79 79 77 74 74 75 74 74 71 68 68 68 68 81 87 86 85 86 88 90 93 95
70 82 94 96 97 96 96 93 86 83 82 80 74 59 49 44 56 63 62 68 77 83 84 86 87 89 86 82 80 86 87 87 85 81 76 75 74 73 70 68 71 75 72 70 70 69 69 79 87 85 86 88 89 89
68 77 87 96 96 94 92 86 85 82 80 84 78 69 58 50 49 52 54 55 56 61 75 82 84 79 75 75 75 80 80 79 81 80 77 73 74 69 65 63 65 67 68 71 74 71 69 70 71 78 84 85 86 87
76 76 82 91 96 95 90 86 82 82 79 82 84 79 67 56 48 42 39 36 37 41 44 50 57 64 66 69 69 68 68 67 66 63 60 58 56 55 54 55 58 60 63 65 67 69 70 72 73 73 74 78 82 85
68 71 80 95 97 94 91 88 83 85 85 82 84 85 75 66 53 44 39 36 38 36 34 29 29 32 36 35 32 27 24 22 21 23 27 28 29 30 31 34 37 44 52 58 62 65 69 69 70 75 76 77 78 80
76 78 89 98 97 96 93 92 88 84 86 88 85 83 74 67 58 52 49 49 45 39 38 37 35 35 33 31 28 24 23 21 20 19 19 18 15 14 14 16 19 22 27 35 48 57 64 68 70 71 75 78 81 79
89 88 88 97 97 95 89 87 87 87 91 88 85 87 82 76 72 67 59 53 46 39 36 38 37 33 30 27 25 25 23 21 18 16 16 16 16 17 17 17 18 17 16 17 23 32 54 66 72 73 73 78 79 81
91 93 90 95 94 90 85 84 84 87 90 95 90 87 84 80 75 70 62 55 47 43 40 38 36 35 30 27 25 24 22 19 18 17 16 16 14 14 17 16 16 16 16 17 22 26 34 49 68 76 79 77 80 83
99 98 92 91 90 85 82 83 85 88 93 94 93 86 79 76 73 70 64 55 48 45 42 38 32 26 24 21 20 20 22 21 20 17 16 17 18 19 19 20 20 20 19 17 20 25 31 40 53 72 80 82 82 86
97 96 87 85 85 83 80 81 83 85 89 93 90 82 77 76 75 66 59 52 47 41 34 29 27 24 21 20 20 20 22 22 21 20 17 20 23 26 26 25 23 22 27 26 23 26 31 37 43 57 75 85 88 88
97 88 81 82 80 80 80 78 79 86 90 89 83 82 78 77 70 61 53 46 41 39 39 35 28 26 23 23 23 24 23 22 22 22 25 27 29 32 33 32 28 27 29 29 26 24 30 36 42 51 63 77 88 96
89 79 81 82 81 80 80 82 83 84 84 76 74 76 76 68 64 55 51 48 46 42 37 31 28 26 23 22 22 23 22 26 30 32 32 32 36 38 40 37 34 35 34 34 32 28 31 38 43 51 60 70 87 95
78 79 84 87 84 85 83 83 84 75 73 74 76 75 72 66 63 57 53 49 45 41 37 34 29 25 23 23 23 25 32 35 36 35 34 33 34 39 44 42 42 43 43 42 38 35 39 44 48 54 63 66 85 97
79 84 84 84 85 86 85 86 83 82 81 76 74 71 68 65 61 55 51 48 44 40 35 31 27 24 23 24 29 34 38 40 40 40 38 36 38 43 48 50 51 55 51 43 41 43 49 52 52 59 65 74 92 97
85 85 84 82 85 85 87 89 89 86 83 80 76 71 69 63 57 54 51 46 42 36 31 27 25 25 27 32 35 35 36 41 42 42 43 44 48 54 60 63 66 63 50 47 52 57 60 60 59 75 86 90 97 97
86 86 84 86 88 88 90 90 89 88 88 84 79 73 67 63 59 50 40 36 32 28 26 25 26 31 35 36 38 39 40 40 43 46 49 55 63 72 76 75 75 64 57 65 68 67 67 66 67 84 87 97 97 97
88 88 89 91 93 94 93 93 92 89 86 79 76 71 64 59 52 42 37 33 30 27 26 28 32 35 36 37 39 41 42 46 49 53 63 74 83 85 83 79 70 69 72 74 77 77 76 76 78 94 97 97 97 97

GFSWCAN_prec_cthk_018.txt.gz
RH
73 77 79 83 92 97 95 88 78 64 60 50 52 53 52 55 52 44 35 28 23 30 32 56 61 62 65 67 67 65 68 73 77 74 74 74 75 77 78 76 81 82 83 87 88 86 80 70 74 73 69 70 68 71
81 80 77 87 97 97 95 88 80 76 66 56 55 56 53 50 50 51 48 42 35 31 20 32 54 63 67 73 75 72 72 75 76 81 79 79 78 77 82 75 77 84 76 79 82 73 65 66 65 64 69 68 68 71
80 80 90 94 97 97 97 92 83 73 75 64 58 58 57 55 56 51 51 50 44 35 22 22 30 57 66 73 82 83 78 81 80 80 85 87 84 80 81 79 78 75 75 80 81 70 71 67 65 67 70 67 68 71
93 95 97 97 97 97 97 95 88 76 78 73 62 61 58 54 55 58 58 51 52 45 37 20 32 57 72 81 85 90 89 85 84 86 89 93 92 89 86 81 84 80 77 76 78 76 73 71 71 68 66 67 69 72
98 97 98 97 97 97 97 97 93 85 79 74 64 62 58 62 60 54 50 53 55 51 42 37 34 62 86 91 94 92 93 93 90 91 94 94 91 88 86 83 81 74 74 72 72 76 76 74 73 70 68 68 69 72
98 97 97 97 97 97 98 97 96 84 78 73 62 60 60 58 53 48 48 52 50 50 47 43 59 83 99 99 96 93 94 94 94 91 89 90 89 87 88 85 76 74 74 73 73 72 72 72 73 70 68 70 70 73
98 97 98 98 97 97 97 97 96 86 79 64 59 64 55 49 48 42 42 54 55 47 55 80 91 96 99 99 98 98 96 98 92 91 88 87 85 88 83 83 81 85 84 82 78 78 77 77 76 74 71 74 74 74
97 97 97 97 97 97 97 97 93 85 69 56 58 52 50 43 36 36 43 52 64 80 94 97 98 98 99 97 99 98 99 97 94 90 90 88 83 80 82 83 86 88 86 85 84 82 79 82 81 76 75 76 79 77
97 97 97 97 97 97 97 97 90 82 61 56 65 59 43 41 38 51 74 85 91 97 97 98 99 99 98 96 99 98 98 98 94 92 90 85 80 82 79 81 80 83 86 82 81 81 80 83 80 77 76 76 82 81
97 96 97 97 97 97 97 92 87 72 54 67 71 65 57 54 65 75 82 90 94 97 97 97 99 96 94 94 98 97 96 97 99 95 93 91 78 79 78 80 77 74 81 84 81 77 80 81 80 78 77 77 80 85
97 94 96 97 97 97 97 96 91 75 55 62 74 63 55 61 72 79 79 86 95 97 98 98 97 98 96 94 97 96 98 98 96 92 91 85 81 77 79 74 68 71 74 83 87 81 80 85 84 83 81 82 83 89
98 96 96 97 97 95 93 97 92 80 58 56 58 66 59 70 77 79 78 83 90 94 97 99 99 99 98 96 96 94 90 93 94 93 90 83 79 78 68 65 67 74 82 85 87 86 87 88 87 87 86 83 83 88
98 98 97 97 96 96 95 96 94 80 62 64 61 62 68 72 75 77 74 80 86 91 96 96 98 98 97 95 90 86 85 86 82 85 80 75 79 72 67 67 70 83 90 93 91 91 91 89 90 90 92 89 88 94
87 96 98 98 96 96 98 97 96 83 68 69 70 71 71 69 71 72 76 78 82 84 90 93 95 95 95 94 91 87 88 85 82 76 73 81 79 73 73 71 74 84 93 93 98 97 93 93 90 91 94 96 93 95
76 81 88 94 97 96 97 99 95 89 74 73 72 70 68 62 71 72 74 77 79 82 88 92 94 95 98 96 93 90 90 85 74 72 78 80 73 74 74 74 72 71 73 88 93 96 95 91 93 93 97 98 97 96
76 76 83 86 96 97 98 99 94 89 85 81 78 72 64 60 67 74 79 81 82 84 88 90 94 95 96 94 94 91 85 78 77 77 77 75 72 71 71 70 72 72 71 71 74 84 90 93 89 92 96 98 98 97
63 68 78 86 92 98 97 97 95 86 89 83 83 82 70 52 52 72 80 84 86 86 89 89 90 90 93 92 90 86 82 82 80 81 78 75 74 73 71 69 70 72 72 71 71 70 74 83 87 90 89 93 97 97
57 66 70 75 82 91 98 98 93 89 84 85 89 89 77 60 42 55 71 80 85 88 88 87 88 88 85 84 83 84 86 86 83 82 80 77 74 73 67 65 64 65 66 69 71 72 71 70 75 81 86 87 90 95
62 65 68 70 72 82 92 90 91 89 81 84 88 92 82 70 58 47 57 62 68 78 87 88 86 80 76 78 78 77 77 81 83 82 78 74 70 65 61 58 56 56 57 60 61 64 67 69 70 72 76 80 84 87
61 69 74 72 72 82 84 85 82 81 84 84 84 90 94 87 66 56 56 54 52 53 58 61 65 67 71 73 73 73 70 68 67 65 60 54 49 46 44 43 41 39 40 43 50 57 61 64 65 66 69 74 79 81
60 72 75 74 72 76 83 84 84 80 85 88 86 84 84 87 80 66 56 54 48 37 33 27 27 28 32 35 38 36 34 30 23 22 23 24 22 21 20 21 21 21 23 26 30 36 48 56 61 63 67 67 71 77
62 70 73 79 77 76 81 89 88 83 82 85 87 87 86 85 82 76 66 59 50 37 32 30 28 30 35 37 36 33 28 25 23 21 20 18 16 15 15 15 15 14 13 14 17 20 26 37 48 57 63 66 68 72
67 74 76 84 85 77 76 88 88 86 88 89 89 89 88 86 86 82 72 67 58 51 43 39 36 36 38 40 36 29 26 24 21 19 18 18 18 18 17 17 18 18 18 17 18 16 16 21 28 37 50 62 67 70
69 76 80 88 88 79 69 83 86 86 86 91 90 86 87 89 86 82 77 72 68 54 47 43 43 43 41 39 35 29 26 26 23 20 19 18 18 17 16 15 16 18 20 19 18 17 15 17 24 29 35 44 59 69
78 83 83 78 80 75 72 80 84 86 86 87 95 96 89 87 83 79 75 71 64 57 53 50 48 45 41 34 31 27 26 24 23 21 19 19 18 17 17 18 21 23 24 24 24 22 21 20 21 24 31 38 49 63
83 84 81 73 73 72 71 79 83 85 85 89 93 92 85 84 84 75 69 66 62 57 52 47 43 39 36 33 29 25 24 24 24 22 19 18 18 20 23 25 25 24 28 30 28 27 26 25 25 26 31 36 41 54
77 77 71 64 67 69 73 77 79 82 83 89 91 92 89 89 78 68 64 61 57 52 49 49 47 44 38 33 29 26 26 26 25 22 19 20 23 26 30 31 31 31 32 33 33 32 30 29 28 27 30 37 41 49
64 68 61 59 65 69 76 80 80 80 84 91 88 84 84 75 69 65 64 58 57 57 55 51 48 43 37 32 29 28 26 24 22 21 23 27 30 33 33 33 33 34 34 35 35 35 34 34 33 31 30 35 43 46
55 59 60 62 63 70 73 76 79 78 79 82 84 81 77 72 72 71 66 62 60 56 52 49 44 39 36 34 30 26 24 23 24 27 28 29 31 34 36 35 36 36 37 38 39 40 41 42 42 39 35 37 43 47
45 53 61 62 68 71 73 76 78 79 84 85 83 78 74 72 73 69 63 61 56 50 48 44 42 39 34 30 26 25 26 29 30 32 32 32 33 35 37 39 40 41 43 45 48 49 51 52 51 46 40 39 45 50
43 58 64 76 77 78 81 83 86 85 86 86 83 80 79 77 73 68 65 58 54 52 47 43 40 34 28 25 25 26 29 32 33 35 37 37 37 39 41 44 47 51 56 60 61 62 63 58 51 46 46 51 56 57
64 71 79 79 81 84 86 88 88 87 87 87 85 84 83 80 74 68 58 51 47 42 39 34 30 27 26 26 29 31 32 34 36 37 37 40 42 46 52 58 66 74 76 76 78 73 65 58 56 59 62 63 62 64
92 88 87 89 90 90 90 91 91 91 89 88 86 86 82 77 72 62 54 46 41 36 32 29 27 27 28 30 33 35 37 38 39 42 44 46 51 61 74 82 83 83 82 79 72 66 70 73 70 67 66 66 73 74

GFSWCAN_prec_cthk_021.txt.gz
RH
67 74 75 71 75 79 82 91 94 94 91 82 71 60 59 56 61 54 49 43 38 39 32 26 44 52 59 61 60 61 67 67 70 71 72 73 73 74 77 71 78 81 83 77 80 86 80 68 78 81 72 68 70 68
69 76 75 78 82 84 86 92 96 95 89 90 79 64 57 60 62 68 65 60 59 56 41 32 26 40 50 60 67 69 64 69 71 73 72 74 74 75 78 78 75 82 77 82 76 76 65 70 72 71 67 67 67 67
79 82 82 87 91 91 92 94 97 96 90 86 84 76 62 60 59 63 63 65 65 62 54 51 35 24 41 52 67 72 70 71 73 75 78 81 77 76 81 80 79 77 76 79 79 73 76 73 73 68 68 67 66 67
90 90 91 93 95 95 97 96 97 97 96 92 92 80 67 64 62 67 66 65 63 57 52 37 32 29 36 58 60 68 79 80 79 79 79 82 82 80 82 79 81 78 79 75 72 74 76 76 74 68 68 66 66 68
89 90 95 96 96 96 97 97 97 97 97 90 90 83 70 68 69 64 57 53 52 54 48 36 29 20 21 52 71 79 84 89 86 86 85 84 85 86 86 83 79 72 72 74 73 70 70 72 74 73 72 70 68 70
91 93 97 97 97 97 97 97 97 97 97 94 90 70 64 68 60 54 52 40 45 46 50 47 27 23 31 47 78 90 98 96 92 87 89 88 87 86 88 85 73 71 71 73 73 72 69 71 75 74 73 71 70 72
92 95 97 97 97 97 97 97 97 97 97 89 70 61 62 54 52 52 41 44 55 65 69 60 62 53 47 77 94 96 95 99 97 94 92 89 89 88 85 83 76 81 80 79 80 77 72 72 74 74 76 73 72 75
92 96 96 97 97 97 97 97 97 97 93 74 59 66 56 50 46 48 55 72 77 84 87 90 82 79 93 99 99 98 99 98 97 96 93 90 89 86 79 75 74 73 76 78 82 81 79 76 77 78 78 77 75 77
96 98 97 97 97 97 97 97 97 97 86 59 71 71 61 60 57 58 68 81 94 91 85 93 98 99 97 96 94 93 92 93 96 95 92 86 85 79 72 72 71 74 73 75 79 78 77 79 78 80 81 80 77 76
98 97 97 97 97 97 97 97 97 97 86 56 72 75 67 68 70 77 83 87 84 85 89 90 94 92 99 90 98 97 96 98 98 95 92 86 79 76 75 73 73 73 69 66 73 80 79 77 80 81 83 79 77 77
98 97 97 98 98 96 97 97 97 97 88 59 62 72 66 67 68 79 88 91 91 89 94 97 98 96 93 91 95 94 97 97 96 92 98 92 85 79 77 74 72 66 67 75 82 88 89 82 82 84 83 81 80 80
95 97 96 97 98 97 94 97 97 97 94 65 56 56 60 68 74 75 78 82 90 93 94 96 98 94 95 95 96 98 96 95 94 92 94 83 82 78 77 72 63 68 79 85 89 90 89 85 85 86 86 85 84 83
65 88 95 95 97 97 98 98 97 98 93 78 73 67 67 74 76 74 74 78 87 91 94 95 97 99 98 97 97 95 90 92 90 93 86 81 82 79 70 66 69 85 89 91 89 91 90 90 92 90 89 89 91 89
54 64 74 84 98 98 98 98 98 97 91 81 79 76 76 79 74 70 74 78 83 88 95 97 99 98 98 98 95 89 89 86 87 79 70 76 79 77 74 76 76 78 82 88 93 97 97 97 95 93 92 93 95 93
51 61 69 77 87 90 96 98 98 97 92 83 81 79 75 76 77 71 71 73 80 84 89 95 97 97 98 95 92 90 91 86 81 74 72 77 77 76 76 76 76 76 74 75 83 92 96 96 95 95 95 97 96 97
44 57 64 73 82 87 90 96 97 97 92 88 82 80 75 75 73 69 71 76 80 83 86 91 95 95 95 94 92 91 87 83 79 78 78 76 73 70 72 71 71 73 73 74 74 75 81 87 90 92 94 97 98 98
48 54 63 70 76 85 90 96 97 94 91 88 85 85 86 88 72 61 65 84 86 85 88 89 89 88 91 90 90 87 87 86 84 80 79 78 76 74 72 68 67 68 70 71 71 72 74 74 76 84 90 91 95 99
37 50 63 65 70 76 80 89 96 90 87 86 88 88 88 92 84 64 58 76 90 92 91 90 89 88 86 85 89 85 85 83 82 81 80 79 77 76 71 66 61 59 58 59 60 61 64 67 70 72 75 87 89 93
36 48 61 68 69 70 70 71 84 86 84 83 83 83 90 97 96 78 61 60 78 89 91 90 88 81 78 78 81 83 83 81 80 83 82 79 77 73 67 62 58 52 48 47 46 48 50 53 58 65 67 70 75 84
47 49 61 73 80 78 73 67 69 73 80 80 82 87 89 94 97 94 70 58 58 66 77 76 75 75 79 78 77 77 75 75 72 70 67 67 64 57 49 43 38 34 32 32 32 33 35 39 46 54 60 64 67 68
62 53 57 69 79 81 77 65 64 72 78 83 85 91 93 91 91 96 82 68 68 53 43 37 45 52 54 54 52 51 54 54 51 46 37 31 29 27 26 24 21 19 18 18 17 17 19 23 28 35 45 56 62 65
63 54 60 71 73 79 74 70 71 75 84 84 85 87 89 89 90 91 93 89 73 54 46 35 29 22 20 21 24 29 31 30 28 26 25 21 18 16 16 15 14 14 15 16 17 17 15 14 14 18 26 36 47 58
65 61 60 73 77 77 72 73 77 82 90 85 87 89 91 91 90 91 89 83 74 67 52 46 43 35 32 35 37 37 35 33 31 28 23 20 20 20 19 18 17 16 15 15 17 18 18 18 17 16 19 24 29 37
77 74 70 75 76 74 67 70 74 77 86 88 90 85 84 87 89 87 81 74 72 71 69 64 54 49 47 44 42 39 37 35 31 27 24 22 20 20 19 17 16 16 16 18 19 19 19 19 19 19 18 20 26 32
88 86 77 72 71 71 65 64 68 73 83 86 91 90 90 88 88 85 78 72 69 67 67 63 57 55 51 48 45 42 36 32 30 28 26 24 22 20 19 18 18 20 22 23 22 22 22 22 22 22 22 23 24 29
87 90 85 73 69 65 60 58 60 71 84 87 89 90 88 86 85 79 71 66 65 64 64 62 57 56 53 47 44 39 37 36 33 28 25 26 26 24 22 22 22 21 24 25 26 26 26 27 26 26 26 27 28 28
84 78 77 71 66 63 58 54 58 70 80 83 86 92 91 89 83 73 64 64 64 62 58 55 54 53 52 51 48 44 41 37 33 30 28 28 26 24 25 27 26 26 26 26 26 27 28 28 29 29 30 29 30 31
64 69 63 63 66 62 60 58 57 63 73 76 84 88 92 86 74 66 68 67 61 61 60 61 63 62 58 53 49 45 40 36 33 31 30 27 26 29 32 30 28 28 28 28 28 28 30 32 33 33 34 33 32 34
57 55 56 56 57 61 56 51 51 51 64 78 82 81 82 78 77 75 73 71 69 68 66 64 61 56 53 49 44 40 36 34 33 30 28 28 29 30 29 29 29 30 30 30 32 34 35 37 37 37 38 38 38 39
47 51 51 48 49 46 42 45 44 50 64 74 75 74 77 78 81 78 74 72 70 67 63 59 54 51 46 43 42 41 36 32 30 31 31 29 27 27 28 30 31 33 35 36 36 38 41 42 43 44 44 44 45 44
47 52 52 47 46 40 39 41 47 57 69 75 76 75 76 78 79 78 78 79 75 71 65 59 55 50 47 45 42 34 30 30 31 30 30 29 29 31 33 35 38 40 42 43 45 48 53 56 57 58 58 57 56 55
66 57 51 50 46 43 44 43 55 65 73 79 77 78 79 78 75 76 76 75 71 64 59 53 47 44 41 35 30 29 29 30 30 31 32 33 35 38 39 40 44 47 51 60 68 71 73 74 75 75 73 68 63 59
87 77 59 51 50 48 46 54 69 81 85 84 83 83 80 79 77 74 72 71 65 57 48 42 38 34 31 30 30 30 31 31 33 34 37 40 42 44 46 50 58 70 79 80 77 75 77 78 77 77 75 74 71 68

GFSWCAN_prec_cthk_024.txt.gz
RH
72 64 61 70 69 72 73 80 83 85 87 95 97 96 86 67 59 56 53 51 51 49 42 38 38 38 48 58 61 58 61 63 69 72 71 70 73 73 73 69 73 74 76 77 74 76 71 66 71 80 82 79 75 72
73 64 67 71 75 78 83 88 88 91 91 96 97 97 93 83 61 66 66 67 65 69 58 54 49 43 37 59 59 65 62 58 60 66 67 70 70 71 70 76 70 75 70 74 74 67 57 73 73 76 78 76 73 68
74 78 82 84 84 83 86 92 96 96 97 97 95 97 96 91 81 69 68 70 73 70 67 67 56 51 45 41 61 66 68 68 66 64 70 73 72 72 76 73 70 71 70 71 74 70 70 75 75 77 79 74 72 69
81 87 91 87 90 90 93 95 96 97 97 97 97 97 97 93 86 85 79 76 72 66 60 40 36 38 41 42 48 60 71 74 75 75 74 74 72 71 74 72 73 72 74 73 71 73 71 73 78 78 79 73 71 69
82 92 90 89 91 95 97 97 97 97 97 97 97 97 95 84 78 80 69 56 53 52 48 44 40 26 23 28 41 60 73 81 79 83 77 76 75 76 77 77 76 71 69 71 73 69 72 71 73 79 79 76 72 71
75 89 94 92 94 95 97 97 97 97 97 97 97 95 83 72 71 59 50 46 48 58 61 63 54 42 26 25 27 43 78 87 82 87 82 78 74 75 78 79 70 69 70 70 71 70 70 70 69 72 75 76 75 73
83 87 95 93 96 97 97 97 97 97 97 97 97 78 73 63 48 56 54 57 61 71 70 65 65 69 50 31 33 65 78 92 98 98 84 82 80 77 78 76 78 74 74 74 72 74 76 77 71 69 74 77 77 75
86 89 96 98 97 97 97 97 97 97 97 97 81 69 68 63 57 53 61 69 70 73 74 79 77 76 57 51 66 97 91 93 88 88 88 86 84 81 79 77 74 75 72 70 72 74 74 75 73 72 74 75 78 78
88 95 98 98 98 98 97 97 97 97 97 96 74 73 68 72 69 68 73 79 75 72 80 90 86 83 87 83 96 98 98 98 98 95 93 88 85 80 78 77 71 71 70 69 68 65 66 73 75 74 76 77 79 79
63 92 96 98 98 98 98 97 97 97 97 94 71 73 74 73 70 73 85 84 84 82 82 89 95 98 98 99 98 98 98 98 92 92 91 88 81 77 74 72 69 68 69 67 63 62 67 75 78 76 80 82 84 83
45 59 86 94 97 98 97 97 97 96 95 92 78 64 59 66 66 78 86 86 84 85 88 88 97 98 95 92 97 95 94 93 91 89 89 85 79 79 76 72 69 69 67 65 68 75 79 86 88 83 82 85 87 84
43 49 58 79 96 98 97 97 97 96 95 97 90 72 61 61 72 80 83 81 87 89 90 91 93 94 94 93 95 94 94 91 86 87 92 81 78 84 79 74 73 68 66 80 85 85 84 86 90 86 86 87 85 83
37 48 55 62 78 94 97 96 95 95 96 94 89 85 79 69 77 78 77 79 82 93 96 93 93 93 94 92 92 94 93 93 93 95 84 79 82 82 79 75 68 71 85 91 90 88 92 92 93 93 91 89 90 89
36 47 55 61 71 78 87 94 96 95 93 89 81 84 85 83 82 82 81 80 81 85 94 95 94 95 96 98 96 94 95 91 89 86 78 78 80 85 77 75 73 76 77 83 86 91 98 98 98 97 96 95 94 94
35 43 49 55 66 76 84 89 91 90 92 88 82 85 83 82 82 81 81 76 76 82 88 95 97 97 99 98 96 97 96 93 87 81 76 75 79 79 77 77 79 79 79 78 77 81 88 93 97 98 97 96 95 93
34 41 50 61 66 73 76 83 86 85 88 89 88 85 82 84 78 80 74 73 76 81 88 93 97 98 98 97 95 92 89 86 82 81 79 79 78 73 75 74 76 77 75 75 76 78 79 80 83 85 89 91 95 94
38 42 55 62 65 69 72 76 83 83 84 88 85 85 87 86 86 86 86 73 78 85 87 93 94 95 96 95 92 90 89 86 85 84 81 82 81 79 75 70 70 69 67 65 64 67 70 72 73 74 76 81 90 94
40 43 60 58 60 67 66 70 73 71 73 77 85 86 87 88 90 94 97 81 75 90 93 90 88 89 89 86 88 85 85 84 82 82 84 82 80 79 77 72 68 63 59 56 53 52 53 53 55 57 62 67 70 79
40 49 56 68 62 67 71 68 69 63 59 69 79 85 84 86 90 95 96 94 76 83 95 93 89 82 77 77 81 84 84 83 83 82 81 81 80 80 77 74 69 60 54 50 46 42 39 42 44 46 47 53 60 65
48 50 61 71 75 70 72 75 72 65 54 63 73 81 85 88 93 96 97 97 91 74 83 82 79 80 81 81 83 82 81 79 77 76 75 71 68 66 63 55 49 46 44 41 35 29 26 24 25 27 31 35 42 54
60 63 66 67 77 76 72 70 69 63 56 61 72 80 82 86 90 95 97 97 95 80 65 41 50 76 83 83 79 73 69 68 66 63 59 55 48 40 36 33 31 28 26 24 21 18 17 15 14 13 14 19 26 33
67 66 72 71 73 80 72 67 62 60 60 63 71 79 83 82 85 91 95 95 88 81 80 60 41 33 37 47 50 46 45 46 43 43 39 34 30 26 22 20 18 17 16 15 15 15 15 16 16 17 16 15 17 21
69 68 76 73 76 82 71 65 63 61 65 65 70 75 81 82 83 85 88 85 80 78 80 79 61 42 31 28 23 26 30 30 30 29 28 29 28 25 23 21 20 20 18 17 17 18 18 18 17 17 16 16 16 18
79 74 79 87 83 81 72 67 65 63 61 71 74 69 73 77 81 82 81 77 75 74 75 77 74 63 56 53 50 45 42 40 38 35 33 31 28 26 25 22 21 19 18 17 19 19 19 19 19 20 20 19 18 18
90 92 93 96 88 84 82 67 65 62 58 66 73 71 78 81 82 80 78 77 71 65 70 72 73 71 69 60 54 50 50 49 43 38 35 32 30 27 24 23 22 21 22 23 24 24 23 23 23 22 22 22 21 20
92 96 94 83 80 79 79 70 65 57 59 64 68 71 76 80 81 77 77 71 68 68 69 68 69 66 62 58 58 55 53 49 46 41 37 35 33 32 30 28 25 24 28 29 30 29 28 27 25 25 25 25 25 24
96 91 85 83 82 81 82 72 66 64 62 62 65 75 81 82 78 77 70 65 65 64 63 62 60 61 60 59 59 58 53 49 48 45 42 39 37 36 35 33 29 30 32 32 32 30 28 28 29 29 28 27 27 27
81 77 74 76 78 77 79 76 69 64 61 56 60 70 79 83 78 70 74 75 75 65 64 65 66 65 66 66 65 61 59 57 53 49 44 40 37 35 33 32 33 34 34 33 31 30 28 28 27 27 28 28 29 30
59 58 59 59 61 69 70 67 58 49 49 52 54 54 61 68 73 73 75 75 77 77 72 70 68 66 66 66 62 59 56 51 49 45 40 36 32 31 32 35 35 34 33 31 30 29 28 29 30 32 34 34 35 37
51 53 56 54 54 53 52 56 50 45 44 44 44 45 48 61 71 72 74 78 81 82 78 73 70 69 66 61 55 52 49 46 46 42 36 33 33 33 33 33 33 32 31 30 31 33 35 36 37 38 40 41 42 42
49 54 53 52 48 44 48 54 53 47 40 35 33 38 45 57 65 70 71 75 77 78 79 80 78 73 67 61 56 52 49 49 43 35 33 32 33 33 34 34 34 34 35 37 40 42 42 44 46 48 52 54 55 54
54 53 52 53 51 51 51 54 53 49 43 38 37 40 45 57 60 64 67 72 73 74 75 74 72 67 62 56 51 47 42 35 32 33 32 32 32 34 35 37 40 41 44 46 49 51 57 64 68 70 72 72 71 72
67 61 58 61 65 62 56 54 54 51 47 43 41 45 54 64 66 67 69 73 72 71 73 71 66 57 48 42 38 35 34 33 32 32 32 33 35 37 41 44 47 49 55 64 73 79 82 80 78 77 77 76 77 79

GFSWCAN_prec_cthk_027.txt.gz
RH
60 64 63 64 70 72 76 77 78 82 89 93 93 92 94 96 91 75 65 56 53 51 43 43 43 40 37 49 58 57 62 62 66 70 70 70 70 70 69 68 67 71 76 72 69 72 68 50 61 77 80 79 81 79
66 71 64 71 78 87 85 82 87 88 95 98 97 95 93 98 97 94 77 67 61 63 57 57 56 56 54 44 60 66 64 58 60 64 65 67 67 71 70 68 71 73 63 70 68 66 54 61 65 71 75 79 82 77
60 67 66 76 85 94 89 89 88 95 96 98 98 98 96 96 96 95 90 91 91 86 77 74 64 61 57 57 53 66 70 73 66 65 65 68 68 67 70 66 68 66 65 66 69 66 66 66 66 71 78 78 80 76
56 67 78 74 82 95 93 97 93 96 97 98 98 98 97 97 96 95 93 91 88 81 77 59 49 45 46 45 46 50 72 85 84 73 69 70 68 67 68 65 66 66 69 70 69 69 70 71 72 75 80 78 79 74
54 61 67 72 82 95 94 96 97 97 98 98 98 97 98 95 90 86 84 81 77 71 61 50 48 43 43 42 35 35 46 80 91 94 78 75 68 70 71 69 66 66 68 72 74 70 71 70 70 71 73 77 76 74
46 59 73 81 84 96 96 95 97 97 98 98 98 98 94 79 84 75 71 62 59 56 56 58 47 48 50 51 42 40 39 54 85 98 89 79 70 70 73 69 64 64 65 66 69 71 69 69 70 69 71 70 73 75
37 49 75 85 86 94 96 96 97 97 97 98 98 93 77 82 74 69 66 65 64 63 66 60 62 67 52 46 41 37 39 53 86 98 96 83 76 73 72 68 65 66 64 67 69 71 69 69 72 73 69 68 71 75
34 43 61 90 94 95 98 98 97 97 97 97 97 93 76 79 82 76 75 70 71 70 70 69 75 73 72 57 48 47 44 64 99 98 98 91 83 78 73 66 69 70 68 71 70 66 66 67 67 64 67 69 70 72
27 33 43 64 86 94 95 95 97 97 97 97 97 87 79 87 81 73 72 78 74 74 80 82 86 94 83 91 91 74 80 97 98 97 99 90 83 76 70 72 72 71 73 72 68 65 65 64 61 65 69 70 71 74
25 31 40 48 60 84 91 91 94 97 97 94 94 91 83 74 68 70 77 83 83 88 91 91 90 96 95 95 98 97 98 94 97 98 93 85 81 79 78 76 73 73 71 68 66 62 60 68 69 70 73 74 75 77
26 29 36 40 44 57 80 87 89 91 92 93 92 90 88 70 61 72 84 89 90 92 93 94 93 94 94 99 97 98 97 99 98 99 92 89 79 80 78 76 73 70 67 66 64 67 70 72 74 76 82 84 80 84
23 31 34 38 39 49 58 78 85 83 85 88 90 92 94 85 67 81 88 89 92 95 93 95 97 96 93 95 96 95 97 95 95 93 92 84 78 78 77 77 73 69 68 65 72 79 81 79 80 79 84 87 88 89
25 31 34 38 43 45 50 59 69 79 82 80 79 82 85 84 82 83 90 91 89 93 96 94 97 96 95 93 94 94 91 88 88 88 80 78 79 78 79 80 76 70 76 83 85 84 86 88 91 89 92 93 90 90
25 31 34 37 46 49 49 56 67 73 79 81 75 77 89 90 96 92 85 87 86 87 92 94 96 98 97 97 95 96 96 92 91 89 81 76 75 81 81 79 78 76 78 79 84 85 88 96 98 99 99 99 98 97
35 36 39 39 45 50 56 58 56 64 70 73 79 82 82 86 87 87 86 82 73 74 81 88 95 97 97 98 96 95 92 88 84 78 76 76 75 77 75 77 80 79 79 81 81 80 82 87 91 94 96 97 97 97
44 42 43 45 49 48 55 57 61 59 65 74 81 83 82 86 87 88 85 86 86 72 78 86 93 98 98 97 96 93 93 87 85 83 81 80 78 76 75 78 79 79 77 75 75 75 77 78 80 82 83 84 88 92
52 46 51 54 55 52 53 60 57 57 54 60 69 73 83 84 84 85 89 90 91 88 89 90 91 93 96 96 94 92 90 87 85 85 86 86 82 79 80 77 76 73 72 70 68 66 65 65 64 65 67 70 73 78
49 47 53 61 65 63 63 66 65 59 48 46 50 56 63 70 77 82 86 90 94 95 87 95 93 89 92 91 92 91 90 89 87 86 88 88 88 86 83 79 76 72 68 63 58 55 53 52 50 47 49 52 55 59
56 50 51 64 73 71 71 66 68 64 54 51 52 57 62 66 69 76 83 92 95 96 93 88 92 90 82 81 86 89 88 86 85 85 85 85 87 88 86 82 78 74 63 57 53 49 46 43 39 32 30 32 36 40
66 61 55 57 73 84 81 71 64 62 57 53 47 53 59 67 71 77 82 91 94 95 95 87 74 75 89 88 85 87 87 85 82 79 78 79 77 73 69 67 61 55 52 50 47 44 40 36 30 26 22 20 21 25
74 76 71 69 74 89 85 70 64 59 56 60 50 51 55 64 70 73 74 81 90 90 86 81 81 61 57 83 87 86 84 76 73 75 75 71 66 61 56 48 43 40 37 33 30 28 26 24 21 19 16 15 14 14
76 77 80 83 88 87 84 75 69 58 57 59 55 50 53 59 62 70 75 81 81 81 80 80 81 78 57 45 55 68 69 70 71 70 67 61 54 46 40 36 35 32 28 24 19 17 17 17 17 17 18 18 17 17
84 85 88 87 93 92 81 75 71 64 64 59 59 52 55 60 60 62 73 75 74 76 75 77 80 82 77 55 35 30 35 43 43 42 38 32 26 26 27 28 27 26 24 23 21 21 20 19 20 20 20 19 18 18
96 96 93 91 90 83 74 68 64 65 63 63 65 63 60 56 60 61 66 68 71 75 70 71 77 79 81 74 54 41 32 29 32 36 35 33 32 31 30 29 29 28 26 23 20 19 20 21 21 21 22 22 22 21
99 97 93 86 81 76 70 67 71 74 76 76 64 60 61 62 63 64 70 70 72 70 69 70 70 75 79 77 73 65 58 55 55 55 48 42 39 38 35 32 30 28 26 25 21 21 24 25 25 26 26 26 26 26
97 92 88 80 81 78 72 79 88 85 85 85 70 65 64 65 64 66 69 63 70 71 68 69 72 72 73 74 72 68 63 62 61 57 50 46 44 42 39 35 32 30 31 30 29 30 32 32 32 32 31 31 30 29
94 83 82 83 85 82 82 85 86 87 89 87 75 75 70 62 59 65 66 67 73 76 67 65 66 68 70 69 67 67 66 62 60 58 55 51 49 47 45 43 41 39 36 34 34 35 35 34 34 33 32 30 30 30
77 72 74 82 89 92 94 94 93 89 87 83 80 75 67 59 57 57 58 69 74 78 81 78 73 73 73 70 67 67 68 66 63 60 59 58 56 52 50 44 41 39 36 37 39 39 37 34 32 31 31 30 29 30
79 81 82 86 90 91 88 85 82 76 73 73 69 57 47 40 41 47 55 62 72 75 81 83 81 73 71 72 71 70 69 67 63 60 57 53 51 49 45 41 41 42 42 40 37 35 34 33 32 32 32 31 31 32
71 73 75 73 72 64 57 60 57 58 60 62 58 48 38 32 34 35 39 50 64 69 73 78 81 82 82 79 76 73 69 64 59 54 51 49 50 45 40 40 40 38 36 35 34 34 34 35 35 36 36 36 36 37
65 71 71 63 55 47 47 51 51 50 50 54 53 45 34 29 22 20 24 39 58 64 65 68 73 75 77 78 77 75 70 65 60 55 52 51 44 39 37 37 37 37 36 36 36 36 38 40 41 42 44 47 50 52
67 69 67 61 50 46 48 47 48 49 47 51 53 47 41 35 28 23 22 36 57 62 62 64 69 72 73 74 72 69 65 56 50 47 42 38 37 37 36 36 37 39 41 42 43 44 46 50 57 63 67 69 69 70
82 77 70 66 60 51 47 51 54 52 47 47 47 47 43 37 32 25 30 47 61 61 63 66 70 73 73 70 64 51 45 42 39 38 37 34 33 34 35 37 39 42 45 48 52 60 70 78 82 81 79 76 72 71

GFSWCAN_prec_cthk_030.txt.gz
RH
39 41 46 45 54 58 69 75 77 73 75 80 89 91 93 93 94 96 93 82 66 62 43 38 38 39 36 41 48 50 56 61 67 70 70 67 66 63 63 60 64 64 68 72 69 68 62 47 55 59 62 72 78 81
35 40 46 48 58 65 70 70 77 77 80 83 89 92 93 96 95 92 94 94 91 88 72 60 58 57 55 49 52 59 61 57 60 64 60 61 62 64 63 64 62 64 57 57 57 58 51 52 52 57 66 74 78 79
34 39 46 50 55 62 69 73 83 83 85 88 92 92 94 96 97 96 95 94 94 93 84 83 72 67 65 68 65 63 72 78 77 70 64 65 62 59 61 59 63 63 60 58 60 55 57 60 63 60 62 67 75 79
32 35 40 50 61 67 71 80 84 87 88 90 91 93 95 96 97 96 95 92 92 94 86 74 68 65 62 57 59 58 64 83 88 90 83 71 62 56 57 55 57 59 63 60 58 59 63 64 66 66 67 68 72 76
29 31 35 44 61 74 74 81 87 86 90 92 92 94 96 97 88 79 84 84 86 84 74 68 62 54 53 54 55 49 42 46 74 89 97 88 74 63 61 61 55 57 59 61 60 61 63 65 66 66 68 67 71 76
27 28 31 37 53 73 78 80 83 87 91 92 93 95 96 90 85 83 78 79 79 80 74 65 58 52 44 42 40 44 45 45 53 72 95 99 86 72 64 60 51 55 58 62 63 66 66 66 64 63 65 67 68 68
23 25 28 31 40 53 70 86 89 88 91 93 93 95 96 84 87 90 87 83 83 83 72 62 56 50 52 62 55 45 55 57 53 72 85 98 97 90 75 58 55 57 58 61 63 65 68 67 67 67 66 66 67 68
28 24 26 27 37 43 55 76 83 84 89 93 93 94 95 86 90 87 81 81 78 75 70 73 69 65 70 75 66 45 46 50 60 64 82 97 99 91 81 59 61 61 60 63 64 65 66 64 63 64 63 61 63 66
21 22 22 27 33 37 44 52 68 80 84 87 90 92 93 88 85 80 77 80 78 76 81 83 83 76 83 87 86 79 53 50 56 84 94 98 97 91 71 66 64 62 63 64 68 68 70 67 64 63 60 59 64 66
21 21 22 28 30 36 42 46 52 62 75 78 80 88 94 88 86 79 82 88 88 88 90 90 92 91 92 94 96 97 88 78 83 86 96 97 98 85 77 74 70 68 69 70 70 69 67 67 65 67 67 66 68 68
22 23 25 30 31 35 40 44 46 49 54 68 76 80 89 96 90 79 91 95 95 93 93 93 97 92 93 95 98 98 98 98 98 98 98 96 86 81 80 77 75 73 72 71 70 68 69 69 68 70 71 70 71 77
26 30 30 31 34 35 36 43 47 49 51 59 67 70 76 86 82 88 94 94 96 96 96 96 97 98 93 93 97 98 99 98 98 98 96 89 80 81 79 77 75 73 71 69 69 69 74 74 69 69 72 73 74 79
31 34 34 34 35 37 37 40 45 48 46 46 53 59 70 86 95 96 96 97 97 94 94 95 96 98 96 94 95 96 97 96 96 94 84 79 81 79 77 77 76 74 71 74 80 84 80 78 76 80 85 84 83 89
29 34 37 41 42 41 41 39 43 45 47 46 44 47 71 88 92 92 93 89 87 84 78 81 91 97 98 97 96 97 94 95 93 89 79 76 76 77 77 77 76 77 80 84 84 83 83 87 93 97 98 98 99 99
37 41 42 48 49 46 45 42 43 44 46 49 50 47 55 72 80 84 87 89 88 88 82 76 86 94 98 98 97 96 94 90 86 81 78 77 78 77 77 78 81 81 81 80 80 80 81 86 87 90 91 93 95 97
46 49 50 54 53 53 52 50 46 47 45 46 49 50 45 54 66 76 79 82 87 91 90 88 85 92 95 98 98 95 95 88 84 86 84 82 80 79 75 78 80 78 77 76 76 74 75 77 75 75 77 79 81 83
53 52 53 55 56 54 54 55 53 48 48 45 44 44 44 43 47 55 67 75 82 88 93 95 95 90 90 97 96 93 91 89 87 86 86 88 87 83 79 78 78 80 80 78 75 73 71 69 67 66 64 61 61 65
57 59 65 64 62 60 57 61 60 55 51 48 46 48 50 48 48 52 57 62 73 88 94 97 95 93 94 91 89 93 95 95 92 90 89 91 89 87 85 82 81 80 78 75 70 66 64 61 57 53 50 47 43 41
64 65 68 69 70 72 69 65 63 60 56 51 47 51 54 54 54 52 55 61 70 82 90 93 93 88 81 81 86 86 92 94 92 90 89 88 90 92 91 88 85 81 78 69 62 57 54 51 47 43 39 33 28 28
73 71 72 77 79 81 80 75 69 63 58 52 44 48 54 54 56 54 55 61 71 82 85 85 82 80 82 87 90 92 92 92 93 91 87 83 81 79 78 74 72 69 60 55 52 50 47 43 39 34 29 26 24 22
75 80 82 85 90 93 91 78 73 66 58 53 55 49 48 55 55 47 51 60 65 73 73 71 73 76 79 79 74 68 84 94 93 86 84 82 79 75 69 62 57 50 48 46 44 40 36 33 29 26 23 22 22 20
83 86 91 90 90 94 93 82 79 70 65 59 62 61 53 54 54 52 53 55 55 58 61 65 73 79 83 82 79 64 61 74 77 76 78 79 75 70 61 55 46 43 41 39 36 33 29 25 22 20 19 20 20 19
93 93 93 93 94 95 89 80 85 80 79 71 71 71 58 52 54 59 58 50 49 49 61 69 73 76 79 82 84 80 68 54 55 68 74 71 64 55 47 42 39 37 33 32 31 27 24 23 22 22 22 21 21 21
90 87 86 89 88 93 88 84 84 81 82 80 78 71 62 58 53 56 57 51 47 52 61 67 73 75 74 79 84 83 74 55 40 35 41 41 38 33 30 27 27 28 28 29 29 28 25 23 24 23 22 22 22 22
91 93 92 86 81 87 83 77 78 82 82 78 73 66 65 66 60 59 60 53 50 57 63 69 73 76 80 79 81 85 79 69 56 45 43 42 39 38 37 37 36 36 36 33 30 28 25 24 24 25 25 25 25 26
98 97 93 79 78 81 81 82 84 83 82 81 77 74 79 82 74 66 58 51 56 61 68 68 70 75 75 75 77 82 82 76 71 66 63 60 56 53 50 47 43 40 39 36 33 31 29 29 31 34 35 35 34 33
95 88 82 82 84 86 87 87 87 89 88 89 86 92 95 97 81 65 59 54 57 59 70 79 82 77 76 78 82 79 77 74 73 71 70 67 62 59 57 53 49 48 46 44 42 40 40 40 42 42 39 38 38 37
81 75 74 78 83 86 90 92 93 94 93 92 94 94 93 87 77 73 62 53 49 54 69 76 78 82 86 81 77 78 74 74 74 73 71 68 64 62 62 61 61 58 54 48 42 41 42 43 43 42 41 39 38 38
76 76 81 85 89 91 86 88 92 95 92 88 79 71 69 66 57 47 42 36 34 37 51 63 70 75 80 82 84 79 75 73 72 73 72 70 65 61 57 54 53 49 44 43 44 45 46 45 43 42 40 39 37 35
78 83 88 89 90 88 82 82 78 75 70 65 61 57 56 56 55 45 33 25 22 22 28 41 53 63 72 76 78 78 79 78 76 73 69 67 62 57 52 52 52 48 46 45 45 45 44 42 40 38 38 39 38 37
77 82 84 82 76 70 70 65 59 56 53 51 50 49 46 47 46 42 31 23 20 18 19 29 44 58 64 68 72 73 76 76 76 74 71 67 63 58 54 51 47 44 43 42 40 38 39 40 40 41 42 42 43 43
77 74 71 70 61 59 59 57 55 51 45 42 40 40 41 43 44 40 29 22 20 20 23 29 46 59 63 65 67 70 73 73 73 71 61 50 47 46 44 41 40 39 37 37 38 40 42 43 44 46 49 54 60 65
76 77 76 74 69 63 60 62 56 50 44 41 37 37 37 38 41 36 31 26 22 25 36 49 59 62 65 68 69 70 68 63 53 47 44 43 42 40 37 35 35 36 38 40 42 44 46 51 58 66 70 73 70 68

GFSWCAN_prec_cthk_033.txt.gz
RH
28 29 32 30 32 38 44 50 53 53 64 69 71 79 80 82 86 87 87 89 91 90 65 43 34 34 31 32 41 52 53 56 63 65 65 65 60 62 58 57 59 61 65 64 60 61 57 43 52 55 55 59 67 75
27 29 31 32 35 40 46 53 55 60 68 73 77 83 83 84 88 89 91 86 89 89 89 75 59 49 46 42 46 51 59 59 61 57 54 56 54 58 59 60 55 58 54 57 54 55 48 46 49 53 55 59 64 73
28 31 30 32 37 42 48 55 59 65 74 78 84 86 86 84 88 92 91 90 85 88 86 88 84 72 59 57 64 63 65 76 81 79 74 68 60 52 57 53 59 56 54 55 54 49 50 51 55 53 55 58 64 71
28 30 33 32 35 38 43 52 62 69 74 84 88 88 88 89 92 94 84 80 83 89 93 88 80 79 81 78 75 77 70 73 83 89 92 86 77 62 52 52 53 56 57 55 51 51 55 53 55 59 62 60 60 62
27 31 31 32 36 35 37 42 62 72 79 85 88 88 90 94 89 85 79 83 86 92 89 85 77 69 64 59 54 52 53 53 56 67 85 95 87 86 75 60 49 48 50 55 54 53 53 55 58 59 63 65 63 62
25 30 27 31 37 37 35 39 46 66 78 86 88 91 93 96 86 91 91 89 87 89 87 81 72 65 56 57 54 56 49 48 48 51 58 69 86 97 86 71 51 45 50 54 54 58 60 59 61 62 63 63 63 63
23 25 28 32 36 37 34 35 37 47 65 75 83 89 92 94 89 91 88 83 82 88 84 76 70 61 56 63 62 61 57 50 49 55 51 54 69 92 92 77 70 47 50 53 57 61 64 61 60 61 62 62 61 62
23 25 30 33 37 37 31 32 34 38 45 59 72 77 85 93 89 92 86 81 86 88 82 81 78 71 72 75 77 71 54 53 51 56 52 52 60 94 95 79 76 61 57 57 57 59 59 61 61 60 60 60 60 59
23 25 26 34 34 33 31 28 31 35 36 43 53 65 78 88 89 88 87 86 90 87 85 86 87 83 80 84 85 85 71 68 54 53 52 63 87 97 96 89 77 74 63 60 59 60 60 62 61 60 61 61 62 59
22 25 26 34 33 31 30 30 30 33 35 36 43 57 72 79 92 95 87 94 95 94 92 93 93 89 87 88 87 88 89 87 82 66 76 82 82 84 93 93 86 80 68 63 62 63 63 65 66 68 67 65 65 62
24 28 31 36 34 30 29 31 30 29 32 35 39 46 53 67 75 85 95 97 97 95 94 96 95 92 92 96 95 92 97 96 98 96 85 85 87 88 92 91 89 82 74 71 69 68 70 72 71 70 67 66 67 68
29 33 37 41 38 33 31 31 31 32 32 34 36 36 40 55 75 92 97 97 97 97 95 92 88 90 94 97 97 98 98 98 98 99 98 96 91 89 88 87 86 83 79 76 74 74 74 74 73 71 68 66 65 68
34 35 41 44 42 39 34 33 34 34 33 31 31 36 47 58 71 81 89 92 93 92 89 87 87 87 96 98 98 99 99 97 96 98 90 87 85 85 86 86 84 81 79 76 73 72 77 79 76 74 75 75 75 77
33 40 45 45 45 44 41 40 37 34 33 34 36 36 48 55 50 55 72 84 88 87 89 89 85 86 93 98 99 98 97 97 95 93 85 81 77 81 81 82 80 79 76 76 82 86 84 82 83 84 84 89 90 92
36 46 50 51 53 49 47 47 40 38 35 36 37 41 39 42 47 44 44 58 74 78 87 89 88 86 88 96 99 98 98 95 87 86 86 81 80 80 81 80 79 79 81 81 82 84 85 84 83 82 84 87 90 92
42 52 56 59 56 52 54 53 48 42 40 38 39 41 36 39 47 53 51 48 51 68 78 88 95 94 89 93 98 98 97 95 92 91 91 90 86 80 79 79 80 79 77 76 75 73 73 79 75 74 74 73 72 72
52 53 56 62 62 65 64 65 60 50 44 42 43 40 43 42 44 50 55 53 49 56 67 81 92 97 95 97 94 92 93 95 96 93 90 92 93 90 84 82 80 79 78 79 81 78 74 73 71 69 68 66 64 60
51 52 57 62 67 75 75 69 62 55 52 46 44 45 47 49 49 49 53 59 58 56 67 75 81 91 94 95 89 91 95 97 98 96 93 94 94 92 86 85 84 84 84 84 84 79 73 69 66 62 58 54 49 45
53 53 58 69 80 79 79 76 69 62 57 54 50 47 47 51 52 52 53 55 58 58 60 72 74 80 82 82 83 85 84 84 90 95 95 94 94 93 94 91 89 87 85 82 75 69 65 60 57 54 49 45 40 35
58 58 67 80 85 85 83 78 72 68 62 58 55 54 48 48 52 52 52 53 55 56 57 58 59 65 69 73 77 85 92 94 92 94 98 96 91 88 86 87 86 81 76 67 60 57 55 52 49 45 41 36 32 29
66 78 82 86 90 93 87 80 79 75 69 65 59 58 57 53 50 57 55 55 58 53 51 48 47 58 65 69 73 75 77 80 80 90 93 91 91 90 88 85 79 71 64 55 51 49 48 45 42 39 36 33 29 25
73 83 87 95 96 98 92 86 88 82 79 73 68 65 63 61 61 60 63 59 51 50 50 45 46 54 63 68 72 77 80 81 78 71 80 90 88 88 87 84 76 66 53 45 44 43 41 39 37 35 33 29 26 23
89 92 95 98 99 98 94 84 86 84 89 82 75 75 68 71 67 62 66 57 46 46 51 48 45 48 59 70 72 70 74 82 85 73 62 71 76 82 83 80 70 57 48 43 41 40 38 36 33 31 30 26 24 23
92 94 97 97 95 97 95 92 80 73 74 78 82 81 80 77 69 73 65 52 45 52 54 47 42 49 64 75 80 79 78 83 87 84 73 63 55 62 71 68 55 48 44 41 36 29 27 27 28 27 26 26 25 24
88 90 89 88 86 81 79 75 71 75 77 85 86 82 77 74 74 74 61 50 53 59 58 55 49 56 72 78 78 82 86 89 89 79 69 56 47 43 45 42 38 35 33 31 32 34 33 32 31 28 26 26 27 27
79 76 83 81 76 76 70 78 78 81 83 88 85 81 81 89 86 71 61 68 66 63 63 60 59 66 80 82 82 82 80 87 89 84 71 65 60 51 44 40 38 39 42 43 41 39 38 36 34 30 28 29 30 32
86 82 83 82 83 77 81 84 86 88 89 89 82 84 91 95 82 65 69 71 67 63 65 60 58 68 77 81 87 87 82 80 82 81 79 78 76 73 69 65 62 60 58 55 52 49 48 46 43 41 41 43 43 42
84 86 83 83 89 91 94 92 92 89 86 89 91 95 97 89 79 76 79 82 82 72 58 51 48 53 61 73 74 81 87 86 83 78 76 77 76 75 73 69 67 66 65 63 62 58 53 48 46 45 45 44 44 44
81 75 79 88 95 96 93 89 84 79 79 81 84 88 81 70 61 61 61 62 58 53 44 36 29 32 44 58 64 66 76 84 85 83 81 79 76 76 74 71 68 63 59 55 55 53 47 45 45 46 47 47 47 45
77 82 89 93 93 89 81 86 84 81 78 77 74 67 58 51 49 50 49 50 48 41 31 25 22 21 27 42 51 56 68 75 77 78 78 79 79 77 73 70 65 61 57 54 54 52 48 47 47 46 46 45 43 43
82 89 92 91 84 73 71 68 64 64 64 63 61 57 50 44 39 41 40 39 39 39 30 23 20 20 22 35 45 56 64 68 72 75 77 78 78 77 76 72 65 58 53 50 47 46 46 45 45 45 45 44 43 42
81 80 81 78 70 66 65 61 58 56 53 52 50 48 46 43 40 40 34 33 39 40 30 23 21 23 28 39 55 61 64 65 68 71 74 74 74 69 60 52 47 46 45 45 44 42 42 43 43 43 43 43 44 46
67 65 67 70 67 65 63 70 62 57 53 49 43 40 38 40 39 35 29 30 39 42 36 29 30 33 41 56 63 63 66 68 69 69 66 58 49 46 45 44 43 41 39 39 40 41 43 44 45 47 49 51 57 62

GFSWCAN_prec_cthk_036.txt.gz
RH
23 26 27 25 26 31 36 40 43 46 50 52 59 63 67 75 74 73 77 85 85 85 88 79 57 42 37 33 46 52 53 56 59 63 64 63 63 65 62 59 63 63 66 68 64 64 62 49 50 57 56 58 63 66
23 26 26 26 28 31 35 40 42 47 51 57 59 65 75 74 74 80 80 84 86 84 77 85 82 61 44 41 37 34 49 59 61 63 60 58 59 54 57 64 58 64 56 58 55 54 49 49 49 53 54 58 61 68
24 26 26 25 28 30 32 38 42 47 52 60 65 73 77 75 80 86 87 82 80 80 76 82 89 85 72 53 46 49 48 57 72 77 76 77 69 55 56 53 59 54 54 56 55 51 51 49 52 54 56 57 58 63
23 25 25 25 27 29 32 38 40 44 48 56 65 75 80 79 85 79 83 82 87 89 87 81 86 86 84 80 69 63 70 80 81 79 87 91 88 78 70 61 57 54 54 53 53 52 52 49 50 53 56 57 58 59
22 24 24 23 28 30 30 36 40 41 44 48 55 69 77 79 80 78 85 89 88 91 94 90 90 89 85 84 79 71 60 58 57 56 59 63 76 86 84 81 70 60 49 55 57 54 52 52 52 52 55 58 61 62
21 24 22 23 25 26 29 35 38 40 41 40 43 56 71 79 77 82 91 89 84 88 95 92 87 83 75 71 68 63 65 61 54 51 49 50 51 68 84 75 73 72 65 48 49 55 56 56 58 58 59 60 60 61
23 23 21 22 26 25 27 34 34 34 36 37 40 44 56 72 78 82 87 89 89 88 86 83 85 80 76 75 77 71 67 58 52 52 49 43 38 54 65 77 74 79 74 67 53 54 60 58 59 60 58 57 58 58
24 24 23 25 25 26 26 30 32 33 34 36 35 36 44 66 71 80 87 90 91 91 89 94 92 85 78 81 79 77 75 70 65 65 56 47 48 48 59 58 79 92 84 78 61 57 59 62 62 60 58 57 58 58
25 25 25 24 24 24 25 29 31 32 32 30 30 33 40 46 62 80 91 87 93 91 92 94 93 89 86 87 85 79 76 75 73 77 61 51 51 65 45 52 84 97 91 85 71 64 64 64 62 60 59 58 59 58
24 26 28 26 25 25 27 31 32 32 30 27 30 34 40 39 46 65 87 96 97 96 94 91 93 93 90 89 86 83 82 81 86 78 62 79 77 54 55 82 81 96 92 90 78 68 67 65 64 62 62 60 60 60
28 30 31 30 29 27 29 32 33 32 31 28 30 33 30 37 47 66 85 95 96 96 94 93 90 91 89 93 91 92 91 88 91 95 83 91 93 85 80 83 90 92 96 92 85 75 69 67 67 66 66 64 62 63
32 32 35 36 34 31 33 35 36 34 35 31 26 26 35 43 47 50 58 77 94 96 94 95 91 88 91 97 93 93 95 95 97 98 97 96 99 98 99 97 96 97 95 92 87 79 77 76 72 72 71 70 69 65
36 36 38 40 40 38 41 41 40 38 36 32 29 29 38 40 42 41 47 51 57 74 85 86 88 88 89 96 96 98 96 96 96 98 98 98 91 92 95 93 93 94 94 93 90 86 81 80 78 75 75 73 72 73
38 36 36 40 47 47 47 48 46 44 42 38 34 33 36 40 38 40 41 44 46 46 50 69 84 86 87 90 98 98 95 95 96 98 96 94 88 85 89 90 90 91 92 90 88 84 84 84 82 79 76 72 74 79
41 40 41 45 47 51 56 58 51 51 51 45 41 41 38 35 33 34 34 36 41 47 47 47 61 82 92 93 92 98 98 96 96 96 98 97 95 89 87 86 86 86 87 88 90 93 91 89 84 77 73 76 73 71
41 42 44 48 51 55 57 62 60 61 59 57 50 47 42 38 39 40 41 39 39 41 48 56 58 68 85 98 98 97 98 98 98 98 98 95 97 95 89 87 83 83 82 82 83 83 80 79 77 73 72 73 75 75
45 46 45 47 51 55 60 65 67 68 67 63 54 49 48 45 43 41 42 41 41 38 47 53 66 68 70 86 97 98 99 99 98 95 95 98 98 98 93 89 86 80 79 78 77 80 79 76 74 72 69 67 67 66
40 46 48 47 50 58 68 69 69 69 68 64 59 57 53 50 51 50 47 46 45 46 47 55 57 59 71 72 70 83 85 87 88 90 91 88 97 98 96 88 88 87 88 93 91 92 87 80 74 71 67 63 60 57
45 49 53 54 60 65 67 71 71 72 72 71 67 63 61 59 56 55 55 51 48 50 50 51 55 54 51 54 57 61 72 80 88 94 93 93 94 98 98 98 97 94 95 92 86 79 72 68 65 64 61 57 52 47
52 56 58 61 66 71 71 71 71 74 73 74 70 69 66 64 61 59 59 58 56 57 55 53 47 44 45 44 52 56 64 74 77 79 86 87 92 98 95 94 93 92 85 80 76 68 62 60 57 54 51 48 44 41
60 65 67 74 79 77 76 74 76 78 78 76 72 72 67 65 63 63 63 62 63 59 59 49 43 41 47 47 50 57 64 66 72 75 78 78 83 95 98 94 89 88 85 80 72 63 59 56 52 49 46 44 42 38
62 68 75 85 89 91 83 81 85 85 83 76 74 73 68 66 64 65 67 68 58 51 53 52 50 50 49 50 46 50 55 59 65 69 74 77 79 79 88 90 91 91 89 80 68 58 52 48 44 40 38 38 38 38
80 85 91 92 94 94 88 84 91 91 94 84 80 79 71 65 57 54 60 55 49 55 60 56 59 54 49 50 51 53 59 69 74 70 70 78 80 76 73 79 87 86 87 79 63 56 52 47 42 39 37 34 33 34
89 93 94 93 92 93 92 94 96 95 92 90 87 74 67 61 59 63 58 50 53 58 63 64 59 50 51 56 59 62 66 74 83 81 78 83 88 83 70 68 71 75 77 70 59 55 52 49 45 39 32 28 27 27
98 98 96 95 92 88 89 90 86 84 76 70 72 72 70 64 66 64 56 49 54 59 65 67 64 61 60 62 62 72 82 84 85 91 98 92 84 82 74 65 59 57 53 47 46 49 49 46 40 35 34 33 30 27
79 78 82 80 78 74 72 73 75 73 72 80 81 75 74 79 80 69 59 66 74 71 76 71 68 63 61 58 53 62 77 86 89 88 87 85 77 76 74 69 60 48 41 41 42 43 41 39 39 38 37 35 31 29
76 70 66 67 70 70 76 73 77 84 87 88 81 84 87 89 78 63 66 75 79 78 80 78 74 70 63 56 52 56 60 68 74 86 90 86 86 85 80 73 69 63 52 48 50 53 53 51 50 51 49 44 40 41
70 63 65 71 78 80 89 91 91 92 91 89 88 85 82 72 67 76 77 79 75 68 63 61 58 59 56 49 48 54 52 57 67 71 80 91 88 83 79 78 77 77 76 74 70 67 66 65 64 62 57 51 49 48
78 71 75 81 90 95 93 90 88 83 82 81 77 71 65 61 59 63 71 72 66 58 52 50 45 43 39 32 34 38 44 52 56 61 68 76 84 88 86 83 82 79 77 74 72 68 65 61 58 56 53 48 47 48
73 76 82 85 91 88 79 85 83 82 79 75 73 66 58 54 57 58 54 50 47 43 40 43 44 40 32 28 24 24 35 46 50 52 59 67 74 78 80 81 81 79 77 74 72 71 68 62 57 53 50 48 48 47
76 84 89 89 80 77 83 81 76 76 74 69 65 59 51 48 46 47 45 41 38 40 38 40 41 41 36 27 25 26 33 41 48 59 66 69 73 75 77 80 82 82 80 79 73 64 56 49 47 46 47 47 48 50
81 79 81 79 73 72 71 69 69 70 65 61 56 52 45 42 36 35 36 36 36 32 31 38 44 47 38 29 29 33 43 57 65 67 68 70 70 71 73 75 75 70 59 50 47 46 46 46 46 47 47 47 47 46
82 78 77 74 69 61 56 61 59 61 59 55 48 45 40 39 33 27 29 35 38 36 34 41 48 48 39 34 37 44 50 55 55 58 62 64 63 59 53 49 47 47 47 47 47 47 46 46 45 45 45 46 48 50

GFSWCAN_prec_cthk_039.txt.gz
RH
30 28 29 24 23 27 31 34 37 36 37 38 43 49 55 59 61 67 71 74 74 73 76 82 81 60 48 43 50 57 62 64 64 64 63 61 60 60 63 64 69 67 69 70 69 69 64 51 53 58 58 57 54 52
28 31 24 23 24 27 29 32 35 34 36 37 40 45 54 62 65 68 71 70 71 71 69 77 81 85 62 51 46 40 56 59 62 62 62 63 58 57 59 66 60 67 62 62 58 56 50 53 52 53 56 59 63 63
29 27 26 25 23 25 28 30 32 32 33 35 36 40 53 61 69 69 69 79 84 85 77 79 83 84 85 72 59 53 44 46 55 62 68 73 73 66 62 56 54 52 56 58 57 53 53 52 52 54 55 58 60 64
28 25 25 21 23 25 28 28 29 30 29 34 34 37 48 59 68 67 74 81 82 88 90 87 87 90 89 88 76 68 61 56 57 66 73 85 88 80 81 76 69 59 56 56 55 53 53 52 52 53 54 57 58 60
26 24 22 21 23 26 28 27 26 26 27 32 33 36 42 55 68 69 76 81 85 86 90 91 95 95 89 89 92 88 87 89 79 67 64 60 59 60 59 64 72 75 71 65 56 58 54 52 52 52 52 56 58 60
23 21 21 20 24 26 27 25 25 24 24 28 30 36 38 44 61 74 84 89 87 89 94 93 87 90 88 88 88 81 73 73 70 62 54 46 45 52 55 52 37 44 71 77 69 58 52 55 56 56 59 60 60 60
22 24 21 21 25 26 25 23 22 22 21 24 27 30 33 40 51 69 78 85 87 88 87 91 94 91 87 87 84 87 83 79 71 63 61 54 48 48 48 41 33 49 57 73 77 76 59 54 60 62 61 61 61 59
27 25 22 23 26 26 25 24 23 24 21 21 21 25 34 39 46 61 80 83 87 86 89 95 94 93 89 91 91 87 82 77 74 69 65 58 55 60 53 31 26 46 64 74 84 83 75 66 63 63 61 59 56 56
26 26 24 27 29 27 25 24 23 21 20 19 21 26 32 35 41 48 72 86 88 85 87 87 91 91 86 87 88 86 80 78 72 73 66 56 65 75 58 42 41 52 85 91 94 94 88 74 69 66 64 62 60 59
25 26 27 31 29 28 26 26 23 20 18 18 23 26 32 31 37 40 45 57 80 85 87 89 90 89 85 89 88 85 83 80 78 73 75 76 73 75 70 54 83 79 89 98 97 95 89 78 74 71 68 65 62 60
25 27 32 34 32 33 30 28 25 21 21 21 24 27 30 36 38 41 43 45 47 58 67 76 82 84 83 91 92 89 85 84 83 84 84 88 92 94 93 69 71 83 94 96 98 95 92 85 78 76 72 68 65 61
27 28 39 37 35 37 35 32 29 26 24 25 23 23 30 37 38 38 39 40 43 44 42 47 55 71 81 88 92 94 92 90 89 92 94 94 96 96 97 97 91 87 85 91 98 97 94 92 85 79 76 71 69 67
30 30 40 46 42 42 41 39 36 34 30 30 29 30 35 35 35 32 37 37 37 38 39 39 39 45 68 89 90 98 96 96 93 95 98 97 97 94 94 97 98 96 98 98 97 98 96 95 89 84 78 73 72 70
32 34 39 47 44 44 43 44 43 42 38 37 37 38 38 40 36 36 36 37 36 36 34 37 39 45 52 71 95 96 95 97 96 97 99 98 98 98 92 92 93 95 98 98 99 99 95 94 93 87 78 71 67 62
38 36 44 50 50 51 51 53 51 49 48 48 46 47 46 43 41 39 38 36 36 36 36 38 41 43 56 66 82 98 98 98 98 98 96 97 97 98 95 92 90 91 92 95 96 94 93 94 91 83 72 72 70 66
36 35 43 51 53 51 49 52 50 52 55 58 58 55 51 48 46 45 43 43 43 40 41 44 46 47 57 57 65 87 98 98 96 94 95 94 92 94 97 96 89 83 84 87 88 94 91 83 80 75 71 69 68 68
34 34 37 47 52 56 55 53 53 55 59 62 61 61 59 58 55 51 49 49 52 52 53 48 50 50 46 52 56 58 82 80 80 81 86 92 94 93 97 96 93 82 80 75 80 84 81 83 83 76 70 68 71 68
37 37 40 45 48 48 49 53 57 60 63 62 64 66 70 66 61 59 57 55 54 55 55 58 55 52 53 50 45 40 41 52 66 70 75 84 94 97 97 98 96 97 95 97 98 98 92 88 87 82 75 74 70 67
39 39 42 43 46 47 49 59 63 65 63 63 64 68 70 74 71 69 67 62 62 62 62 62 63 57 52 43 40 35 42 42 47 60 66 73 78 87 92 97 98 98 98 98 96 88 82 77 70 66 64 62 61 57
47 46 48 53 52 52 57 64 65 66 66 68 65 66 68 70 72 71 69 68 68 70 70 69 58 55 53 44 46 46 46 47 45 49 60 68 75 81 84 90 97 98 97 97 89 83 74 69 66 62 60 58 56 53
52 53 53 56 63 64 66 66 70 72 74 72 69 69 69 68 68 64 61 66 70 68 64 56 51 50 48 49 54 54 49 48 45 45 50 57 67 73 80 85 93 98 97 94 90 84 76 65 61 59 58 56 54 51
48 54 60 67 74 78 75 76 77 81 79 76 74 72 69 67 63 64 66 68 64 54 48 41 47 48 47 54 57 59 56 54 54 54 55 58 62 71 71 81 85 88 92 93 93 89 77 64 60 58 56 52 48 43
58 62 70 76 79 79 79 82 88 87 87 80 77 78 73 70 66 64 63 55 44 32 40 48 52 60 65 66 71 74 69 66 66 65 63 67 68 69 74 79 81 81 82 88 91 91 78 65 60 57 56 52 47 41
75 85 82 82 83 87 86 90 91 88 84 86 85 80 76 72 65 61 55 37 30 37 46 51 61 62 64 74 78 78 67 61 61 68 71 76 83 86 79 83 84 80 73 75 80 84 72 62 59 59 57 54 49 47
90 94 93 93 91 93 92 89 88 85 79 80 81 78 73 71 68 60 45 33 46 51 54 61 66 70 78 79 76 70 63 59 54 56 66 81 88 87 80 82 83 83 79 76 71 66 57 52 50 52 53 54 52 48
90 90 93 93 96 89 81 77 73 72 74 78 78 75 71 75 71 57 49 52 57 64 63 68 79 92 92 87 81 78 71 62 57 59 60 66 84 90 86 82 82 79 77 71 58 51 45 44 46 50 53 53 50 47
82 76 76 75 69 65 65 62 64 66 72 75 76 79 84 82 68 55 59 65 73 79 83 84 82 83 80 73 63 54 50 46 47 60 62 58 69 84 91 88 83 78 76 70 63 59 55 49 48 51 52 52 52 50
70 64 62 64 66 67 70 70 71 72 74 78 84 87 80 70 60 61 66 66 73 70 64 67 69 65 54 41 36 36 40 37 38 47 51 54 58 68 82 93 92 87 84 82 81 80 77 72 68 66 66 67 68 66
64 59 63 71 79 83 75 72 75 75 78 84 81 70 64 58 58 63 65 65 63 58 57 56 48 42 34 32 33 36 41 34 32 38 45 53 53 56 65 77 87 90 89 87 86 84 81 78 76 73 70 69 66 61
67 72 79 83 87 77 66 80 74 72 73 67 64 61 55 55 59 57 53 56 56 53 49 42 39 39 41 42 40 43 41 32 28 34 41 50 53 56 61 67 74 79 81 84 85 84 82 80 77 76 76 71 65 59
79 88 92 88 75 68 75 74 69 70 69 68 67 64 54 49 40 44 41 40 41 40 39 36 35 38 41 44 47 42 37 36 35 36 44 54 63 69 73 74 76 78 79 82 83 83 82 80 75 68 60 56 52 50
83 83 81 74 68 70 74 73 69 62 56 53 49 47 43 43 39 31 31 32 32 33 36 34 35 38 42 44 48 43 36 36 43 54 60 59 59 66 73 77 78 78 80 80 75 67 59 54 52 51 50 50 51 52
80 78 76 76 75 73 73 74 63 55 47 43 38 42 45 49 46 37 35 37 40 37 35 33 32 40 41 43 49 44 37 38 43 46 51 51 49 51 50 50 48 46 46 47 49 51 52 53 52 51 49 48 48 48

GFSWCAN_prec_cthk_042.txt.gz
RH
41 36 36 29 32 30 30 31 34 36 35 37 38 37 38 41 42 45 47 49 56 63 65 72 82 73 67 62 68 67 69 68 68 68 68 65 61 58 63 66 70 70 71 72 72 77 68 50 56 61 59 58 56 52
39 40 28 29 29 28 27 28 29 30 33 36 38 37 40 42 42 44 51 55 60 68 71 73 79 82 81 62 53 57 66 65 66 68 67 65 65 57 55 62 60 67 63 66 63 58 51 54 55 55 56 57 60 57
43 32 29 29 28 26 25 25 23 24 24 28 33 32 38 40 43 46 53 60 68 71 74 77 82 83 87 83 63 53 52 59 61 58 64 63 65 66 65 60 55 50 54 56 59 55 53 52 53 54 55 56 60 63
40 27 30 31 26 26 25 20 20 21 23 25 27 27 32 38 42 48 54 61 68 73 81 85 88 92 92 92 88 70 61 59 57 52 53 60 73 77 79 77 76 72 68 58 53 51 55 55 54 54 55 56 57 60
27 29 32 28 27 26 23 19 19 19 21 21 22 24 29 35 41 51 57 65 68 73 79 84 90 90 90 90 91 91 72 69 75 81 80 74 68 62 55 55 48 49 56 71 74 61 56 56 55 54 55 55 58 59
29 36 29 29 26 26 23 20 18 17 17 17 19 23 30 35 43 53 62 68 70 75 79 84 85 90 89 89 89 89 89 88 87 80 78 64 56 57 57 54 41 31 29 44 67 78 73 57 57 55 59 60 60 60
37 28 29 28 27 26 24 20 17 17 15 17 19 22 28 36 39 47 59 66 69 75 76 81 87 85 81 87 90 91 91 91 87 83 77 70 62 61 60 60 37 29 28 39 43 55 76 76 58 51 59 63 65 65
30 27 30 29 27 26 24 20 17 16 16 18 19 20 21 28 36 46 49 57 69 71 71 76 79 82 84 84 90 91 89 88 86 84 79 74 62 58 60 51 41 39 38 31 49 55 66 88 85 65 60 65 66 64
27 30 33 29 29 28 26 22 19 18 17 18 20 22 22 25 28 36 42 45 46 51 60 66 73 79 77 83 88 87 86 84 80 82 79 75 70 73 67 64 55 57 59 50 64 76 69 88 91 84 72 65 64 64
28 38 29 29 31 30 27 25 22 20 19 21 22 22 24 25 28 30 34 38 42 37 36 40 50 64 71 79 86 87 87 84 84 80 79 80 78 77 84 88 73 70 90 93 93 98 91 97 96 94 80 75 69 67
35 32 28 32 31 32 30 28 26 22 21 24 23 24 27 29 30 30 32 36 36 38 34 35 38 41 49 73 81 87 90 89 88 88 89 90 91 93 91 94 93 82 86 81 97 98 98 98 97 94 88 83 78 71
34 27 28 33 32 38 35 32 30 28 25 25 25 29 32 34 31 31 33 33 35 35 34 34 35 35 41 51 74 87 92 93 93 92 95 97 93 96 96 94 91 93 89 92 96 92 94 94 95 96 94 90 84 76
28 25 32 32 34 42 42 39 36 34 34 33 32 34 37 36 32 30 32 32 34 36 35 32 33 35 41 49 59 81 94 96 97 97 98 95 92 97 97 95 92 95 97 92 88 94 95 93 97 96 92 86 81 73
31 30 33 35 38 40 41 42 41 39 39 39 40 40 42 42 40 42 40 39 37 38 36 34 35 38 43 50 54 73 84 97 99 98 96 87 91 95 97 96 94 92 96 98 98 97 98 98 97 94 93 82 76 70
32 34 42 38 39 41 44 47 46 45 45 45 46 52 50 47 46 46 46 43 41 39 39 42 41 42 49 50 50 52 82 98 97 95 87 83 87 88 95 96 94 89 90 96 97 98 98 98 98 95 85 76 73 68
38 44 45 44 46 49 51 49 46 50 51 49 51 54 56 54 50 51 52 50 48 47 45 47 49 50 50 52 51 51 51 57 62 66 64 70 75 83 88 94 97 92 85 84 86 96 97 93 86 78 71 69 68 66
41 46 47 47 47 46 45 42 47 45 46 50 56 55 57 58 60 60 59 57 55 53 55 52 54 55 55 54 54 54 55 48 41 43 46 52 60 68 77 86 93 97 92 90 91 93 96 92 93 93 77 71 70 71
46 42 41 43 45 45 43 43 43 43 49 51 54 55 58 59 60 63 63 65 64 61 59 59 57 61 62 60 55 48 41 38 38 39 38 43 49 58 67 75 89 94 98 98 97 97 97 97 90 82 82 76 69 66
43 43 45 46 49 44 43 43 44 47 50 54 57 58 58 58 58 61 65 72 75 73 71 69 70 65 58 54 53 46 48 48 45 40 39 39 42 45 56 66 79 89 95 98 98 98 92 81 76 76 74 69 65 62
51 51 53 52 50 45 46 48 48 51 52 58 61 62 62 62 60 60 64 70 75 77 75 73 62 55 52 48 52 50 46 44 44 41 43 46 48 46 50 60 70 79 90 97 98 98 95 87 77 71 67 64 62 61
55 57 57 57 57 54 53 54 53 55 60 64 64 63 63 65 65 65 68 73 74 70 65 58 53 50 52 53 47 41 42 48 53 58 57 55 58 55 52 58 67 71 85 92 98 98 94 90 81 70 65 61 60 59
58 59 68 69 63 61 57 56 60 63 67 68 68 72 71 70 67 67 70 72 68 58 51 44 42 42 39 39 45 52 59 72 77 76 73 65 58 60 60 61 64 70 78 87 95 97 96 93 85 70 62 61 60 58
64 66 66 62 58 58 63 68 71 74 78 74 76 76 71 71 69 68 69 63 50 38 38 38 36 37 39 46 57 62 77 80 78 72 66 60 56 59 65 69 67 72 77 84 86 87 93 96 92 77 66 60 58 58
59 58 54 56 64 73 74 78 82 82 81 83 80 78 73 68 67 67 64 48 35 36 38 40 47 48 53 60 67 67 68 76 78 79 75 65 59 59 59 75 74 73 76 84 84 83 83 86 86 76 67 61 57 56
52 58 62 73 79 85 90 88 86 85 84 81 78 73 69 69 67 65 53 34 38 43 47 50 55 60 67 78 85 93 93 88 81 75 71 64 58 60 58 62 83 82 81 82 85 81 76 77 75 65 62 58 52 53
76 84 88 89 92 90 88 87 83 75 72 72 70 66 65 68 70 60 47 42 45 52 59 64 68 73 77 88 89 89 86 79 70 58 52 49 50 53 59 58 76 86 83 86 85 83 75 67 57 49 48 50 53 54
95 93 92 92 92 90 80 71 68 67 67 66 62 66 73 75 61 48 48 51 56 61 64 63 67 71 76 76 72 68 62 55 46 42 42 42 45 48 53 56 62 82 89 82 80 77 69 64 59 57 59 57 51 52
89 89 88 81 77 71 70 69 67 64 61 59 66 71 66 59 48 49 54 62 61 61 59 58 57 58 57 54 50 46 40 38 32 33 38 40 39 41 47 56 61 69 87 92 87 83 81 77 73 72 72 72 68 63
74 64 63 65 67 69 65 63 62 60 60 65 65 59 53 46 48 53 60 65 62 59 54 50 45 49 44 44 42 39 37 34 33 36 41 36 32 34 47 56 59 60 69 87 94 93 92 92 91 89 87 82 78 75
63 63 65 64 67 68 60 68 69 71 68 63 58 53 49 48 50 53 51 52 50 46 42 41 41 41 40 40 39 40 39 38 42 42 37 34 35 38 49 57 55 58 63 67 74 80 83 86 87 88 87 86 83 81
58 63 67 70 68 66 72 76 71 62 59 57 57 57 51 43 33 33 32 32 34 37 38 36 34 34 33 35 39 42 42 46 48 43 41 44 53 62 66 69 72 75 78 79 80 80 80 82 84 85 85 84 80 75
64 69 71 72 70 70 71 69 69 65 58 53 51 49 46 42 35 26 28 36 39 45 44 39 34 33 32 32 35 44 44 46 45 40 41 48 57 58 59 61 64 69 73 77 79 80 81 80 75 69 61 57 56 56
75 77 78 77 78 76 76 79 70 61 52 46 40 38 37 36 32 24 27 33 39 44 45 40 35 31 30 31 35 45 42 45 43 34 35 38 40 45 50 51 51 49 49 49 50 50 49 51 52 53 54 53 52 52

GFSWCAN_prec_cthk_045.txt.gz
RH
70 60 43 34 37 33 30 30 30 28 28 28 30 32 34 34 38 40 39 39 43 52 63 66 71 71 60 68 80 75 78 77 75 72 72 69 67 62 64 70 75 75 77 73 72 77 71 53 56 61 62 56 58 57
77 54 37 36 34 31 28 28 29 27 28 27 27 28 32 33 37 41 43 43 48 54 63 64 66 73 76 64 61 69 74 74 74 72 69 65 68 64 59 63 60 68 68 70 69 63 54 55 58 59 61 61 59 62
70 53 35 34 36 29 28 28 28 26 25 25 25 25 29 33 38 42 43 44 48 56 67 68 69 70 77 80 69 60 62 69 69 64 66 64 64 65 62 58 54 52 56 58 60 51 54 57 56 56 57 60 61 66
67 41 35 38 31 30 30 28 27 24 23 22 21 23 27 32 39 43 44 47 50 57 68 78 80 81 83 85 86 77 63 58 57 56 51 56 60 63 67 74 80 74 71 70 64 59 61 55 58 60 58 57 58 64
55 43 42 36 27 33 29 27 25 22 19 17 18 22 27 31 38 42 45 49 54 59 65 70 77 83 85 85 86 88 81 68 64 60 64 71 65 63 66 65 60 53 51 54 53 65 64 59 60 63 59 58 58 60
47 52 36 30 35 31 28 27 24 19 16 14 15 18 23 29 35 39 46 51 55 61 67 73 75 76 80 85 86 86 88 86 82 77 80 82 79 76 66 64 54 52 47 40 39 37 45 57 65 62 63 62 62 61
49 44 32 33 35 31 28 27 23 18 14 14 14 15 18 25 32 39 42 47 52 56 63 70 78 74 77 81 92 90 90 91 91 91 89 85 79 76 74 67 55 55 52 40 35 33 30 33 46 75 66 62 66 65
48 33 34 39 35 30 28 27 23 18 14 15 15 14 16 21 27 33 36 35 37 39 45 53 63 69 69 76 84 88 87 86 87 90 89 87 82 76 74 70 72 70 62 54 51 49 43 35 39 54 85 74 63 67
40 40 41 38 33 32 29 30 24 18 15 17 17 16 16 19 23 28 29 28 24 27 32 32 38 45 54 68 78 82 84 85 84 88 88 86 85 89 86 86 84 82 74 67 69 66 59 62 57 59 81 90 78 66
43 44 36 34 33 34 35 29 25 21 17 19 20 19 20 21 22 24 25 27 27 27 28 32 35 38 39 45 67 78 86 88 88 87 89 92 91 91 92 91 88 84 82 74 76 80 82 83 82 68 89 95 94 78
45 39 35 37 43 36 33 32 27 25 22 20 21 24 27 28 26 27 28 28 29 29 28 29 31 34 37 45 50 66 82 89 94 95 94 97 94 90 94 93 87 88 88 89 86 89 97 96 98 81 93 95 98 90
37 35 44 47 37 32 37 36 32 28 27 25 23 29 32 31 30 28 32 30 30 30 30 30 30 29 36 45 54 59 78 92 97 98 98 96 83 83 89 90 91 91 93 95 93 94 97 97 98 98 98 98 97 95
37 40 41 38 37 40 38 39 40 35 32 32 31 33 35 34 30 27 31 35 33 33 33 31 31 31 38 45 49 58 70 87 95 98 96 78 73 79 84 85 91 94 92 95 96 95 96 99 97 95 94 94 93 90
32 40 45 39 36 38 38 40 40 40 40 42 40 42 45 41 37 38 39 40 38 38 36 38 38 37 40 47 49 54 52 71 84 90 86 73 65 70 74 76 82 88 92 90 96 97 98 98 97 95 98 91 85 81
41 51 44 35 36 40 38 40 44 44 42 45 45 49 48 47 47 46 47 45 44 43 42 45 43 45 47 50 52 49 54 65 58 52 47 39 40 49 57 63 65 77 87 90 91 94 97 98 97 98 94 82 74 74
50 47 42 41 37 39 41 41 44 44 42 40 42 46 47 47 49 51 51 51 51 51 50 51 49 52 52 56 53 53 55 52 48 46 34 33 30 29 36 47 53 63 77 89 94 90 95 96 98 93 86 81 79 74
45 39 46 42 42 47 44 46 44 39 37 41 42 41 42 45 48 52 54 54 54 54 56 57 55 52 58 58 58 61 62 56 42 40 41 38 35 34 33 33 41 47 64 81 95 97 97 97 97 97 96 87 78 74
43 45 45 43 48 53 50 47 42 40 41 41 41 40 43 44 48 50 52 54 57 56 57 59 59 61 65 63 59 55 58 50 48 46 45 45 45 41 40 36 33 41 52 73 89 97 97 97 97 97 96 88 84 77
44 48 50 50 53 50 47 46 45 46 46 43 44 46 48 50 50 49 51 54 57 59 61 64 63 62 62 60 58 52 50 51 49 47 46 49 49 47 49 49 44 42 45 60 76 95 97 97 96 85 79 84 83 74
45 53 52 56 52 44 45 46 46 46 46 45 45 47 50 53 52 52 53 56 59 62 65 65 58 54 52 49 52 52 53 56 54 53 47 44 53 55 57 57 56 52 49 54 67 85 98 98 98 93 83 73 68 67
60 58 59 63 57 51 50 52 52 51 50 49 50 50 54 55 55 56 58 62 67 66 63 55 50 48 48 48 49 50 46 51 49 53 56 58 64 62 59 61 66 64 57 55 64 74 93 98 98 94 90 77 67 63
64 60 65 64 60 57 59 58 57 58 56 53 52 59 61 60 61 62 64 67 67 62 55 47 43 41 38 36 37 40 41 47 57 69 72 73 75 70 68 64 59 62 66 64 67 74 82 97 98 97 94 80 69 66
60 62 68 66 63 62 66 65 65 60 56 61 68 70 66 67 67 66 66 63 54 42 41 38 34 34 37 40 44 48 53 57 67 73 77 81 86 88 74 66 59 56 59 69 66 75 83 88 95 98 98 93 79 70
69 70 67 67 67 70 67 70 64 60 66 77 79 76 74 70 65 62 60 48 37 36 37 36 37 39 44 49 60 71 71 76 79 83 85 85 82 79 70 60 57 55 53 64 73 70 81 88 88 90 94 93 80 71
63 70 67 68 65 65 66 64 65 74 82 86 84 79 71 66 62 59 48 33 34 36 38 43 46 49 60 71 76 77 81 86 87 84 80 81 73 60 52 50 52 51 52 62 74 75 80 87 89 88 86 82 71 63
67 68 60 60 64 64 68 75 80 84 86 83 76 68 62 62 60 48 39 31 34 39 46 51 57 61 62 68 70 75 78 76 73 62 59 54 49 44 42 43 47 53 50 61 76 82 82 86 86 84 82 71 59 53
64 66 66 65 71 77 81 82 83 79 75 68 64 62 62 62 54 40 35 36 44 48 52 60 64 61 57 56 57 55 55 55 52 47 42 40 41 42 44 44 46 49 52 59 69 86 84 84 82 72 63 55 50 49
69 70 74 81 85 87 87 84 77 69 64 59 60 61 56 50 42 39 43 49 50 53 56 59 58 52 46 48 49 44 43 47 41 39 37 35 36 45 45 43 40 43 53 60 63 82 90 87 83 79 74 72 69 66
81 80 84 89 87 79 71 66 61 56 53 56 58 51 43 37 38 44 50 56 57 50 45 39 34 39 37 41 45 45 43 42 42 37 33 32 40 45 42 39 36 41 54 63 62 63 80 95 96 93 92 92 93 91
83 78 71 68 66 64 56 57 56 57 56 54 50 44 39 37 43 50 47 47 44 33 27 26 24 25 29 32 32 33 38 39 40 41 35 36 44 43 41 43 45 51 60 62 62 64 66 69 76 85 88 90 90 90
66 66 66 65 61 54 53 53 54 55 55 52 53 49 43 42 34 36 38 36 31 25 23 21 23 28 31 33 34 31 30 33 36 43 43 42 40 43 48 59 60 63 66 67 69 75 80 82 84 85 85 86 86 87
64 63 61 60 59 56 56 55 55 52 50 48 49 52 53 54 42 30 29 30 28 26 24 26 27 29 36 40 37 33 30 32 37 45 43 40 36 37 42 51 53 53 55 57 60 65 69 72 76 78 80 78 75 72
60 61 61 61 59 56 58 61 59 55 55 55 52 50 48 47 38 29 30 31 28 26 26 29 34 38 38 38 36 33 31 32 40 45 41 40 37 40 45 47 51 54 56 58 57 55 55 54 55 55 55 54 54 54

GFSWCAN_prec_cthk_048.txt.gz
RH
98 96 78 60 53 37 35 39 35 31 30 28 27 27 27 29 31 31 32 32 35 43 52 54 56 58 63 66 81 81 86 81 84 81 77 72 71 67 67 69 77 79 80 80 77 76 74 59 63 63 61 61 62 59
97 93 85 72 45 37 38 34 31 30 32 28 26 27 28 30 32 32 31 33 36 40 50 51 56 60 67 62 56 76 80 81 84 80 75 70 69 69 63 63 59 67 70 74 77 70 63 64 63 64 64 63 66 64
95 93 83 60 42 38 35 36 30 33 33 28 28 29 29 31 33 33 31 34 37 44 52 56 60 61 66 74 71 62 70 75 73 70 73 70 64 64 66 62 57 57 60 64 64 61 64 62 63 65 63 62 62 65
94 90 79 54 42 38 35 35 37 36 33 30 30 29 29 31 33 34 33 35 38 42 51 57 63 72 73 76 83 81 69 67 68 67 61 61 59 58 62 67 71 69 62 58 53 48 47 50 61 64 62 63 61 62
93 91 73 50 44 41 38 41 33 38 30 29 30 29 28 30 32 33 34 36 39 41 48 54 59 66 77 79 82 85 86 75 69 64 62 61 61 61 61 63 66 62 68 73 71 59 52 47 43 41 57 64 66 64
94 88 66 49 40 39 42 32 42 32 28 28 29 23 25 28 30 31 33 34 38 40 46 59 60 62 69 78 87 87 86 88 84 80 78 74 73 80 78 78 68 66 69 73 67 63 54 39 40 38 48 63 63 68
92 86 58 40 45 43 33 41 37 32 34 27 23 22 23 25 26 29 27 27 28 32 36 47 53 55 59 70 80 84 87 91 91 93 92 88 86 89 89 86 80 79 78 76 66 54 50 48 41 35 34 43 68 70
90 69 47 50 45 38 38 38 37 35 31 26 22 19 22 20 19 15 13 15 19 18 20 26 29 35 35 55 70 77 84 87 90 92 94 93 92 90 88 86 86 81 74 70 65 62 60 54 53 51 45 37 51 72
83 63 58 46 40 40 38 33 39 31 33 27 25 22 20 19 20 20 18 16 13 17 19 22 27 29 26 33 46 63 78 85 86 91 91 94 94 95 90 90 87 82 78 76 73 69 61 62 65 67 62 50 45 71
71 67 54 41 41 38 39 41 30 35 37 30 26 20 19 20 19 20 20 19 20 18 21 25 28 28 29 33 41 51 65 81 90 94 96 96 90 80 81 86 87 87 84 80 73 71 69 70 74 72 72 74 62 78
76 60 46 42 44 48 40 34 36 44 38 31 27 24 26 26 25 24 23 24 25 26 25 26 28 29 32 37 42 45 60 72 90 97 97 94 84 76 80 81 81 85 85 83 83 80 81 81 80 81 79 79 83 98
66 51 43 52 50 41 37 41 46 42 34 33 32 29 29 29 29 27 33 30 30 28 31 31 32 30 34 38 44 45 57 70 82 90 94 88 75 67 69 75 76 75 79 81 83 88 88 89 88 90 84 88 93 97
53 44 54 51 45 37 46 49 43 42 39 41 37 36 34 32 30 26 31 36 35 36 38 35 33 33 38 41 43 45 50 57 60 77 83 74 56 50 50 49 54 65 69 71 78 83 92 92 89 92 95 97 95 97
48 58 51 45 42 54 46 41 48 49 46 46 43 46 44 41 37 37 37 38 38 41 40 42 43 42 43 46 49 48 47 51 64 69 65 50 34 32 33 33 31 31 41 60 69 79 85 94 95 95 94 92 89 85
60 60 46 53 58 45 43 52 50 47 48 46 45 49 50 47 48 47 47 44 44 45 46 48 48 48 49 51 53 47 47 55 59 51 45 40 35 31 31 30 29 29 30 33 49 63 84 89 96 97 96 97 88 86
65 50 58 60 46 48 51 48 50 49 46 43 44 46 45 44 46 47 46 47 47 50 51 52 51 54 51 55 56 55 52 50 48 49 41 37 39 39 36 34 32 33 33 34 34 47 60 89 96 97 97 97 94 95
48 54 56 51 54 47 45 51 48 48 47 42 40 38 39 40 41 43 45 49 51 53 55 54 51 48 54 58 58 56 58 55 51 42 42 43 43 40 39 39 42 45 45 43 41 38 48 75 94 98 98 96 97 94
50 45 57 57 45 41 45 45 47 49 49 44 39 38 40 42 42 44 46 47 51 55 55 56 53 58 61 59 55 53 51 51 47 45 44 45 47 50 50 50 50 50 51 52 47 42 41 63 92 98 97 97 98 96
44 56 60 49 47 47 43 46 48 52 53 48 46 45 44 43 44 45 46 50 55 57 59 61 60 60 55 51 50 47 49 50 48 46 44 48 50 50 52 52 48 44 44 49 49 48 46 50 87 98 98 95 91 90
57 60 51 43 46 44 46 51 52 49 50 48 47 48 48 47 47 48 50 53 57 60 62 62 57 53 51 50 50 49 50 50 50 45 39 37 39 46 48 50 47 50 53 51 60 62 55 54 75 97 98 98 96 86
62 51 45 46 47 48 53 57 53 49 49 49 51 52 51 50 49 53 57 61 63 60 58 53 48 48 49 47 44 42 40 41 40 40 39 36 42 49 65 78 81 81 70 62 54 62 68 64 77 88 98 98 97 84
57 54 53 56 56 54 57 60 58 54 52 54 56 56 53 51 54 58 63 64 61 56 50 45 43 41 38 35 34 34 37 40 46 50 50 50 58 67 78 84 89 93 75 61 58 57 64 73 78 86 95 98 98 92
61 53 51 59 60 59 65 66 63 60 59 62 62 58 57 59 61 63 65 62 54 40 39 37 35 33 32 34 37 41 44 50 56 61 65 71 70 76 80 82 84 77 61 55 57 57 55 68 76 86 92 97 98 98
49 49 60 64 62 63 62 65 65 64 67 66 61 59 64 66 68 69 65 49 36 33 32 32 32 32 36 39 40 45 50 51 53 62 71 69 67 74 80 71 67 56 48 48 55 54 55 66 77 79 91 94 97 98
53 71 69 70 65 62 66 71 73 73 70 64 66 71 74 73 69 64 53 38 32 31 31 31 33 36 38 39 40 41 50 53 48 52 65 70 66 59 51 47 44 45 49 51 55 58 60 67 78 83 90 95 96 96
66 72 68 68 71 71 71 74 74 70 70 75 76 76 72 67 63 52 44 34 32 33 34 34 35 36 39 44 39 40 43 49 46 46 48 52 52 48 44 43 41 45 54 54 57 57 57 65 78 82 88 91 93 94
74 75 71 71 71 71 72 70 70 73 77 77 74 72 69 66 58 43 34 33 34 36 35 36 37 38 36 33 35 37 41 48 47 43 41 44 42 42 40 40 37 48 55 53 52 52 56 62 77 88 86 87 81 78
71 74 74 72 71 68 69 72 77 79 76 71 69 65 59 53 41 33 33 37 37 38 36 34 34 32 27 26 27 26 29 34 39 44 43 42 45 40 38 39 40 49 50 46 45 47 56 64 74 89 90 84 78 73
72 72 71 71 72 74 76 79 79 74 65 59 57 54 47 38 34 37 40 41 42 44 35 28 22 22 20 21 22 23 27 29 31 36 38 37 39 45 41 44 45 49 46 47 50 51 63 64 61 66 89 96 93 90
72 72 74 79 83 82 75 71 65 61 57 54 48 42 39 36 37 42 37 41 48 44 31 24 19 18 18 20 21 24 31 34 34 36 36 33 35 43 43 43 43 45 54 62 66 69 70 73 73 75 74 75 82 90
81 81 82 80 75 68 63 59 56 53 49 44 41 42 39 38 32 32 33 47 42 36 29 25 22 24 25 24 25 26 31 38 40 40 37 33 35 44 44 43 40 45 51 53 58 64 68 70 72 74 79 84 86 87
81 77 74 70 64 57 55 51 48 43 39 39 41 42 44 43 35 29 33 35 31 28 28 30 28 25 26 25 27 30 35 38 39 38 35 36 43 46 44 44 49 53 55 55 59 61 60 59 61 63 65 67 69 72
68 66 63 61 57 52 50 50 49 46 43 42 42 43 45 46 40 33 40 36 34 32 31 31 31 32 34 35 36 36 37 39 36 34 35 39 48 47 42 42 47 50 51 51 52 55 59 62 62 61 61 60 59 58

GFSWCAN_prec_cthk_051.txt.gz
RH
97 93 96 97 92 79 56 43 41 37 34 33 33 36 33 33 28 26 25 27 30 37 44 45 45 47 57 67 73 74 79 82 84 84 85 87 82 76 71 69 74 81 85 86 84 83 80 67 69 75 75 69 67 67
96 93 97 98 94 81 48 39 39 37 33 33 39 41 34 35 32 26 24 26 28 32 42 44 46 51 54 56 62 72 83 83 84 88 85 80 77 73 69 64 63 67 67 74 78 78 72 74 73 73 69 67 66 64
96 95 96 94 88 62 52 42 38 32 33 38 39 34 37 38 33 27 26 27 30 35 43 46 49 53 56 62 60 54 69 79 79 77 84 80 74 71 70 67 67 64 65 66 64 62 64 63 66 65 62 57 57 63
99 92 93 90 74 64 49 39 37 33 36 44 42 37 35 37 34 27 28 30 31 35 44 52 54 58 62 67 70 68 62 62 69 72 73 75 72 66 65 65 69 67 62 59 55 54 50 49 49 50 43 46 58 59
99 96 91 89 84 57 47 37 37 38 44 42 38 34 38 37 33 29 28 29 30 32 40 48 50 52 58 64 69 75 75 69 68 64 68 67 66 64 64 62 63 62 65 72 70 72 76 67 61 56 51 48 45 53
99 94 89 91 72 55 41 39 36 39 42 38 35 36 37 36 31 29 26 28 29 32 39 45 42 43 48 56 64 68 73 75 74 72 76 79 76 78 80 75 71 78 87 86 81 80 77 67 59 58 52 47 40 42
99 96 93 87 67 52 39 38 41 40 42 33 35 34 36 32 32 22 20 20 20 22 27 33 31 30 29 41 53 61 66 73 75 78 80 84 84 87 88 90 91 94 95 93 90 82 74 69 60 60 59 55 51 38
99 94 88 82 61 50 45 40 38 47 35 38 35 35 29 28 19 18 18 16 14 13 13 20 23 27 24 30 39 48 59 68 75 84 89 93 92 95 93 89 91 94 92 91 90 86 79 72 70 66 61 61 57 54
97 94 88 73 60 49 41 41 42 42 38 44 35 32 33 27 21 18 14 13 13 15 13 17 23 24 25 29 37 45 53 63 70 78 82 86 87 84 77 78 83 86 87 84 83 81 80 77 74 71 67 67 63 60
96 95 84 72 56 45 41 42 43 42 45 38 38 36 37 29 23 21 18 17 18 14 16 21 25 26 26 32 37 43 50 58 69 73 80 73 72 64 64 69 74 74 72 72 73 74 77 81 79 78 76 72 69 64
96 95 84 60 49 46 48 39 41 45 43 41 40 41 34 29 25 20 18 21 21 20 22 24 26 28 31 36 40 41 50 56 65 68 75 74 68 56 54 51 51 52 56 59 62 65 70 74 78 80 83 80 79 73
96 91 71 53 50 50 40 46 36 47 38 48 43 40 38 33 25 24 29 27 27 27 32 32 34 32 35 39 45 46 50 54 57 56 61 62 52 44 43 39 36 34 34 35 36 38 46 62 73 81 84 82 85 85
95 81 63 59 55 46 42 34 51 42 46 51 44 44 39 34 32 26 30 32 34 36 39 39 38 39 43 45 49 50 52 59 56 57 57 50 41 31 29 30 29 27 25 25 25 27 28 33 50 68 84 86 89 94
89 72 70 60 46 41 42 53 46 51 52 46 45 49 47 45 40 37 36 37 37 42 43 45 48 48 51 51 54 50 55 60 61 63 60 56 45 36 32 30 29 28 27 27 27 28 29 31 34 46 66 84 93 95
84 76 60 52 44 52 50 50 55 55 54 53 52 54 55 52 52 50 50 49 48 47 47 50 52 53 57 55 58 54 52 59 64 64 61 54 50 43 36 35 34 33 32 33 36 36 34 34 35 37 48 68 87 93
83 71 60 51 58 52 55 60 60 61 54 52 54 56 54 49 49 48 44 43 44 45 46 48 52 56 55 57 57 56 60 59 58 60 50 47 45 43 43 42 40 40 42 43 44 43 42 39 38 39 42 56 74 92
74 65 58 64 56 58 66 61 61 58 54 50 50 47 45 41 42 42 43 44 46 47 50 50 50 50 55 59 60 57 57 54 55 51 47 47 46 47 46 45 45 48 49 47 42 39 43 42 40 39 41 51 69 92
61 62 62 58 63 70 60 59 57 57 56 53 50 45 42 39 39 41 43 45 45 46 48 51 50 55 60 61 56 52 49 48 48 48 48 47 47 46 45 41 41 41 37 38 39 37 36 46 51 45 41 51 72 94
62 62 64 69 66 56 57 57 57 58 60 57 53 48 44 43 43 43 46 47 48 50 53 56 57 57 53 49 47 47 47 46 44 42 41 38 35 34 36 39 41 45 56 62 67 59 56 53 60 61 53 54 78 96
65 70 73 66 55 55 52 52 50 50 57 56 51 48 46 43 45 47 49 50 52 56 57 57 53 48 47 46 48 46 44 40 36 30 26 28 35 40 43 46 54 67 74 85 89 90 70 63 58 67 71 63 82 97
69 73 67 61 59 48 46 52 53 56 57 56 54 49 47 49 50 51 52 56 59 58 55 51 49 48 48 45 41 36 31 32 31 35 34 33 42 52 57 66 74 75 79 81 83 77 67 59 62 60 66 74 89 98
65 63 65 65 55 53 58 59 54 57 57 57 56 53 52 54 55 54 57 58 57 54 51 47 44 41 38 34 31 30 31 33 34 37 45 48 52 59 65 74 74 75 81 75 67 59 54 55 59 58 58 77 91 98
59 61 57 58 52 51 57 56 55 59 64 66 62 59 61 61 60 60 59 58 56 47 43 39 37 35 33 31 29 30 29 31 34 39 44 48 53 61 66 75 74 64 56 56 50 45 50 56 59 58 61 76 89 97
54 61 62 54 50 56 61 65 63 64 67 66 66 66 66 65 64 64 63 56 45 40 36 33 32 31 29 29 30 33 35 35 37 39 45 45 43 45 54 56 58 54 49 47 45 47 56 60 59 59 62 72 87 96
59 66 59 58 56 59 64 67 68 65 68 66 64 66 67 68 68 67 64 51 40 36 34 32 32 31 28 28 30 34 42 43 40 33 37 45 42 38 39 41 40 42 40 42 42 46 57 60 62 60 62 72 87 96
56 56 55 58 59 54 58 62 67 70 68 69 70 72 72 71 70 65 58 45 38 34 33 32 30 29 27 28 27 28 29 32 31 27 28 35 41 40 39 39 35 35 39 43 45 53 57 60 57 58 62 78 87 92
64 66 67 65 61 57 63 72 75 73 74 74 73 73 72 71 68 58 47 39 35 33 31 31 30 30 27 26 25 24 24 23 21 20 20 25 33 41 43 41 42 40 43 45 52 56 53 52 52 56 63 80 90 88
63 63 63 63 63 65 71 72 67 68 69 67 68 71 70 65 58 47 41 40 35 33 33 32 31 32 28 25 23 20 18 18 19 21 22 24 28 35 39 38 38 37 44 43 48 51 52 56 52 60 69 71 88 91
64 66 67 75 75 71 67 69 68 64 64 66 70 69 63 55 46 43 43 40 38 38 35 28 27 31 27 22 21 21 22 23 24 23 22 23 26 31 36 37 37 39 41 42 43 48 59 64 66 68 69 69 66 82
76 75 78 80 79 77 71 69 69 68 68 66 63 56 49 44 42 42 41 41 40 35 33 31 30 29 24 22 20 21 28 29 28 27 26 27 36 38 37 36 39 41 39 43 47 51 56 61 68 72 74 75 76 81
84 82 80 78 74 72 72 72 71 70 66 59 52 48 41 39 32 32 34 33 32 32 30 27 26 28 27 27 28 28 26 29 31 34 33 34 38 39 37 37 44 45 42 44 53 61 61 63 67 67 68 71 75 77
80 78 79 80 78 76 74 70 63 58 53 48 44 40 37 36 32 28 28 32 31 31 32 31 29 28 30 34 36 36 33 37 42 41 39 39 38 37 36 39 48 46 42 44 50 52 53 52 53 56 60 62 63 62
82 82 80 77 73 67 61 58 56 52 47 41 38 37 37 37 35 31 30 31 32 31 33 33 35 37 38 38 37 38 44 49 47 46 45 42 39 38 37 45 48 46 46 48 52 53 54 55 56 57 61 64 64 63

GFSWCAN_prec_cthk_054.txt.gz
RH
98 84 84 93 99 98 96 85 60 47 44 35 35 35 38 33 30 28 27 25 24 31 38 38 42 48 54 61 67 67 74 75 76 76 74 74 74 76 74 71 71 71 76 79 80 77 74 69 71 71 72 69 66 65
97 83 87 93 99 98 93 81 55 44 39 36 37 39 42 35 34 26 26 27 24 25 37 38 38 38 41 50 62 69 73 76 83 82 79 81 79 75 68 64 65 69 66 67 69 76 76 76 76 74 70 67 64 61
94 81 99 96 97 96 91 83 51 44 37 35 41 42 40 43 37 30 28 27 23 29 36 40 42 44 47 48 45 55 69 74 76 85 91 85 79 75 69 67 67 66 64 66 59 61 61 62 66 69 67 66 61 57
94 91 99 96 98 95 87 64 49 36 35 38 43 46 43 37 33 31 29 29 29 30 38 46 44 44 48 52 55 53 57 61 64 71 76 79 76 76 73 68 64 61 56 57 54 53 55 62 64 63 59 55 51 47
86 95 97 99 97 93 82 53 46 39 33 42 48 43 35 42 37 34 32 32 28 27 33 39 38 41 48 50 52 53 57 63 64 63 65 69 69 66 63 61 60 59 63 66 65 68 72 75 74 73 65 62 60 57
88 91 98 99 96 90 69 57 43 36 40 46 41 40 41 41 36 34 37 28 26 26 25 29 27 31 37 43 46 48 52 56 61 65 67 67 70 76 72 71 76 77 80 81 79 79 79 77 77 76 70 66 61 58
98 97 98 98 93 83 68 50 41 40 44 43 42 40 44 37 32 37 24 22 26 23 21 28 27 24 30 36 39 42 50 54 57 62 67 69 70 72 75 73 78 86 90 89 84 81 80 82 80 78 73 70 66 59
89 97 98 95 89 83 59 47 40 47 45 42 39 37 41 34 38 28 21 19 19 13 11 20 24 26 28 32 37 40 45 51 56 61 67 71 77 83 80 78 81 84 79 81 81 79 76 75 77 77 75 73 69 64
93 98 98 93 91 75 53 47 48 44 46 41 35 36 38 37 30 25 23 16 14 12 12 16 21 25 26 32 37 41 43 47 48 53 57 64 67 69 67 63 64 65 70 71 69 66 65 67 68 69 71 75 73 69
97 97 98 95 86 62 55 49 44 46 46 38 31 35 34 38 26 24 22 17 15 13 14 21 25 24 28 34 35 38 42 45 50 51 55 57 55 52 50 53 56 58 49 45 46 45 43 41 44 50 60 68 70 74
97 98 96 94 81 64 52 49 46 48 50 35 37 35 38 42 31 25 20 20 19 20 22 25 27 28 32 36 37 40 43 46 50 54 57 55 48 39 39 40 34 34 34 32 32 32 33 34 34 37 39 46 58 72
98 96 96 92 73 56 56 43 45 50 39 39 37 36 43 40 29 28 31 26 23 26 31 32 35 34 39 40 42 46 48 50 55 59 61 56 46 35 31 29 31 29 28 27 28 27 27 28 30 31 33 37 45 54
95 96 96 84 67 61 45 44 49 44 39 42 33 40 45 40 37 33 31 31 32 32 34 35 39 42 46 47 50 51 55 57 60 60 56 55 45 38 36 32 32 31 30 30 32 34 35 35 35 36 36 36 40 45
97 97 93 77 68 52 41 47 50 40 37 39 42 51 49 47 44 37 32 34 35 37 38 41 47 50 53 52 56 58 59 65 66 62 60 54 46 45 47 46 44 43 40 38 39 39 39 40 40 41 41 42 41 44
98 97 91 74 57 45 52 50 42 40 40 42 46 54 55 56 51 46 45 47 47 46 45 46 46 47 52 52 56 57 59 62 61 63 61 56 54 53 54 55 51 43 41 40 41 42 43 42 42 41 43 43 45 46
98 97 82 64 49 53 50 51 46 45 50 52 56 64 64 60 58 54 50 47 42 41 41 41 45 48 50 51 56 59 61 60 60 61 54 53 52 48 45 45 44 42 41 41 42 39 35 33 32 33 39 47 47 49
96 87 75 59 59 58 54 47 52 57 57 59 65 58 53 44 43 45 45 44 41 41 43 43 43 44 49 53 56 55 56 56 54 55 56 51 44 43 40 37 33 31 30 34 34 39 47 53 49 46 44 50 54 51
90 78 68 64 61 57 50 57 60 59 65 65 59 51 47 45 43 45 45 44 43 44 44 45 45 50 51 51 49 47 50 49 50 48 46 42 37 31 28 27 29 33 35 40 49 58 69 80 84 73 67 61 62 65
78 77 73 61 51 50 57 62 65 70 71 61 55 51 47 44 46 46 45 45 45 46 45 48 50 49 46 45 44 45 47 47 44 40 32 26 25 26 29 34 40 43 49 56 64 74 81 81 82 74 64 67 66 73
81 70 61 54 55 60 62 65 65 66 64 60 58 52 47 46 46 45 47 47 48 49 50 51 47 44 43 43 45 45 43 39 32 27 25 26 28 32 36 41 49 58 63 69 76 82 79 73 69 64 61 65 68 66
72 67 61 62 62 66 65 66 66 66 64 61 59 52 50 49 49 50 50 50 52 51 49 46 44 44 45 46 42 39 34 31 30 27 26 26 28 33 37 45 55 62 69 69 63 65 63 58 56 56 59 62 64 68
70 66 66 68 69 67 66 68 65 62 62 64 58 53 53 53 52 52 52 54 54 46 46 44 44 43 41 38 35 33 32 31 29 28 30 30 29 30 32 38 46 49 58 66 64 57 53 50 47 48 56 63 64 67
71 70 71 70 66 66 70 65 60 58 57 61 60 58 59 60 57 55 54 53 50 45 45 44 40 39 37 35 32 31 32 30 30 32 32 33 33 34 35 35 39 41 40 47 51 48 46 47 45 50 58 63 65 65
74 72 71 69 66 72 65 63 63 64 65 64 62 63 64 61 59 58 55 53 49 46 45 40 38 36 35 34 32 28 28 30 30 29 32 32 26 23 25 28 36 39 41 40 40 40 42 45 51 59 62 63 62 61
71 74 72 79 74 67 66 66 64 60 63 66 66 65 63 63 61 60 58 52 48 44 40 38 36 35 35 33 30 28 29 28 26 22 22 23 22 18 18 22 28 39 44 44 44 41 44 47 57 63 64 62 59 61
72 73 72 69 70 66 64 59 58 60 63 68 67 64 65 65 65 62 56 48 44 41 39 37 36 36 33 32 29 27 28 28 24 21 18 21 22 25 23 21 21 29 39 40 38 39 44 49 59 60 57 57 62 69
67 69 70 67 66 62 58 56 57 59 61 60 61 67 71 71 67 57 50 46 44 42 39 38 37 35 33 30 28 29 27 23 21 20 19 21 24 27 27 25 24 27 30 37 37 41 43 48 53 61 61 54 61 79
61 61 63 65 64 63 64 64 63 61 59 60 64 70 69 66 60 53 50 47 44 41 39 37 36 35 33 30 29 28 26 24 22 21 22 25 29 29 28 28 27 31 33 36 38 42 45 49 52 63 68 65 68 72
62 62 59 65 64 63 66 69 67 62 60 62 66 69 68 65 60 54 48 44 42 39 36 34 35 35 31 31 31 31 30 28 26 24 25 26 25 30 38 38 34 36 39 40 42 44 46 52 56 61 67 73 79 79
67 66 66 70 71 72 67 60 61 65 68 70 69 67 65 61 54 47 42 39 36 32 31 32 32 29 28 27 27 28 31 32 34 34 33 30 33 38 40 38 37 40 41 40 43 43 43 52 62 65 67 72 74 75
77 76 75 73 69 67 68 72 75 74 71 69 66 63 56 50 42 38 34 30 28 28 30 29 30 30 28 29 30 29 29 33 34 35 35 36 39 44 41 39 40 41 41 43 45 44 43 47 54 57 57 59 62 65
82 75 72 76 82 83 81 78 74 70 67 62 55 50 48 45 40 32 29 29 29 29 30 30 30 31 32 33 35 37 37 37 39 40 43 47 48 48 44 42 41 41 41 47 49 47 47 50 53 54 55 56 56 56
85 85 84 82 81 79 78 74 71 67 60 55 52 48 44 41 37 33 31 30 31 31 32 32 32 34 36 39 42 44 46 49 55 59 59 56 52 50 46 43 41 43 46 53 54 54 56 59 59 60 61 63 63 64

GFSWCAN_prec_cthk_057.txt.gz
RH
83 94 97 96 96 87 99 99 98 92 73 56 51 33 35 34 31 31 27 26 26 33 41 43 44 46 52 53 56 57 62 67 70 74 76 75 73 71 72 71 71 72 74 74 74 81 76 68 70 70 70 66 64 62
85 94 95 97 93 88 99 99 94 86 70 56 43 34 37 37 34 36 30 32 24 30 37 38 38 41 44 49 52 56 61 64 72 77 70 75 72 74 69 67 63 62 55 59 58 62 62 64 67 68 67 66 61 56
86 93 98 98 99 99 99 98 93 75 59 54 39 37 39 38 38 41 33 32 27 30 34 34 35 33 35 38 45 53 59 61 67 75 78 79 75 73 66 63 64 61 59 60 54 56 56 54 54 53 52 58 60 59
82 97 98 98 98 95 98 96 88 59 50 49 44 41 42 40 42 33 29 30 29 29 34 39 38 38 38 38 36 37 48 59 62 67 69 78 77 75 73 71 67 66 60 59 56 54 54 54 59 63 63 62 61 57
91 98 99 96 98 97 98 94 83 56 50 46 44 45 44 42 38 32 32 35 31 30 32 40 40 41 40 39 40 38 40 47 51 58 62 68 71 71 68 65 63 60 60 62 62 69 70 69 70 70 71 70 69 67
97 98 98 99 99 98 96 95 78 57 43 45 56 49 42 38 38 36 36 33 32 21 22 30 34 39 37 38 40 38 37 42 45 50 53 57 58 61 62 63 67 71 77 83 84 86 84 79 79 82 80 77 76 74
96 98 96 96 98 98 97 85 67 51 49 48 54 46 40 40 39 34 36 30 28 16 16 27 27 28 33 34 36 37 38 41 45 45 49 50 55 58 64 64 64 70 81 84 87 85 77 74 76 75 77 76 76 79
96 96 97 98 96 96 98 74 60 49 45 50 47 44 42 43 38 33 35 32 22 14 13 24 28 27 30 33 33 36 39 41 44 47 49 52 53 59 61 60 65 68 70 70 69 68 69 66 59 54 58 60 63 68
97 98 98 99 95 98 84 75 57 47 50 48 49 45 43 42 32 34 34 28 16 12 16 19 27 27 28 33 38 38 38 41 42 44 47 51 52 54 50 49 48 50 49 53 51 46 44 42 40 40 39 40 44 49
98 97 98 98 97 95 83 65 58 46 53 55 44 40 42 38 34 31 22 17 17 14 14 21 24 28 31 34 36 39 43 44 47 44 47 47 45 43 39 39 40 39 35 32 35 36 34 33 33 31 30 30 32 34
97 98 98 98 98 97 80 60 46 54 54 50 44 36 37 38 35 26 24 27 24 24 21 23 26 29 33 39 39 42 46 48 54 54 51 50 43 38 36 33 32 31 30 30 31 29 30 31 32 34 33 33 32 32
97 97 96 98 98 89 65 48 54 51 52 42 28 31 38 39 41 34 32 30 31 29 27 29 29 33 37 41 43 50 54 56 59 61 62 60 54 43 33 30 33 34 33 31 32 33 34 37 39 38 36 35 35 35
98 97 97 98 96 73 60 58 49 50 39 33 33 33 36 39 47 44 36 38 37 30 30 31 33 37 43 48 51 53 57 55 60 62 60 60 54 44 38 36 37 40 42 41 42 42 43 44 41 38 36 37 37 38
96 96 98 98 87 68 62 53 51 43 40 38 32 37 44 41 42 42 42 40 36 35 35 37 43 52 49 49 51 54 52 57 59 60 60 57 51 48 48 49 51 55 55 52 48 42 39 38 34 32 33 32 32 33
96 98 98 93 80 67 58 56 46 42 40 33 37 45 45 50 51 55 54 46 42 43 45 48 44 44 47 48 46 50 52 54 53 53 57 54 51 51 52 51 51 46 42 38 34 31 31 30 29 34 39 42 38 35
99 99 98 89 74 65 62 50 47 47 42 37 43 49 50 54 61 61 58 52 48 47 43 42 43 44 47 46 48 52 52 50 49 52 51 48 50 51 47 44 39 36 30 27 27 30 31 32 42 46 52 64 73 64
98 96 94 81 71 68 56 51 50 47 42 44 50 51 57 63 68 61 52 47 45 47 44 42 41 44 45 47 48 46 47 47 46 45 43 44 43 42 38 32 27 25 26 31 33 35 41 49 55 66 65 73 77 69
98 96 83 78 72 64 57 49 51 49 51 49 57 60 61 58 51 47 46 47 48 45 43 43 41 44 44 44 43 42 43 43 41 42 41 40 37 31 28 27 27 29 31 34 38 45 52 60 68 72 75 72 67 62
97 90 86 75 66 56 50 53 52 54 60 64 67 66 57 50 51 49 49 50 48 45 41 42 42 43 39 38 40 41 42 41 42 41 35 31 30 28 26 26 27 30 33 37 43 49 59 63 69 66 61 59 56 54
95 89 80 69 60 49 54 57 58 59 71 72 67 62 54 51 50 51 50 48 48 44 44 43 40 38 37 38 39 41 41 39 35 33 31 29 27 25 26 26 26 28 29 31 37 47 63 63 62 58 55 51 49 48
93 81 72 62 55 56 62 66 70 75 73 70 62 57 55 53 52 51 49 48 48 47 46 41 38 37 38 39 40 39 37 33 30 29 29 27 28 28 26 28 28 27 27 30 34 37 44 51 53 51 48 47 45 46
84 75 63 59 60 65 69 74 76 74 74 69 60 59 58 55 54 53 52 51 52 46 41 39 39 39 39 39 38 35 33 30 29 28 29 29 28 27 26 25 23 19 21 27 33 37 40 42 43 44 48 48 51 55
77 67 64 65 67 71 78 78 75 76 73 67 65 62 60 56 54 53 54 53 48 42 40 41 41 40 37 36 35 32 31 31 29 28 29 29 25 22 20 19 19 19 19 21 29 35 41 43 41 42 47 55 61 64
71 71 69 75 78 81 81 79 76 73 72 70 67 64 62 60 59 58 54 51 45 42 43 42 39 35 34 33 32 32 33 32 30 27 27 25 21 19 19 18 20 24 25 24 24 27 38 42 37 38 47 60 66 67
76 85 82 84 81 76 78 79 76 71 69 67 63 61 62 64 61 60 56 50 47 45 43 39 35 33 33 32 33 33 33 32 29 26 25 25 23 19 17 19 22 25 27 25 24 25 29 39 38 40 47 59 64 62
88 87 83 79 75 72 72 73 71 68 66 66 66 67 65 62 62 57 52 49 45 41 38 36 34 33 33 35 35 34 32 32 30 27 24 25 24 23 22 22 24 25 27 28 31 28 28 32 38 43 52 58 68 69
82 80 79 77 72 70 71 70 67 66 68 66 62 61 61 61 58 53 48 45 43 41 40 38 35 34 36 38 36 33 33 31 29 27 26 25 27 28 29 31 31 30 30 38 39 34 31 34 42 46 58 60 68 72
81 75 76 75 75 74 74 74 73 68 61 55 54 56 57 56 55 51 48 46 43 42 41 37 36 38 37 35 34 34 32 30 27 26 26 28 33 35 36 37 35 33 37 43 40 38 39 42 46 48 58 63 71 76
77 75 72 77 76 74 72 70 64 59 55 56 60 65 65 59 55 53 50 47 45 42 39 39 38 35 33 32 32 30 28 26 26 27 29 32 34 35 36 37 37 38 42 43 41 42 44 46 48 47 50 66 72 75
72 71 71 70 69 71 72 68 66 65 64 65 65 61 59 58 56 52 47 43 39 38 37 34 33 31 30 28 26 28 30 31 35 39 38 36 37 39 41 42 46 47 47 43 43 46 45 46 50 48 48 54 63 68
73 70 68 70 72 72 69 68 68 71 73 69 63 62 59 55 47 42 38 37 36 34 32 31 28 27 28 29 29 27 27 30 34 40 46 49 53 54 55 56 55 53 51 46 46 47 46 46 50 50 51 53 56 59
75 73 73 76 80 79 79 80 78 72 69 68 66 61 56 51 45 40 38 37 35 31 28 28 28 29 29 28 28 30 34 38 46 56 65 67 67 64 63 62 61 58 53 47 47 49 49 52 56 56 57 61 61 60
85 83 83 84 84 83 80 77 75 74 71 67 63 58 53 48 46 40 38 33 30 27 27 26 27 27 27 28 33 39 51 62 66 67 63 63 67 66 64 60 58 55 52 51 54 57 60 64 66 66 67 68 68 66

GFSWCAN_prec_cthk_060.txt.gz
RH
41 39 53 70 93 97 98 99 99 99 97 94 87 57 32 28 27 29 30 33 32 33 41 40 40 45 48 47 50 49 55 57 61 68 70 70 68 64 67 69 69 73 74 75 74 81 80 71 74 75 75 73 73 71
40 40 53 76 94 98 93 91 98 99 97 93 86 66 34 32 32 34 35 33 33 33 42 40 41 45 47 48 49 48 52 55 60 67 66 69 67 67 66 73 67 71 67 72 67 70 64 62 58 64 65 69 71 66
46 45 57 80 95 98 98 95 97 98 94 88 81 63 39 38 35 34 33 34 37 38 39 40 41 43 44 46 48 49 48 50 55 59 63 68 70 73 70 67 68 64 59 60 56 61 59 61 61 60 61 59 60 61
50 51 60 84 97 99 99 99 98 97 95 85 80 52 41 41 39 39 37 34 36 35 35 39 38 36 36 38 42 46 49 49 52 54 57 62 67 67 71 72 68 67 63 60 62 62 62 63 64 67 68 67 68 69
46 52 65 94 98 98 92 98 98 97 94 86 69 48 44 41 43 41 35 33 34 32 37 40 39 38 37 34 31 35 41 44 45 47 54 56 55 60 61 61 60 61 62 65 71 73 75 75 74 73 73 72 72 70
45 52 74 93 97 94 94 97 97 94 82 67 57 51 45 45 43 39 36 33 33 33 32 44 42 41 40 39 36 34 35 35 36 38 40 40 42 47 47 50 49 53 56 63 71 79 81 81 76 73 72 70 69 71
44 63 92 96 95 97 98 98 96 83 63 69 58 51 47 46 41 39 36 32 32 26 24 31 34 38 37 37 37 37 35 34 35 35 38 38 38 38 45 47 45 46 54 58 65 70 71 69 68 67 60 54 51 51
54 89 96 97 98 98 98 98 96 73 65 55 70 58 46 46 42 37 33 30 21 17 20 26 30 31 33 35 37 37 37 37 37 38 38 40 42 43 48 44 45 47 49 50 53 51 52 51 45 41 38 37 35 34
68 90 97 97 98 98 97 97 90 63 57 73 60 46 49 49 42 36 32 24 17 15 18 24 30 32 30 35 38 39 40 42 38 41 41 43 47 50 45 45 43 46 42 37 36 34 30 29 29 31 32 31 31 29
78 91 96 97 98 98 98 97 75 67 72 66 57 55 56 50 42 35 31 21 17 16 16 25 25 30 33 36 38 40 42 45 46 48 46 49 48 45 46 46 46 38 35 35 33 28 30 30 31 27 29 31 34 35
80 94 96 97 98 97 98 86 67 62 68 61 54 55 53 46 37 30 25 25 23 24 23 25 26 29 34 37 39 41 45 48 51 57 53 54 56 51 51 46 41 41 39 37 35 36 37 36 39 38 39 40 37 35
91 95 96 97 98 97 92 72 63 67 67 53 49 42 39 39 30 31 35 30 30 29 28 30 32 31 35 37 40 46 51 53 54 58 57 56 57 54 51 43 42 40 40 40 41 42 41 42 46 48 43 37 32 29
95 95 97 98 97 98 86 67 59 63 63 57 38 32 30 36 42 43 42 43 37 33 34 34 36 35 37 43 47 48 54 55 54 57 54 55 51 47 43 40 41 42 45 48 50 50 48 41 39 38 30 28 32 31
96 97 98 98 97 95 73 65 61 67 57 41 32 31 32 37 47 56 55 44 38 36 37 37 38 42 47 49 48 51 50 50 50 55 53 51 45 44 43 47 47 50 50 46 41 38 34 28 26 24 23 31 33 34
98 98 98 98 97 85 67 64 67 57 50 37 29 31 37 46 52 54 48 47 44 41 40 43 44 47 49 48 46 47 51 52 51 50 51 45 41 41 44 46 43 39 36 31 28 27 27 27 27 27 32 40 47 53
98 99 98 98 96 71 66 65 59 50 40 30 34 40 45 50 59 56 53 54 53 54 46 43 48 49 49 47 46 48 50 49 45 45 45 41 40 41 40 37 33 29 28 29 29 30 29 31 33 36 40 51 60 64
97 96 96 97 75 70 70 66 51 41 37 38 42 43 49 51 57 57 62 59 54 50 51 48 47 50 48 48 46 43 44 41 40 39 37 36 36 35 33 29 28 27 27 28 29 29 31 34 40 47 52 48 56 60
97 97 98 85 75 78 71 57 44 39 47 51 52 53 56 60 60 62 61 52 47 46 47 48 45 48 48 46 44 38 36 38 36 35 36 35 32 28 27 26 26 26 25 24 23 23 23 26 29 33 49 53 55 54
96 97 94 81 80 71 61 51 41 47 57 60 60 59 60 62 60 52 46 46 47 48 47 49 48 46 43 36 36 35 35 36 35 36 34 28 26 25 25 26 26 25 23 21 18 18 20 25 29 33 41 51 51 50
98 99 86 82 71 61 57 49 47 50 63 66 65 60 59 60 59 49 49 50 50 50 49 49 45 40 37 35 33 33 34 35 35 32 27 26 25 24 27 27 26 23 19 16 14 16 18 20 26 36 41 44 45 48
97 95 86 76 70 60 56 50 56 64 62 65 69 66 68 64 56 53 51 49 48 47 47 42 39 38 37 36 35 35 35 34 31 27 27 26 26 27 27 26 23 19 16 16 16 17 20 20 21 29 40 41 41 43
94 90 82 76 67 59 57 55 61 68 69 71 71 69 67 61 56 53 50 49 50 47 43 41 38 38 37 37 37 35 33 30 28 27 27 28 28 27 26 23 20 17 16 16 20 22 22 23 22 23 29 39 38 42
90 84 77 69 65 66 68 66 72 78 78 77 72 70 61 55 55 52 51 50 51 48 43 42 42 39 38 38 34 31 31 29 28 28 27 28 27 26 25 22 21 19 17 17 24 26 26 26 26 28 27 35 39 45
84 79 74 72 72 78 75 78 78 80 80 79 74 71 62 59 58 56 54 52 51 46 45 44 41 40 39 34 30 30 30 30 31 30 29 30 27 26 26 22 21 21 22 23 26 30 31 29 30 34 30 33 42 49
84 83 79 82 83 81 82 82 83 83 82 80 74 69 65 64 64 61 55 51 49 47 44 40 40 38 34 32 31 31 32 32 33 31 30 32 30 28 26 24 22 24 27 30 33 35 34 31 34 36 31 34 44 54
93 92 86 82 82 80 81 82 83 82 80 78 75 70 70 70 64 56 56 50 47 44 41 39 38 37 35 34 32 32 34 34 34 33 32 33 33 33 29 27 26 27 33 38 40 38 35 33 39 38 34 37 47 60
90 91 86 80 77 76 82 83 80 79 74 71 72 72 66 65 61 55 49 45 43 43 42 42 41 39 36 34 34 35 35 34 35 33 32 31 30 31 33 35 36 39 43 44 43 40 38 40 42 41 40 46 50 59
84 84 83 80 80 81 82 81 79 78 76 70 69 68 63 57 53 46 44 46 46 44 45 44 42 38 36 36 36 35 33 31 29 28 28 28 32 36 41 44 43 43 44 46 47 46 48 48 46 45 49 50 50 52
84 85 85 84 81 80 79 78 75 70 69 70 71 68 59 52 50 51 51 48 46 47 46 41 37 36 36 35 33 31 30 29 29 29 30 30 30 32 36 41 48 55 59 59 58 55 54 51 50 50 51 52 50 51
82 82 83 85 84 83 81 78 78 74 70 63 58 58 58 58 57 54 51 49 48 43 38 36 35 35 33 30 30 30 31 32 32 32 32 31 36 47 58 63 65 65 63 61 61 61 57 51 50 49 50 54 54 54
82 80 82 85 87 85 81 78 74 71 67 67 66 65 63 61 54 48 47 45 42 38 35 35 33 30 29 28 27 27 28 28 28 33 41 49 55 58 60 63 65 64 62 60 60 58 54 51 51 51 51 55 58 60
78 80 80 82 85 83 80 76 74 73 74 73 69 66 59 54 50 48 46 42 38 36 34 31 28 27 26 27 28 28 29 32 40 42 46 50 55 58 60 61 60 60 61 61 59 57 55 54 56 58 58 64 65 67
83 83 82 83 84 83 82 80 80 79 76 73 66 61 57 54 50 45 41 38 36 33 29 26 26 26 26 27 31 33 36 39 42 45 50 50 53 58 61 62 64 65 67 68 69 70 71 72 74 73 72 71 71 71

GFSWCAN_prec_cthk_063.txt.gz
RH
76 72 59 50 50 51 79 98 98 98 97 98 98 91 61 39 29 28 28 32 36 38 44 45 46 48 44 43 47 46 49 51 54 57 59 59 59 56 59 62 62 65 71 74 80 86 85 71 73 78 78 80 81 82
65 59 55 49 46 56 81 97 98 94 98 98 97 88 54 39 29 31 31 36 36 36 44 47 48 50 48 47 45 46 47 50 53 54 56 59 59 59 60 65 61 67 65 71 67 70 62 62 63 63 62 62 61 60
51 52 44 45 47 61 86 97 98 97 95 97 96 88 51 36 30 33 36 37 35 41 46 47 47 48 48 49 48 46 48 49 51 53 54 56 57 59 59 60 60 60 58 61 60 63 61 58 60 60 59 60 63 64
41 51 44 48 52 78 87 91 97 98 98 97 98 81 42 38 38 40 41 39 39 42 50 49 46 46 46 47 48 48 44 44 50 50 51 53 53 52 56 55 58 60 59 61 64 66 65 66 66 69 71 73 73 69
44 49 43 52 62 87 95 98 98 98 98 98 98 85 46 42 41 39 40 40 41 39 44 47 46 45 43 42 43 44 46 44 44 46 49 50 49 48 47 47 48 48 51 53 55 58 61 67 70 72 69 69 67 66
51 44 48 48 78 96 96 94 96 97 98 98 92 68 53 46 46 44 42 39 39 38 37 45 46 42 40 36 34 35 39 41 40 39 42 41 41 40 37 40 34 37 39 40 45 50 56 60 58 60 60 59 57 52
39 40 46 56 81 94 97 96 95 98 98 98 81 65 57 54 47 41 35 33 35 33 36 45 47 45 42 40 37 33 31 32 31 33 36 35 35 36 39 40 35 38 41 43 49 48 48 49 48 45 43 40 37 38
34 44 44 65 83 91 97 98 98 98 89 71 69 62 60 51 46 43 38 34 31 25 22 31 43 42 40 39 38 37 34 33 34 37 37 37 37 36 42 38 40 43 45 47 47 44 43 41 39 37 34 31 31 30
39 40 71 85 87 93 96 98 98 91 76 71 68 63 57 51 50 40 34 29 20 14 22 27 34 36 36 38 37 37 39 41 38 42 44 45 47 48 41 42 44 47 47 45 40 37 37 38 37 36 35 36 36 35
43 71 86 90 95 98 97 97 90 85 75 73 71 62 55 50 45 39 34 20 15 16 19 31 27 32 34 36 38 39 40 45 45 48 49 51 51 48 48 50 52 50 43 40 39 41 41 41 39 40 40 41 42 43
66 77 89 97 97 98 97 97 89 75 83 81 68 62 58 47 41 33 24 21 21 25 25 29 27 31 36 39 40 40 45 47 50 57 55 53 54 51 51 50 48 43 40 41 42 42 42 42 43 46 47 45 41 36
63 80 94 97 98 98 96 93 69 72 77 69 58 58 54 50 40 31 32 27 26 27 28 27 28 30 36 39 39 43 49 52 52 55 53 51 51 48 50 46 39 38 40 40 40 40 44 47 44 38 36 34 28 33
64 85 98 97 98 98 97 85 73 76 70 63 60 55 51 40 35 35 37 36 36 32 31 29 32 32 38 41 45 50 54 57 53 55 51 48 45 44 42 38 36 38 40 41 44 42 38 34 31 29 29 28 28 31
71 97 98 98 98 98 92 74 79 77 67 57 49 47 40 39 36 38 30 30 33 30 30 32 37 42 46 50 50 52 53 51 52 53 49 43 40 38 36 36 37 39 39 36 33 26 25 26 26 26 28 30 33 35
87 98 98 98 98 97 77 72 77 71 56 45 37 31 38 45 50 53 51 45 40 37 35 38 42 47 53 53 51 50 52 53 50 45 42 39 38 35 36 39 38 35 30 24 24 24 25 26 25 25 29 33 41 44
98 99 98 98 97 89 77 77 74 59 48 39 35 35 41 43 53 51 49 47 45 43 42 41 48 53 54 52 50 48 47 46 38 39 38 38 35 35 37 35 31 26 23 23 25 25 24 23 22 20 18 22 25 32
96 95 97 97 97 85 71 74 67 58 53 41 37 33 40 46 59 57 51 50 50 48 55 54 50 53 53 52 50 46 43 35 34 37 38 37 34 34 32 27 25 23 23 23 22 21 20 17 16 17 17 19 25 32
95 97 97 95 89 79 76 72 66 60 56 45 44 40 39 48 55 58 57 55 55 49 49 49 48 51 53 49 49 40 33 33 34 34 33 33 32 29 25 24 23 23 24 23 23 19 17 16 17 17 18 20 21 28
96 96 96 91 81 73 69 64 58 61 57 51 47 44 51 57 59 56 54 52 45 43 44 47 50 51 49 44 40 35 33 33 34 34 33 31 27 25 24 24 25 26 26 25 22 19 17 19 20 20 21 22 22 23
98 99 96 86 77 67 62 59 54 50 54 52 49 55 59 63 62 56 51 44 42 45 49 51 49 45 42 38 36 34 32 33 34 32 30 26 25 24 24 26 28 29 28 24 22 20 18 18 22 24 24 26 27 26
98 98 90 81 70 62 59 57 54 52 53 57 60 62 63 62 59 55 49 45 46 47 47 43 42 41 40 38 36 34 34 34 33 31 27 25 26 26 26 28 31 30 29 24 22 19 21 22 24 26 28 28 29 31
95 91 84 75 67 63 59 59 54 53 55 60 62 68 67 64 63 57 50 46 47 44 44 41 41 42 41 38 38 37 35 34 31 28 26 26 27 27 27 28 29 28 29 27 26 23 22 25 28 31 32 31 31 32
95 87 79 73 69 66 68 63 57 57 58 61 66 72 69 65 62 57 52 48 45 46 46 45 44 42 41 41 40 36 34 31 28 27 27 28 30 30 31 31 32 33 30 26 28 27 29 33 36 39 37 35 32 31
91 86 78 75 69 72 66 64 60 58 59 66 74 76 74 69 64 58 51 48 46 47 46 45 44 43 43 43 38 34 33 30 29 29 30 31 31 31 33 33 33 35 34 33 32 34 39 43 47 46 43 38 34 33
92 89 83 81 75 70 71 70 68 65 70 76 79 78 76 71 65 57 53 51 51 48 48 46 44 44 42 39 37 34 31 31 32 32 32 34 34 33 31 31 31 32 34 36 40 42 45 45 44 45 44 40 39 36
92 92 88 84 77 71 71 73 71 71 78 85 86 83 76 73 66 55 58 55 53 50 48 45 44 42 41 40 36 33 32 32 33 33 33 34 32 30 28 29 30 32 35 36 37 39 42 45 51 52 47 46 45 41
94 90 83 78 74 74 74 75 77 81 85 84 84 82 80 73 64 59 59 55 51 50 46 44 44 44 41 38 34 33 32 33 32 31 30 29 30 32 33 34 33 37 44 52 57 61 60 59 57 53 50 48 46 50
87 84 81 79 77 75 79 83 88 86 84 77 78 80 72 65 65 56 56 54 52 49 47 47 45 42 38 35 33 32 32 30 29 29 29 28 28 29 35 46 53 57 60 64 65 65 63 62 59 56 51 48 50 53
83 79 80 82 82 84 87 89 88 83 80 76 72 71 67 62 60 59 56 55 51 51 50 47 43 40 36 34 32 30 28 27 26 24 23 24 30 38 42 44 47 48 53 59 64 63 61 60 58 54 49 49 50 54
83 83 83 85 85 89 90 87 83 82 79 74 70 69 68 65 60 58 57 56 54 51 47 42 38 36 33 31 29 27 26 26 26 28 30 33 36 38 37 39 43 48 54 57 58 57 56 55 55 53 51 51 51 54
89 90 92 92 92 90 88 87 85 81 77 76 72 65 62 62 63 60 57 52 49 45 41 37 35 33 30 27 26 25 26 28 31 33 36 38 39 39 37 42 48 54 59 63 65 64 63 61 59 58 58 57 55 57
93 93 93 93 92 89 88 85 84 79 72 68 66 67 70 67 59 55 53 50 45 40 38 35 32 29 27 26 26 28 31 32 34 34 35 37 39 37 38 47 56 66 78 85 84 83 83 82 80 77 75 69 65 64
90 90 90 91 92 90 86 82 80 77 76 77 79 77 68 61 57 56 51 45 41 39 36 32 29 27 27 28 30 32 34 35 35 35 35 36 36 38 49 61 71 81 83 82 81 82 83 83 81 80 80 79 74 72

GFSWCAN_prec_cthk_066.txt.gz
RH
82 80 79 66 60 46 47 48 80 97 95 97 95 98 98 83 54 45 31 34 40 43 50 50 49 49 47 46 47 46 50 51 54 55 58 57 55 54 57 57 58 60 64 67 69 72 70 60 66 70 68 66 66 65
79 74 71 53 51 46 49 60 87 96 96 97 98 98 96 74 47 36 31 34 40 42 51 52 52 51 48 47 45 46 45 47 48 51 51 55 54 55 55 62 56 61 55 60 59 57 54 55 58 59 59 58 56 54
73 69 59 43 49 46 47 59 88 95 97 98 98 98 85 59 41 32 32 34 39 45 48 53 53 51 49 49 47 47 47 47 48 47 52 55 53 54 55 56 56 55 53 55 55 56 59 61 61 60 58 57 59 63
68 64 45 45 46 46 47 62 83 94 97 97 98 95 72 53 38 34 34 38 40 41 49 53 52 50 48 48 47 45 45 48 50 49 50 53 51 51 56 52 54 54 52 54 57 57 57 58 60 58 60 62 62 60
65 56 37 46 43 45 70 80 83 88 97 98 98 87 68 49 41 36 38 40 41 41 51 53 48 48 47 47 46 46 46 46 46 49 50 50 50 49 48 49 50 48 50 49 47 47 47 48 52 54 52 51 46 46
60 40 41 40 47 70 84 94 93 95 97 97 97 81 66 48 40 40 46 45 45 46 46 55 51 48 43 43 45 45 44 44 45 44 48 46 45 46 41 41 36 40 41 41 42 44 46 49 50 49 46 43 42 42
51 39 47 44 65 83 92 96 97 97 98 98 90 77 60 45 39 43 41 40 44 43 41 49 51 49 44 37 36 38 40 41 41 41 40 36 36 40 40 39 37 38 40 43 44 44 48 48 45 42 42 42 42 42
45 40 41 44 61 88 96 97 97 97 97 97 86 76 61 50 48 44 43 40 39 34 35 45 51 48 44 39 38 36 34 33 33 35 36 37 36 37 39 37 39 42 44 45 44 42 42 43 43 43 44 46 47 46
40 37 35 43 63 93 97 98 97 96 97 96 80 71 65 57 50 47 42 38 30 22 27 31 44 48 43 41 40 38 37 39 39 40 42 43 44 45 40 42 44 46 48 46 42 40 41 41 41 43 46 45 43 43
37 32 31 38 75 92 97 97 97 97 96 86 74 70 65 60 50 41 35 27 21 17 20 32 37 40 40 38 40 40 40 44 45 45 44 48 48 46 47 46 48 50 46 40 37 38 41 42 41 40 40 41 45 45
34 32 40 65 89 96 98 96 93 88 81 76 74 68 60 53 48 43 34 27 21 23 25 29 31 35 37 37 39 38 43 45 49 51 53 54 51 46 45 45 46 44 40 36 34 36 37 37 37 40 40 36 32 29
31 42 74 88 95 98 96 94 84 78 79 75 74 63 53 46 42 39 39 29 23 26 29 31 32 34 35 34 38 42 45 48 55 54 53 52 44 39 40 40 37 34 32 32 34 35 36 38 35 30 26 25 25 25
45 71 81 94 98 97 97 89 78 76 75 74 69 60 54 50 41 32 28 32 34 32 30 30 32 31 32 35 41 48 55 58 54 54 53 43 36 36 36 36 32 32 33 34 35 36 33 27 24 24 24 24 24 25
67 77 88 97 97 98 97 85 80 86 78 67 56 54 48 39 37 30 33 38 29 28 27 28 32 34 36 41 49 54 58 54 57 56 46 37 34 36 35 33 31 34 36 37 33 27 23 23 23 24 25 25 23 20
61 79 91 98 97 98 94 83 86 84 71 61 51 45 46 47 44 45 40 33 30 26 24 29 32 36 44 49 54 56 57 57 51 44 37 33 35 34 31 30 33 36 35 29 24 23 23 23 21 19 17 16 17 18
64 90 97 96 96 96 82 85 87 74 63 53 51 50 49 50 45 43 35 31 28 27 29 29 38 42 50 51 53 52 49 46 39 38 33 34 33 32 31 33 35 32 27 24 23 23 22 21 18 16 16 17 18 19
85 96 96 97 98 93 84 90 81 68 60 50 52 48 49 46 46 48 48 44 42 38 44 43 43 49 55 54 53 50 47 40 34 34 33 34 33 31 32 33 29 26 24 24 24 24 24 22 18 18 17 17 18 21
96 99 97 95 94 94 95 88 71 66 64 62 52 43 46 47 50 50 48 47 46 45 44 47 49 52 50 48 49 44 40 39 38 36 37 35 32 31 29 26 25 24 25 27 28 27 26 23 20 19 20 20 22 25
97 96 97 95 90 90 87 79 69 70 69 55 46 44 48 53 57 55 53 51 48 47 45 43 45 46 45 44 41 41 40 38 36 36 34 33 31 28 25 24 24 26 28 30 31 31 29 27 24 21 22 24 26 31
98 97 95 94 90 82 79 76 69 64 62 53 48 46 48 51 53 51 51 48 46 45 43 44 44 42 41 40 40 38 37 36 36 36 33 30 27 25 24 25 27 29 31 32 32 32 32 28 27 27 29 31 35 38
99 99 98 90 83 78 73 74 70 68 64 54 47 50 52 53 53 54 50 45 42 41 44 43 41 40 40 38 37 38 38 36 36 35 31 28 26 25 25 27 29 30 31 31 33 32 33 32 31 34 38 43 46 48
97 96 92 85 77 73 72 73 67 68 66 55 52 56 58 56 57 55 50 45 41 43 44 40 40 40 39 38 39 41 41 40 38 34 30 28 27 27 27 28 30 31 31 33 35 33 33 37 40 44 47 50 54 53
97 96 88 79 74 71 75 72 64 63 63 60 60 61 62 60 58 55 50 45 41 43 43 42 41 42 41 41 43 43 41 39 34 31 30 30 29 28 29 30 32 32 30 30 33 35 37 42 48 53 54 52 49 46
94 88 82 78 72 74 72 70 65 64 63 62 60 61 65 64 62 59 55 48 42 42 42 43 44 44 43 43 42 41 38 35 33 31 31 30 29 29 30 29 27 27 29 29 31 34 40 45 50 55 59 60 61 60
93 93 87 84 74 68 72 71 69 64 63 61 63 70 71 70 66 60 58 51 44 41 41 45 46 47 46 41 41 40 38 34 32 32 31 30 29 27 25 24 23 24 27 30 36 44 52 58 64 65 66 66 61 55
95 94 86 78 72 67 70 69 67 65 63 69 76 74 75 76 75 64 64 53 43 43 47 49 50 49 46 43 43 41 36 35 34 31 29 27 25 23 22 23 25 31 35 38 42 46 49 52 57 60 63 65 59 53
94 89 83 76 72 70 71 71 67 68 75 83 81 78 78 77 73 64 57 53 49 50 53 52 51 50 47 45 43 39 36 34 32 28 26 24 23 24 28 31 33 34 36 40 45 50 52 51 52 54 56 56 53 49
93 85 81 79 76 72 73 77 79 80 81 79 79 79 80 77 68 60 57 58 55 55 55 54 52 48 47 46 42 38 36 31 28 25 23 24 28 31 34 36 35 35 40 47 51 56 56 54 51 50 50 51 49 49
86 83 82 83 81 83 84 83 85 85 80 77 81 82 76 71 67 62 59 57 56 58 58 54 50 49 46 42 39 34 30 26 24 23 25 26 29 33 35 36 34 35 43 51 57 64 69 69 65 58 53 50 50 50
85 83 83 85 85 89 87 83 85 88 86 83 77 73 69 65 62 60 59 60 61 58 54 51 48 46 41 37 33 29 26 25 26 29 30 30 32 32 34 34 32 39 48 59 67 69 70 73 76 77 72 64 59 54
83 84 87 88 91 93 92 93 94 90 86 83 78 71 67 67 67 65 65 63 59 56 51 48 45 40 36 33 29 27 27 28 30 31 32 33 33 33 35 34 40 49 61 65 65 67 70 72 75 75 73 75 75 68
93 93 92 93 96 96 96 94 91 86 84 81 75 70 68 68 66 64 63 61 55 51 47 43 40 37 33 29 28 28 29 30 33 35 34 35 35 36 35 41 50 62 65 65 67 68 69 71 72 71 71 74 76 78
97 95 95 96 97 97 96 93 90 87 84 79 76 72 67 67 66 67 63 58 53 48 44 41 38 34 31 29 29 29 30 33 36 37 36 36 37 35 40 53 63 66 67 69 71 73 75 76 76 75 73 72 75 78

GFSWCAN_prec_cthk_072.txt.gz
RH
62 77 80 70 60 51 50 42 40 65 79 92 95 95 95 96 95 88 62 47 47 51 56 53 52 53 53 54 55 53 54 53 53 54 54 55 53 52 52 49 53 55 58 58 59 59 53 46 48 50 48 49 50 52
66 74 73 63 55 49 49 41 48 69 84 87 93 91 92 93 93 86 63 46 48 49 53 55 54 55 53 52 54 51 48 48 49 50 49 52 49 51 51 51 48 49 47 48 50 49 46 46 46 45 46 48 50 49
66 71 65 59 49 47 44 40 53 70 88 89 93 94 92 95 94 78 49 43 47 51 54 56 54 52 54 52 51 51 47 47 46 46 50 49 48 48 50 49 48 47 46 48 47 47 48 47 45 46 46 47 49 46
69 68 60 51 42 47 40 46 59 69 79 83 89 93 96 95 78 48 43 43 47 53 57 57 55 52 51 51 48 46 46 45 47 47 47 50 49 50 51 49 49 48 48 49 48 47 47 46 46 46 46 45 43 39
68 65 57 43 37 42 45 42 53 68 80 87 91 92 95 85 60 45 40 41 46 44 52 54 52 54 51 50 48 47 47 47 47 48 51 51 52 51 49 48 47 45 45 46 46 42 42 40 40 42 42 40 38 37
63 61 51 35 38 36 35 50 57 61 77 87 86 91 93 72 50 41 37 40 42 44 42 55 55 52 51 51 49 48 47 47 45 46 48 48 47 48 47 46 37 38 39 40 39 40 40 39 38 38 40 40 39 36
62 57 45 34 36 41 68 61 56 61 77 84 86 88 84 69 44 35 32 35 39 40 41 50 52 51 51 52 50 47 46 45 43 45 43 42 43 44 42 39 32 33 33 34 36 37 38 39 39 41 41 37 34 34
57 54 42 32 38 66 75 71 70 73 80 84 85 84 74 56 47 37 35 36 36 37 39 47 50 50 50 49 49 45 44 44 43 44 42 40 40 41 40 31 31 34 35 36 37 37 35 36 37 37 35 32 31 30
56 50 38 29 41 69 77 75 77 82 87 88 86 74 61 55 47 42 39 38 37 35 38 42 45 48 49 47 46 44 41 43 42 42 42 42 40 40 30 31 34 35 37 37 37 36 35 34 32 31 30 31 32 33
53 46 36 30 45 72 77 78 82 88 90 86 76 72 66 68 54 45 43 41 41 38 33 36 39 45 47 46 45 43 41 43 44 43 43 44 41 34 34 35 36 37 38 38 38 35 32 30 30 31 33 32 32 33
56 51 36 28 42 72 76 80 83 87 88 82 74 71 67 67 62 45 42 40 39 33 33 36 35 45 44 45 44 41 43 45 44 43 47 48 46 39 38 38 38 38 38 38 35 30 30 29 30 31 32 34 32 29
57 53 40 32 41 67 79 80 84 85 78 77 74 73 70 63 55 46 44 38 34 30 34 36 36 41 41 42 40 40 39 41 45 45 49 51 41 37 35 36 36 37 37 36 33 29 29 31 32 34 33 29 26 26
57 54 43 36 37 59 76 81 89 87 82 78 75 69 62 54 51 45 40 41 39 33 32 36 39 41 39 35 37 37 40 44 43 49 53 45 37 35 35 36 36 35 34 33 30 30 33 35 35 31 27 26 26 24
61 54 47 38 40 54 72 82 89 85 83 79 74 70 65 60 53 45 41 36 28 27 31 31 36 35 33 35 37 40 43 42 50 55 49 39 33 33 35 36 36 36 35 32 32 35 37 35 29 26 24 25 24 23
64 59 50 36 37 53 75 84 88 86 85 77 70 65 63 55 54 53 45 41 31 28 33 33 33 34 35 38 39 42 45 48 46 43 39 34 34 35 37 38 39 38 35 34 36 37 34 28 25 24 26 27 28 27
68 64 54 33 35 64 81 90 91 90 83 73 66 60 61 61 53 53 47 44 34 35 33 29 41 34 38 38 42 40 37 36 33 39 35 36 36 37 40 41 40 37 35 37 38 32 27 25 26 27 28 29 32 33
72 64 50 25 42 76 90 94 91 90 82 70 66 60 54 56 51 47 43 40 36 35 36 38 31 35 41 39 38 37 36 33 33 35 37 39 38 39 40 38 36 36 38 34 29 26 25 28 29 29 28 27 31 36
74 63 48 48 85 95 94 92 92 86 77 69 69 63 56 54 51 44 37 37 37 34 34 32 34 37 37 35 39 36 35 37 39 39 40 38 37 36 36 35 36 34 31 28 27 26 28 29 29 29 30 31 32 38
87 67 70 64 87 97 93 91 90 75 71 73 71 65 55 53 50 44 39 35 33 30 29 30 33 34 34 35 36 38 39 38 38 39 38 37 36 36 35 34 31 29 28 27 27 27 29 30 30 28 25 27 31 37
90 72 83 78 91 97 93 91 88 76 75 74 73 66 55 53 54 53 49 38 35 36 35 36 35 37 39 39 38 37 36 36 35 37 37 37 36 35 32 30 30 29 28 28 28 28 25 23 23 24 28 34 40 44
95 89 93 90 91 96 94 91 90 80 75 77 74 68 57 55 51 46 42 40 39 40 46 45 44 43 40 39 38 36 35 35 36 36 36 36 34 32 31 32 31 29 29 28 24 22 23 26 26 28 34 40 45 46
96 92 93 94 95 97 94 89 87 80 78 76 74 67 61 51 50 47 44 46 47 46 47 45 43 40 38 38 36 36 35 36 38 37 37 35 33 33 33 32 31 29 27 23 23 25 28 29 30 34 38 44 46 44
94 93 96 98 98 96 96 91 87 82 80 78 73 65 64 55 52 49 47 46 46 45 45 45 41 39 38 38 38 39 39 39 39 40 39 36 34 34 33 33 30 26 23 24 27 30 31 30 35 37 43 50 50 44
97 98 98 97 95 97 95 93 88 82 81 78 75 67 60 57 55 52 48 43 42 42 46 45 41 40 42 42 42 42 41 40 40 41 38 36 35 35 34 29 27 25 26 29 31 32 30 30 34 44 50 54 55 51
98 98 98 97 95 94 92 91 88 83 78 78 76 69 59 57 57 55 49 39 41 44 46 45 44 43 43 43 44 43 42 41 42 41 39 37 37 34 29 27 27 27 30 32 31 29 28 32 44 50 53 55 56 59
97 97 98 93 91 87 87 83 81 79 77 79 75 67 56 55 55 49 48 38 40 43 46 48 46 45 45 44 43 44 44 44 43 42 39 36 32 29 29 28 28 30 32 31 30 28 32 43 49 50 53 56 58 58
97 97 89 79 76 76 81 80 78 79 79 75 71 65 59 57 53 49 43 42 43 46 48 48 49 48 46 44 45 46 45 46 45 41 36 32 31 31 30 30 31 32 32 31 29 32 40 47 49 53 56 58 59 59
96 81 73 72 75 76 80 82 85 86 86 76 70 65 61 58 55 48 50 53 55 59 62 62 59 56 52 48 48 48 48 48 44 37 33 33 32 32 32 32 33 32 31 29 32 39 45 49 53 56 59 62 62 62
78 72 75 79 78 81 86 88 86 81 80 78 77 72 66 56 56 58 61 65 65 64 62 59 55 52 51 52 51 49 49 45 38 35 34 33 33 33 33 33 33 32 30 33 38 44 49 54 59 62 63 65 65 66
78 77 81 82 83 87 84 85 83 80 77 75 74 73 71 65 64 66 69 68 67 64 58 53 53 55 54 51 50 50 45 40 38 36 34 33 34 34 33 33 33 31 33 38 46 52 57 62 64 64 65 67 68 69
82 83 86 89 89 89 86 84 83 82 82 79 75 73 72 72 73 72 69 67 67 63 58 55 55 55 52 51 49 45 42 40 37 35 34 35 35 34 33 33 31 32 37 44 51 58 63 64 65 67 68 69 70 71
91 90 89 91 93 93 90 90 88 87 87 88 85 79 77 75 74 73 71 69 66 61 56 54 54 53 51 49 46 44 41 38 36 34 35 35 33 33 33 31 31 35 42 50 59 64 64 65 69 72 72 72 71 72
92 90 90 92 94 96 96 96 96 95 95 94 90 88 84 80 78 73 67 60 54 52 56 57 57 54 51 50 46 41 39 38 35 34 34 34 34 34 32 31 34 41 49 59 64 65 66 67 70 72 75 74 74 75

GFSWCAN_prec_cthk_075.txt.gz
RH
19 48 61 52 50 47 45 45 44 61 72 78 84 88 88 88 89 75 53 47 51 56 59 58 60 59 54 51 54 55 56 56 53 54 54 54 52 52 52 50 51 53 56 55 56 55 45 40 41 42 41 41 42 42
23 44 59 51 47 43 38 37 51 66 72 81 82 85 89 89 86 61 44 45 52 53 56 55 53 58 57 54 53 51 51 51 50 50 49 52 49 49 49 47 46 47 45 45 45 43 39 39 40 39 38 38 40 41
25 43 51 52 48 37 35 37 51 61 74 77 82 85 85 86 85 68 49 44 48 53 53 54 52 55 55 54 53 50 48 47 46 45 47 47 45 45 46 47 46 43 43 44 42 39 41 40 39 39 40 41 40 40
26 42 46 44 37 33 35 38 49 60 70 76 82 84 84 87 82 69 48 40 44 49 52 54 52 52 50 49 46 46 45 43 42 41 41 44 43 45 46 44 45 43 44 44 42 40 41 40 40 40 40 40 39 37
27 42 44 39 32 31 33 40 45 58 68 73 78 82 85 87 73 52 40 38 41 40 49 50 49 51 50 48 46 43 42 41 39 40 43 42 43 45 46 46 44 39 40 41 41 37 39 37 37 39 39 38 36 36
27 39 42 38 31 27 30 39 48 52 68 74 77 80 81 79 61 41 37 36 37 37 43 52 50 50 48 48 46 44 41 41 40 39 42 42 42 43 44 44 33 34 34 35 36 37 38 38 38 38 36 37 36 36
26 37 39 28 25 29 48 49 50 49 62 71 76 79 77 72 61 39 27 32 36 37 38 48 51 48 47 44 45 42 41 40 40 42 41 41 42 44 43 39 30 31 33 35 36 37 38 36 35 36 37 37 36 35
25 36 35 28 24 45 54 52 51 53 61 69 76 79 70 68 58 39 27 31 35 35 35 45 47 47 46 45 46 44 44 43 43 43 41 40 42 43 42 31 30 32 34 34 36 36 34 33 35 36 37 35 32 30
25 36 35 27 26 52 59 61 64 65 67 72 72 74 72 66 57 41 31 33 34 31 34 39 42 46 49 47 46 48 45 45 44 43 43 42 40 40 30 30 32 34 35 35 37 35 34 35 35 32 29 29 30 31
25 37 38 26 27 54 66 68 70 70 70 70 70 69 63 57 50 44 40 36 36 34 32 37 35 45 45 48 48 46 45 44 42 40 41 42 40 31 31 33 33 35 37 36 36 36 35 32 30 29 30 32 33 33
26 40 41 30 24 45 63 67 70 71 73 71 66 64 65 62 60 54 42 38 36 34 33 39 38 40 43 48 48 44 44 44 44 39 44 46 44 37 36 37 35 35 38 38 38 35 33 32 31 31 33 35 36 33
27 41 44 36 26 34 58 68 72 75 74 71 70 69 70 65 61 57 54 40 35 30 30 35 39 38 43 45 45 45 43 42 40 41 44 46 38 36 35 34 35 37 39 39 38 36 33 32 33 36 36 34 29 26
28 41 47 43 33 29 61 71 74 76 70 71 70 70 66 62 58 52 50 44 35 28 31 34 41 39 42 42 47 43 41 40 41 43 44 37 34 35 33 35 37 39 39 38 36 34 33 35 37 36 32 26 24 24
28 42 50 49 39 30 56 77 76 73 74 71 68 66 66 61 54 50 45 45 33 27 28 35 39 42 42 39 37 41 41 43 48 48 38 35 30 33 35 37 39 39 38 37 35 34 36 37 36 29 25 24 27 29
29 41 52 53 47 38 37 77 89 81 80 76 69 67 62 54 51 52 46 43 39 32 31 35 36 36 43 39 39 46 47 48 42 34 30 26 29 34 36 38 40 39 38 36 34 36 37 33 27 24 25 28 31 32
32 41 53 55 52 44 36 66 85 89 87 78 67 61 58 61 62 60 55 47 45 40 35 33 36 35 39 40 48 45 39 35 29 30 26 31 35 36 38 40 40 38 36 35 36 34 30 26 26 27 28 30 30 31
36 43 49 60 61 51 48 57 83 88 87 78 65 63 57 59 59 57 54 48 49 45 41 33 29 31 42 42 43 40 35 28 24 29 34 38 37 37 38 38 37 35 34 34 30 28 27 27 29 29 28 26 23 23
40 42 50 68 68 63 56 51 76 86 83 74 71 66 64 63 64 57 52 47 49 44 35 31 32 40 41 39 40 34 29 27 30 36 40 37 36 36 35 34 33 32 30 29 29 29 29 30 28 24 23 23 22 27
41 44 56 77 76 70 62 55 73 77 78 72 73 73 70 66 64 58 51 47 44 40 34 33 32 33 34 33 32 28 29 33 40 41 38 36 35 35 34 33 31 30 30 30 30 30 29 25 24 25 26 26 27 34
62 64 75 86 85 79 70 61 64 71 72 69 75 78 76 69 65 60 53 47 44 38 33 34 33 32 30 29 31 31 37 39 39 38 36 36 36 35 34 31 31 31 31 31 30 27 24 24 27 27 28 30 35 42
83 83 91 93 91 87 82 66 67 72 72 71 73 81 80 70 64 60 54 47 43 39 38 30 30 28 33 36 37 40 40 39 36 33 34 36 36 34 33 32 32 32 31 29 25 24 26 29 28 27 27 32 42 46
87 90 95 98 97 98 92 81 73 76 78 76 77 85 83 72 62 56 53 52 45 34 30 29 33 38 41 44 43 41 39 38 36 35 36 36 35 35 34 33 32 31 28 25 25 28 30 29 27 26 29 38 44 47
88 90 94 98 99 98 98 93 84 82 83 83 80 84 84 76 63 55 52 45 43 40 38 41 46 48 46 43 42 41 40 39 38 38 37 37 37 36 34 33 30 27 26 27 29 31 30 27 26 29 37 41 43 48
86 90 90 97 98 98 97 98 90 87 88 84 83 84 83 78 66 56 50 43 38 38 44 48 48 47 45 45 43 41 41 41 41 41 39 40 39 36 34 31 28 28 29 30 32 31 29 27 30 36 39 41 46 50
90 96 98 98 98 97 97 97 95 94 94 87 82 82 81 79 71 59 50 43 44 47 48 46 46 46 47 47 46 44 43 43 43 42 41 41 40 36 31 29 30 30 30 32 32 30 28 31 35 38 41 45 49 52
98 98 97 97 97 94 90 89 83 79 83 85 84 83 78 75 70 57 49 44 46 45 41 41 45 48 49 48 46 46 46 46 46 43 42 43 40 33 32 32 31 31 32 32 30 28 32 34 38 40 45 50 53 54
97 98 96 96 93 83 83 82 77 78 80 84 87 85 81 76 68 56 46 46 50 48 43 42 43 46 50 53 52 49 49 48 45 43 43 42 37 34 34 33 32 32 33 32 30 32 34 37 40 45 50 51 52 53
97 96 85 82 81 74 75 77 78 84 86 85 84 82 80 73 65 55 51 51 54 51 46 44 44 46 54 53 52 52 53 51 46 44 44 41 38 36 35 34 33 34 33 31 33 34 35 39 44 50 51 52 54 55
85 83 77 78 77 81 79 77 75 75 75 77 80 81 80 75 68 60 55 54 54 52 49 48 50 58 61 59 58 57 55 50 46 45 44 41 39 36 35 34 35 35 31 32 34 35 38 44 51 52 53 56 56 57
85 81 80 83 81 77 74 73 72 73 74 77 78 79 77 75 68 60 58 59 59 58 58 61 63 65 60 59 58 55 50 47 47 46 43 41 37 36 35 36 36 32 32 36 35 38 43 50 54 55 58 59 60 60
84 80 79 82 82 77 75 76 80 81 82 84 87 85 79 76 77 72 70 67 66 65 65 66 68 64 61 57 54 52 49 49 48 47 43 38 36 36 37 36 33 32 36 37 38 43 50 56 57 58 61 64 64 63
87 82 79 79 81 84 86 87 89 87 87 88 87 89 88 82 79 76 73 71 70 68 68 69 66 62 59 57 53 49 50 50 49 45 38 37 37 38 37 34 33 36 37 37 42 49 54 56 56 59 64 69 68 67
93 90 84 84 90 93 95 95 96 95 94 93 91 87 83 82 80 78 78 78 77 73 70 68 67 63 58 52 50 52 52 51 46 40 38 37 38 38 35 34 35 37 37 40 46 53 55 56 60 64 67 71 71 71

GFSWCAN_prec_cthk_078.txt.gz
RH
19 23 32 35 37 39 35 37 44 54 64 69 74 78 79 76 65 43 39 43 42 48 55 56 54 51 50 48 47 51 50 48 46 45 44 46 43 44 43 42 42 42 43 43 44 44 37 34 36 35 33 33 34 36
21 21 34 35 30 34 31 33 43 55 64 70 74 77 75 62 48 35 38 42 42 41 48 53 53 52 51 50 49 48 46 47 45 42 41 43 41 41 39 37 39 38 36 35 35 32 32 34 34 34 34 34 36 36
22 20 32 34 28 27 29 32 44 54 63 69 71 72 71 67 58 49 37 43 45 44 47 48 49 50 50 48 47 45 42 41 41 39 39 40 39 38 36 35 37 37 37 37 36 34 34 35 35 35 36 37 37 38
21 20 30 31 25 24 27 32 42 50 58 63 68 68 70 67 60 52 37 40 42 43 45 46 47 48 47 46 46 43 40 38 35 35 37 38 37 39 37 37 37 37 39 38 36 33 35 35 36 37 37 38 38 39
20 19 31 27 21 24 26 28 37 49 55 58 64 68 67 66 56 44 35 36 37 38 43 46 46 48 47 44 43 41 40 38 37 37 37 37 38 38 39 40 37 34 34 35 32 33 34 34 35 36 38 40 40 39
19 18 29 27 18 22 23 28 35 44 53 59 61 62 64 64 50 39 34 33 33 35 41 44 44 45 45 44 44 43 41 39 38 39 39 40 38 39 38 35 29 31 32 33 33 33 35 36 36 37 38 38 37 37
19 17 29 27 18 22 31 35 38 39 51 58 60 62 62 61 51 37 29 31 33 32 36 44 45 44 42 42 44 45 42 40 39 40 39 39 40 42 39 34 28 30 34 36 36 37 37 37 36 35 36 38 39 37
23 15 28 29 16 33 38 36 36 38 48 55 59 61 59 59 50 39 27 27 32 32 31 40 42 42 43 44 44 43 42 42 41 42 39 37 40 40 37 29 29 29 31 33 34 36 36 34 34 34 37 38 34 30
25 14 30 31 19 34 41 44 41 43 53 57 60 60 58 58 54 43 33 28 30 30 30 33 36 41 44 46 46 46 44 43 43 41 41 42 38 37 30 30 30 31 32 33 34 35 35 34 34 33 31 30 30 32
30 15 29 35 23 33 46 48 55 55 55 60 62 58 56 56 51 47 42 37 34 32 28 28 30 36 40 48 48 46 46 43 42 38 41 41 35 31 31 32 32 32 34 33 34 35 35 34 32 31 32 32 33 35
35 17 27 40 30 28 45 51 55 60 62 63 57 53 53 51 48 45 45 43 37 31 28 31 33 35 36 47 48 46 43 44 43 41 43 39 34 30 32 35 35 33 34 35 36 36 34 32 32 32 33 35 37 35
40 21 25 40 35 31 42 48 58 64 63 61 55 55 54 54 54 51 52 50 43 32 30 32 36 37 37 46 48 48 45 44 42 40 42 38 28 29 32 34 35 35 37 38 39 38 36 33 32 34 36 36 32 25
46 26 25 41 39 34 41 50 53 66 67 64 58 56 55 54 55 52 51 54 52 40 32 33 36 37 38 45 47 44 47 44 41 43 38 31 28 28 30 31 36 38 40 41 40 37 33 32 34 35 34 29 26 27
54 30 26 38 42 39 41 50 51 56 63 66 66 61 60 55 52 49 48 48 44 41 34 32 37 39 40 44 43 42 43 41 50 48 34 29 27 27 29 34 37 39 41 39 36 34 33 35 34 32 28 28 29 28
62 37 30 38 45 45 48 49 57 58 54 64 64 67 60 55 51 49 49 48 44 42 42 35 35 37 41 42 40 44 54 50 43 37 29 26 25 28 33 37 38 38 37 36 35 34 34 33 29 27 28 29 29 27
68 46 36 36 46 51 51 55 61 62 60 60 59 59 57 61 60 58 53 52 46 45 44 40 38 38 40 40 44 42 42 38 35 33 26 26 27 32 37 37 37 36 36 35 33 33 31 28 27 28 29 27 24 21
72 56 38 37 50 55 55 60 64 66 65 60 53 54 58 60 60 58 58 57 54 52 50 43 39 34 37 42 39 34 37 30 30 28 29 28 31 38 38 37 36 35 33 32 31 28 27 28 29 28 24 23 22 21
78 60 43 45 56 61 66 62 67 69 63 58 51 43 54 60 65 62 61 62 62 58 50 47 41 44 41 34 31 27 28 29 31 31 32 35 40 40 37 35 34 32 30 28 28 28 28 28 25 23 24 24 21 24
83 64 52 51 56 61 65 66 66 69 62 57 51 49 51 62 68 65 64 62 62 58 50 48 45 42 37 30 27 25 27 31 34 36 39 42 41 38 35 34 33 30 29 29 29 28 26 24 24 26 26 23 21 28
80 67 60 64 62 65 69 71 66 67 63 58 53 52 52 57 70 74 71 66 66 59 52 46 41 37 33 28 25 25 28 33 36 40 44 42 40 37 36 34 31 30 30 30 29 26 25 26 28 27 25 22 26 33
84 76 78 73 73 72 69 68 66 65 59 57 52 54 53 53 66 78 80 78 70 57 53 43 38 34 30 29 28 30 32 35 40 42 42 43 39 38 36 34 33 32 31 29 26 25 27 28 28 25 22 26 33 36
91 82 80 81 77 77 76 73 71 70 69 63 58 52 54 53 58 75 82 84 72 56 48 42 36 35 29 29 32 35 38 43 46 45 43 40 38 38 38 36 35 33 30 26 26 28 29 29 26 24 26 32 35 39
90 86 84 83 82 80 80 79 80 79 79 72 66 60 58 53 53 73 84 80 71 59 47 40 37 37 34 31 34 42 48 49 46 43 41 40 39 41 41 39 36 31 28 28 29 30 30 27 25 27 30 33 37 42
94 93 92 91 90 90 84 82 82 84 85 82 79 72 69 64 63 78 83 74 69 57 49 44 38 36 33 36 48 52 51 49 46 44 41 41 41 43 44 40 34 30 30 30 31 31 30 27 28 30 32 35 39 43
99 98 98 94 91 89 88 85 86 88 86 80 76 76 79 79 71 79 77 72 69 55 46 45 44 43 45 52 53 53 51 51 49 46 44 45 45 46 45 38 33 33 32 32 32 31 28 30 31 31 34 38 42 44
97 95 88 83 84 84 84 87 87 86 84 79 79 78 81 82 80 77 72 69 69 59 48 41 40 45 57 57 53 52 54 53 51 48 48 48 48 47 42 38 36 35 33 32 32 30 31 32 32 33 37 40 44 47
90 86 83 82 83 86 86 82 82 86 89 85 81 84 84 86 77 66 65 67 67 64 49 42 51 56 53 52 53 57 57 55 54 51 52 53 51 45 43 40 38 35 33 33 32 31 33 33 34 37 40 42 46 49
86 85 84 84 81 78 79 81 81 82 82 84 85 86 79 74 66 62 63 65 69 65 49 50 56 54 52 53 55 55 56 57 56 56 56 55 48 45 43 41 38 35 34 33 32 33 34 35 37 40 42 46 49 52
88 89 89 93 86 80 78 79 76 69 65 71 70 72 69 64 65 68 69 64 69 72 53 56 59 55 55 56 56 55 57 61 60 60 58 52 47 46 45 42 37 35 35 33 33 35 36 37 40 43 45 49 52 54
85 84 83 79 78 77 73 71 71 72 69 69 69 69 70 67 71 79 78 76 70 67 61 59 60 60 58 56 58 61 64 63 62 60 53 48 49 47 45 40 36 36 34 35 36 36 38 40 42 45 48 52 55 57
83 81 81 77 77 77 76 76 74 74 74 73 73 74 74 74 73 79 83 80 75 71 69 66 62 57 56 60 64 64 65 64 60 54 50 52 51 48 42 38 37 35 36 36 37 38 40 43 45 47 53 57 59 60
87 86 83 82 80 82 82 82 81 81 78 77 78 80 76 74 78 85 86 79 67 64 63 60 60 63 67 67 65 68 64 59 55 52 53 54 50 44 39 38 37 36 38 38 39 40 43 45 48 53 57 59 61 64
90 88 84 81 79 81 82 83 85 88 85 83 79 80 81 82 86 82 83 78 68 69 71 72 70 70 68 67 69 65 60 57 54 55 56 53 46 41 39 38 37 38 39 39 40 41 44 48 51 55 56 58 63 69

GFSWCAN_prec_cthk_081.txt.gz
RH
41 21 18 23 25 30 31 30 40 49 54 56 55 50 43 32 30 32 32 32 35 39 42 43 42 41 41 40 40 42 43 41 38 38 39 37 36 36 36 34 34 37 38 36 37 38 36 31 33 33 33 30 30 31
40 25 19 21 23 28 28 28 40 48 54 52 52 48 44 35 33 33 33 33 33 36 39 40 39 39 39 41 42 42 41 40 37 34 34 34 32 32 32 32 32 33 32 32 30 32 29 29 31 32 33 32 32 33
39 26 17 21 24 26 25 29 40 47 51 50 53 53 49 40 34 32 34 33 33 36 41 42 42 42 41 41 41 40 38 39 37 35 34 34 33 31 31 31 30 30 31 32 31 29 30 31 32 33 35 35 36 37
41 27 16 22 20 19 23 27 36 46 49 51 52 53 52 46 35 31 34 35 35 36 38 41 42 42 41 40 40 38 37 36 34 34 33 34 32 32 32 33 33 34 34 33 33 30 32 32 34 36 37 37 37 37
45 28 14 21 20 19 20 25 34 46 47 52 53 53 53 50 38 31 32 32 34 35 37 37 37 38 40 39 40 40 39 38 38 37 36 35 34 35 35 36 32 30 30 33 31 33 33 34 35 36 37 39 39 39
47 30 13 20 19 17 20 21 27 43 46 49 52 54 55 51 40 30 32 30 32 31 38 38 37 39 38 38 39 40 39 39 39 39 39 38 38 39 38 32 26 27 28 30 30 32 33 33 34 35 38 38 37 37
49 37 10 22 18 15 20 22 29 36 47 52 54 54 55 54 47 36 28 28 29 32 36 39 39 37 39 39 40 41 41 41 42 42 40 40 40 42 40 33 27 27 29 31 32 33 34 34 34 33 33 34 35 36
51 43 11 22 20 17 26 28 27 32 42 50 54 57 57 56 50 44 29 25 30 30 30 38 39 37 38 39 41 41 42 42 42 42 41 39 39 39 37 28 28 28 28 30 31 32 32 32 32 32 33 34 33 30
57 48 16 17 25 23 29 27 27 32 46 54 54 57 56 56 53 44 38 31 31 29 32 32 36 39 37 41 43 44 44 44 42 42 41 41 39 38 27 28 28 29 29 30 32 32 32 32 32 33 32 29 29 31
62 56 25 17 27 27 39 28 28 44 49 52 55 58 54 56 54 46 43 37 37 34 29 27 30 35 36 41 44 45 46 45 47 40 41 42 34 27 27 27 28 31 33 33 33 34 34 34 33 32 30 30 31 32
67 62 37 22 29 30 39 44 38 46 51 53 57 54 50 51 53 51 44 43 42 43 38 33 30 31 32 39 46 46 48 45 46 44 41 41 31 25 26 27 30 31 32 33 34 34 34 33 33 31 30 31 33 33
75 68 47 28 31 33 37 49 47 43 46 47 50 52 51 51 48 49 47 46 46 45 42 41 34 31 34 35 42 49 50 46 46 41 44 41 28 27 28 28 28 30 32 35 36 36 34 33 30 30 32 32 32 28
82 73 58 36 34 38 39 47 52 50 46 48 45 51 54 52 54 52 50 51 52 46 46 46 45 38 35 37 40 44 49 47 40 42 41 32 27 29 30 28 28 33 37 38 38 36 33 31 30 31 32 30 27 26
91 81 68 46 39 39 45 44 54 56 50 47 49 50 55 57 53 49 47 48 48 46 44 46 49 47 42 38 39 43 42 40 45 47 38 31 28 30 29 29 32 37 39 39 37 34 32 30 31 31 29 26 25 26
96 89 76 59 47 45 48 49 55 57 56 49 48 51 47 46 50 47 46 47 45 49 48 46 46 47 49 48 40 40 40 44 39 35 36 30 29 30 30 30 35 40 39 37 34 33 31 31 31 27 25 25 25 24
99 90 80 67 58 53 53 55 58 58 57 55 52 48 43 42 50 57 53 53 50 51 51 50 48 47 49 49 48 42 38 35 30 29 26 26 30 31 32 35 40 40 37 35 34 32 31 29 26 25 25 25 22 20
97 89 90 77 68 64 62 64 61 65 61 59 59 49 42 39 42 50 57 58 56 57 57 57 55 48 45 49 47 39 37 25 22 23 23 25 30 32 37 41 41 39 37 35 33 32 27 26 26 26 24 23 23 20
98 98 91 81 78 74 71 70 69 67 63 58 58 49 45 43 42 47 55 60 62 61 61 63 56 56 52 45 41 33 28 25 24 23 23 26 30 37 43 43 42 40 36 34 32 28 28 27 26 24 25 25 22 19
98 96 92 87 86 83 78 75 72 69 62 55 58 54 44 42 43 41 48 55 61 63 60 59 59 56 50 48 45 36 33 26 26 27 27 28 35 42 47 47 44 38 34 32 31 30 29 26 24 26 27 24 20 22
98 98 94 91 90 89 87 79 73 70 67 57 57 58 52 46 45 46 44 48 57 64 67 62 54 49 48 43 43 39 36 35 29 28 31 35 40 47 51 48 43 36 34 35 33 31 27 25 27 28 26 23 24 28
98 97 97 96 96 93 88 83 77 70 65 61 55 58 57 52 49 52 53 49 52 56 58 58 54 56 49 44 41 40 37 36 38 36 34 38 46 56 53 48 43 38 38 37 34 30 27 28 30 28 25 25 28 29
98 98 98 97 97 97 94 87 79 73 65 63 59 58 57 54 54 52 55 60 52 42 42 50 65 67 59 50 39 37 37 38 32 31 36 48 55 55 50 47 43 41 42 39 34 30 30 31 30 27 26 28 29 31
98 97 98 98 98 96 93 86 87 82 74 69 65 62 60 54 53 55 60 56 50 44 41 42 63 72 69 57 42 38 38 33 33 36 47 57 55 51 50 47 45 46 44 38 34 32 32 31 29 28 29 30 31 32
98 98 98 97 95 93 87 85 84 84 80 77 73 69 63 59 58 61 57 48 43 46 48 43 51 72 77 64 46 39 39 40 40 43 55 57 54 52 50 49 50 50 45 39 35 34 33 31 29 30 30 31 33 34
97 97 97 95 93 88 86 84 83 84 80 80 79 74 68 66 67 64 57 50 49 48 51 48 50 73 77 63 43 43 44 44 49 57 59 58 54 52 52 53 54 52 45 39 36 34 34 31 31 31 32 33 34 35
97 94 89 87 87 85 83 84 83 82 83 87 83 78 75 71 71 64 52 44 49 53 57 55 57 77 77 62 42 39 40 51 60 62 60 57 53 52 56 59 55 51 44 40 37 36 34 32 32 33 34 35 35 37
96 90 85 83 84 83 82 79 81 85 86 83 77 74 73 74 67 52 40 44 50 53 59 66 71 81 74 58 48 48 53 63 59 58 62 63 59 57 61 59 55 50 45 41 38 36 34 33 34 35 36 36 37 40
89 86 84 87 89 84 86 87 88 85 77 70 67 69 66 58 48 41 45 50 59 65 67 72 82 82 75 59 46 57 68 64 62 66 62 63 63 62 63 58 54 50 46 42 38 36 34 34 36 37 37 37 39 42
90 88 88 91 91 90 84 76 72 68 59 57 57 57 53 46 48 53 58 66 70 69 70 74 82 79 66 50 54 60 55 56 62 61 62 67 67 67 62 55 53 51 46 41 39 35 34 36 38 38 37 38 41 47
92 94 92 89 85 77 71 68 63 61 58 55 57 59 59 58 61 65 68 69 66 66 74 73 84 76 53 61 60 55 58 63 63 62 63 66 69 66 57 55 54 51 45 41 37 35 36 38 38 38 37 41 46 51
85 82 81 80 75 69 64 63 63 64 65 65 68 69 65 66 68 71 72 69 70 79 81 83 88 77 58 62 62 60 65 66 63 64 72 73 68 59 56 57 55 49 43 40 37 37 38 39 37 37 40 45 50 52
82 83 81 82 75 69 67 67 71 73 73 73 71 70 68 69 67 67 69 68 76 83 86 90 86 69 61 66 67 66 62 57 59 65 72 70 60 57 58 57 52 45 42 39 38 39 40 37 36 40 43 46 48 52
89 89 87 83 76 74 74 73 75 78 77 76 73 72 75 72 71 74 74 80 85 88 91 91 88 76 65 68 69 63 58 60 68 76 71 63 60 59 59 55 48 43 41 39 40 40 38 35 38 43 44 45 48 55

GFSWCAN_prec_cthk_084.txt.gz
RH
48 44 25 22 19 24 26 24 39 45 46 47 44 31 29 28 28 30 32 31 30 29 32 33 33 36 36 36 36 35 37 35 36 37 39 36 37 35 34 30 31 34 39 37 36 38 41 30 28 29 33 30 30 31
48 45 28 22 18 21 25 25 39 45 44 47 43 39 29 29 30 29 29 32 32 30 32 33 32 33 33 34 33 34 36 36 35 36 34 32 35 32 32 34 32 32 31 36 33 37 31 27 30 30 30 30 30 30
48 46 32 23 18 20 22 23 36 43 45 46 44 42 37 31 32 31 31 33 33 35 35 35 35 33 33 33 35 36 33 34 34 34 35 36 36 33 34 34 31 30 29 33 32 30 29 29 30 31 31 31 32 32
50 46 32 23 18 21 20 20 33 39 45 46 46 47 44 32 32 32 32 33 35 36 39 35 36 36 36 36 36 35 33 33 32 33 34 35 35 34 34 33 33 31 33 32 31 29 30 29 30 30 31 32 32 33
57 47 35 23 17 18 17 20 27 39 42 46 46 47 48 41 33 32 34 33 33 35 36 37 36 37 38 38 38 38 37 36 37 38 40 38 34 34 33 34 33 27 28 32 31 30 30 30 30 30 31 32 33 35
58 52 42 22 17 18 14 18 19 36 40 42 49 50 49 45 37 34 33 31 33 32 35 37 36 36 38 39 40 40 39 39 39 39 39 36 35 36 40 38 24 24 25 26 28 29 30 30 30 31 32 33 34 34
59 58 49 24 18 21 12 14 17 29 41 43 48 51 50 49 42 36 30 29 29 30 35 37 37 34 36 37 39 41 41 40 41 41 39 39 38 39 42 40 25 26 27 27 29 29 31 31 32 31 32 32 32 33
63 61 56 32 15 25 14 20 21 19 38 46 47 51 54 53 49 46 35 27 29 27 28 36 37 32 34 37 39 38 41 43 43 43 40 39 40 40 42 27 25 25 27 28 29 30 31 31 31 31 31 32 33 31
67 64 65 45 16 25 22 22 23 21 28 47 52 52 55 55 53 47 42 35 35 33 32 32 33 38 32 35 38 39 41 45 43 44 42 42 43 42 28 26 26 26 25 26 30 31 31 30 31 31 32 32 28 28
74 68 68 57 25 29 29 27 26 20 27 47 52 51 52 55 54 49 44 38 37 38 41 39 32 35 32 36 40 41 41 47 49 45 42 44 39 28 27 28 28 28 29 30 32 34 32 32 32 32 30 28 27 28
83 76 72 65 35 36 36 30 30 31 34 44 51 50 48 49 53 50 45 42 41 43 42 45 44 42 37 40 43 42 47 44 47 48 45 45 39 27 25 28 29 30 32 31 33 34 33 33 32 31 28 27 29 30
92 83 78 73 48 42 43 40 39 39 43 45 42 45 44 48 46 47 46 43 43 45 44 46 46 46 41 41 42 44 46 44 44 42 45 45 30 27 26 28 30 32 32 34 36 36 35 34 31 29 28 29 30 28
96 92 87 80 62 50 49 48 47 48 46 45 42 38 40 46 50 45 44 46 48 43 42 43 48 49 48 46 48 48 52 48 40 44 40 30 24 26 27 32 32 31 32 37 39 39 37 33 31 30 30 30 26 24
99 98 94 87 75 60 55 54 53 51 50 47 47 45 41 45 45 40 40 41 41 43 42 43 45 47 49 53 54 58 53 47 48 46 32 25 21 23 31 32 32 34 36 42 43 40 37 33 32 32 31 26 23 24
99 99 99 94 83 73 70 63 65 59 57 54 50 50 45 38 39 39 37 34 34 38 45 49 49 48 52 55 52 55 54 55 48 37 26 20 19 21 26 27 30 36 46 47 45 40 37 34 34 33 27 25 24 24
99 98 96 96 90 81 83 77 75 68 66 60 52 50 45 41 44 43 39 40 37 42 44 46 53 56 57 56 58 54 52 50 40 35 28 22 20 20 20 23 30 38 49 50 47 42 39 36 33 29 27 25 22 23
98 94 99 95 94 91 90 88 87 81 73 66 58 52 49 41 42 41 42 41 42 45 47 46 52 53 55 59 60 52 51 40 36 30 29 28 24 20 20 23 32 41 47 52 49 45 40 34 31 30 27 23 24 25
95 99 99 97 97 96 94 94 94 87 79 71 64 56 51 45 40 40 42 42 44 45 46 49 45 49 56 59 57 51 46 40 36 31 29 31 28 27 26 29 33 39 47 56 51 45 39 34 33 30 25 26 25 24
97 99 99 98 97 98 97 95 92 88 83 76 71 64 59 52 47 45 46 46 47 49 47 44 49 47 47 53 54 52 48 47 42 38 38 35 32 31 31 34 39 44 54 57 50 43 40 36 34 30 28 28 26 24
99 99 99 98 98 97 96 93 90 88 84 79 77 74 67 61 55 49 49 49 50 52 49 46 39 35 35 41 47 50 50 46 49 50 45 43 40 40 38 39 44 50 59 55 50 45 41 38 35 32 30 28 27 27
98 98 98 98 98 97 92 89 85 81 82 82 76 78 77 72 68 63 56 56 59 54 48 37 33 32 33 35 45 53 56 50 48 46 44 42 43 45 47 50 52 57 56 55 53 47 43 40 38 34 31 29 30 29
98 98 98 97 97 95 92 87 82 80 78 79 78 76 75 75 73 70 68 67 62 49 40 36 36 37 36 34 34 43 56 64 54 50 47 46 46 46 47 46 55 58 57 57 53 49 46 44 39 34 31 31 32 30
98 97 98 98 97 94 90 87 86 83 80 78 77 76 76 77 75 74 75 68 59 52 43 41 42 43 40 39 37 38 44 50 59 50 47 47 46 44 44 52 59 56 57 57 55 52 49 45 38 34 32 34 32 31
98 98 97 96 94 91 82 82 83 82 81 79 78 78 75 76 77 78 73 64 58 57 52 43 46 48 48 46 41 40 45 49 54 53 48 47 45 46 52 61 59 59 58 60 59 54 50 45 37 34 35 35 33 31
98 97 97 94 89 84 82 79 80 82 80 78 78 75 78 80 79 74 66 57 55 55 53 52 50 47 46 45 40 41 48 54 55 52 52 48 48 51 60 65 60 56 64 66 59 54 50 43 37 36 36 35 34 31
97 96 92 85 84 80 76 77 79 81 82 83 82 80 80 83 81 70 62 57 58 54 50 46 42 42 44 43 41 44 53 62 65 53 50 52 52 56 66 64 56 60 68 67 59 54 49 41 38 38 37 36 34 32
97 91 88 83 80 77 78 76 79 81 83 83 84 85 87 88 80 63 61 56 49 44 43 42 43 44 44 49 49 54 65 71 65 53 53 52 55 66 65 64 64 65 70 67 57 54 47 41 39 39 37 37 34 34
90 84 81 83 83 77 80 80 80 79 79 79 85 87 83 76 66 61 52 46 45 45 45 46 47 50 54 57 61 68 73 76 67 51 51 52 62 65 69 72 68 69 71 63 56 53 46 41 40 40 38 36 35 34
85 82 82 83 82 80 80 77 77 73 72 78 80 81 77 64 55 52 49 48 47 45 43 42 50 58 65 67 71 82 83 79 66 52 51 57 65 70 71 73 75 75 69 58 56 53 46 42 42 41 39 36 36 36
77 78 79 81 81 79 75 75 76 75 77 81 80 72 63 56 52 51 49 45 44 45 47 51 53 60 66 71 79 95 95 75 61 57 66 73 69 65 67 72 78 75 62 58 56 50 44 43 42 41 37 35 38 39
78 80 82 82 82 79 80 81 81 84 85 78 69 65 59 53 48 44 45 46 50 53 55 58 65 69 76 81 93 95 89 72 64 69 70 65 64 69 70 80 80 66 59 59 55 47 45 44 43 39 35 37 40 40
84 87 88 89 88 87 86 89 88 83 77 69 61 56 53 50 47 44 46 49 52 57 62 65 66 72 81 91 98 86 67 62 66 69 66 67 70 72 79 80 67 60 60 58 50 47 46 44 41 36 36 41 39 39
91 92 93 94 93 91 88 85 84 81 74 67 59 56 57 58 55 48 49 52 55 61 64 67 72 80 90 96 97 78 71 73 71 69 71 67 66 71 79 71 61 63 60 54 49 48 46 43 37 34 40 40 37 42

GFSWCAN_prec_cthk_090.txt.gz
RH
63 63 63 53 35 16 17 16 30 36 37 26 21 23 24 23 25 28 34 32 31 29 29 32 33 35 35 34 33 32 31 33 33 35 37 36 37 35 33 30 30 30 36 39 40 40 32 30 31 30 26 27 27 29
59 66 64 60 43 21 16 13 26 33 39 33 24 22 23 24 23 25 29 31 32 31 30 30 31 32 33 34 35 36 37 39 37 39 39 38 37 37 35 32 31 35 29 32 32 29 26 28 26 25 26 26 27 28
61 69 63 61 54 28 15 11 20 32 38 38 34 27 23 24 25 25 25 29 30 31 31 32 31 31 31 31 32 34 36 36 39 38 40 41 38 37 38 35 31 28 29 31 27 21 24 25 26 27 27 28 29 30
70 70 63 62 62 39 15 12 13 28 36 38 36 37 33 25 25 26 26 26 27 31 33 32 32 33 35 36 35 34 34 35 34 35 37 39 39 36 37 34 34 29 30 30 30 26 26 25 26 27 28 29 30 32
72 70 64 63 64 53 19 16 11 20 32 38 39 38 39 38 29 25 27 27 26 26 30 30 29 30 33 34 37 39 40 40 39 39 41 39 38 39 38 38 36 28 27 29 28 22 23 24 26 29 30 31 32 33
71 69 67 65 65 64 30 22 10 13 26 34 39 41 41 42 42 38 29 27 27 26 26 29 29 29 31 34 35 35 37 39 41 43 43 42 39 40 43 43 27 24 23 24 24 25 26 28 31 33 34 34 35 34
74 70 69 67 68 68 49 28 16 11 16 29 35 38 42 44 43 43 39 31 26 26 26 26 28 28 29 30 31 32 34 35 37 39 41 39 39 41 43 41 24 24 26 27 29 30 31 31 32 33 34 36 37 35
78 74 70 70 71 70 65 36 27 14 11 23 30 32 37 42 45 45 44 43 33 31 31 33 32 28 28 29 31 33 34 35 36 35 37 37 37 40 42 26 25 25 26 29 32 33 34 35 36 37 38 38 37 36
79 77 71 72 73 74 71 48 38 26 18 19 27 32 34 40 43 44 46 47 45 38 35 39 38 36 37 38 40 40 40 42 40 41 40 37 36 37 25 25 25 25 25 25 29 32 34 36 37 39 41 41 41 39
80 81 72 72 76 79 77 59 49 41 37 24 27 34 35 36 42 43 46 47 46 45 40 38 39 42 39 43 45 45 48 50 49 45 45 45 38 24 22 23 25 27 28 29 29 32 33 36 38 40 43 44 44 41
85 84 76 75 79 83 82 68 59 57 51 42 34 33 34 35 41 44 44 43 38 35 32 35 40 42 40 42 45 44 50 51 51 46 48 45 43 30 24 21 18 19 25 28 30 29 29 32 37 45 49 50 46 43
91 89 84 83 80 86 83 77 72 65 58 50 44 39 36 36 42 45 45 40 38 35 35 37 38 40 41 42 42 47 48 50 51 45 51 48 33 26 27 27 25 22 23 25 27 27 26 29 37 42 45 43 44 48
94 93 91 88 89 89 89 84 80 75 68 61 54 48 41 40 44 45 41 39 39 33 35 35 39 38 40 41 42 44 48 52 48 51 47 37 27 25 26 26 28 31 33 32 28 25 25 28 33 36 37 42 49 52
96 97 96 94 95 95 93 91 87 82 80 73 67 60 51 48 40 35 32 31 29 30 33 32 37 38 40 42 43 43 44 45 50 51 39 31 23 26 28 30 28 29 30 31 32 32 34 36 38 41 44 46 53 54
99 99 99 99 100 98 98 97 96 93 89 81 74 65 56 47 41 36 34 34 34 31 32 35 37 39 43 44 43 42 45 46 44 39 32 24 25 25 27 32 31 28 29 31 32 32 36 38 41 42 48 51 52 49
98 99 98 99 99 98 99 99 97 97 95 87 80 71 66 60 52 48 43 37 35 36 35 37 42 43 43 44 48 47 43 36 32 34 24 23 26 26 26 29 33 34 33 33 34 36 39 42 44 44 51 51 55 52
99 97 98 99 99 98 98 98 97 97 97 89 78 76 74 66 59 52 50 48 44 42 43 43 44 41 42 47 47 39 38 29 23 20 21 22 21 26 32 37 38 39 37 37 41 44 45 44 46 51 52 54 57 54
98 97 98 99 99 98 98 98 98 95 88 83 80 78 78 76 72 65 61 58 55 51 47 46 43 47 46 46 42 33 30 28 27 25 25 26 27 29 31 35 38 36 37 36 38 41 46 50 52 50 53 62 60 54
98 97 99 99 98 98 98 97 97 90 83 81 78 78 80 84 83 77 70 67 64 62 58 55 54 50 44 41 36 31 31 32 33 32 32 30 27 30 34 36 35 35 34 36 39 41 45 49 52 50 58 64 58 60
97 98 99 98 98 98 98 98 96 96 89 84 80 80 81 82 83 82 81 78 77 74 68 63 58 56 51 43 40 38 38 37 37 36 36 35 34 35 40 46 45 39 42 45 46 47 44 45 42 48 58 59 64 72
97 97 98 98 98 98 98 95 95 91 91 88 84 85 87 87 89 88 85 85 84 75 70 63 65 67 63 61 53 47 45 43 41 41 42 43 45 43 42 47 53 52 45 48 49 45 48 48 44 48 54 66 78 68
98 99 98 98 98 98 98 95 92 90 94 89 87 87 88 89 89 90 90 89 79 73 72 72 66 65 63 62 58 55 53 50 47 47 48 48 48 50 49 48 48 55 54 52 53 50 51 46 44 48 62 75 75 66
99 98 98 98 98 97 98 96 95 92 94 90 91 90 87 86 85 88 90 79 70 71 75 71 64 60 56 54 54 53 55 53 51 46 48 48 49 53 55 54 51 53 56 54 54 54 53 46 46 58 70 77 73 65
99 99 98 97 97 97 95 95 95 94 90 88 87 87 83 83 83 85 81 71 67 73 75 70 61 55 52 50 48 47 48 47 46 47 48 49 51 52 54 54 53 53 53 52 56 54 52 48 52 68 74 76 72 63
98 98 98 98 97 94 94 92 91 91 88 86 87 87 85 86 85 82 73 67 67 71 72 67 59 55 51 47 45 43 43 43 43 44 46 46 47 48 48 49 51 54 55 51 54 53 51 50 64 73 78 79 70 61
98 97 96 92 87 87 86 87 86 85 87 88 87 85 85 86 85 74 65 63 66 71 67 60 54 52 49 47 44 42 41 41 42 43 42 43 43 43 43 44 46 50 54 51 54 55 52 57 71 80 83 76 68 61
98 97 89 87 85 81 81 81 81 83 86 85 84 86 86 87 79 67 63 67 67 64 58 52 50 49 48 46 43 41 40 42 43 44 44 44 43 41 41 44 47 55 55 53 55 57 56 66 80 88 80 74 65 61
96 87 78 78 81 79 83 85 85 81 78 79 81 84 80 74 68 65 68 67 61 57 57 56 55 52 47 43 41 40 40 43 47 47 44 45 46 48 52 54 57 64 61 61 57 58 63 77 92 84 78 70 63 63
90 85 85 86 84 85 84 80 77 76 73 76 76 77 75 69 67 70 71 67 63 62 61 59 55 50 47 45 42 41 41 43 45 45 46 50 54 57 61 62 66 68 69 64 58 64 75 92 87 80 73 66 64 62
79 83 86 83 82 78 72 74 75 76 77 77 76 77 76 74 74 75 71 68 66 64 61 58 54 49 47 45 44 42 42 42 42 44 46 51 56 58 61 68 68 73 70 61 63 77 94 89 80 75 69 64 64 61
89 88 85 83 77 73 76 79 81 81 80 81 82 81 80 80 76 70 68 67 65 62 61 60 55 49 47 44 42 42 42 43 45 45 47 48 55 59 70 74 69 67 62 61 80 92 89 82 78 74 67 66 63 59
93 92 87 84 80 80 85 87 89 88 88 88 87 86 82 80 72 68 65 64 62 61 57 51 47 44 42 42 42 43 43 43 43 44 47 55 60 70 79 75 74 68 65 73 85 84 82 81 76 69 67 64 60 56
95 96 95 95 95 93 93 94 95 96 96 93 89 86 84 79 70 62 61 64 60 53 46 43 43 44 44 45 45 44 42 42 42 48 60 66 73 78 79 74 69 70 70 81 85 84 82 78 72 68 65 60 56 51

GFSWCAN_prec_cthk_093.txt.gz
RH
67 70 62 64 59 50 15 14 16 29 34 32 25 23 23 22 21 22 24 26 26 26 26 29 33 35 36 35 33 32 31 33 32 34 36 39 38 36 37 30 29 29 35 39 40 41 31 28 30 28 23 25 25 26
68 68 63 66 60 59 33 14 11 26 34 34 31 26 24 23 23 23 23 24 25 25 26 26 27 29 30 33 34 34 34 35 36 38 40 40 38 39 37 35 28 34 29 29 33 28 23 27 25 25 25 25 26 26
68 69 67 67 61 61 52 21 12 15 32 35 33 33 28 24 24 24 24 25 26 26 26 27 26 27 28 29 29 32 34 33 35 36 39 42 41 38 39 36 31 28 28 31 28 19 22 23 24 25 26 26 26 27
69 69 73 75 66 61 60 32 20 11 23 36 36 34 36 32 25 24 25 27 27 28 29 27 28 28 28 29 30 31 32 33 35 36 37 39 39 35 37 33 34 28 31 31 30 25 24 23 23 25 27 29 30 31
70 72 71 74 70 64 62 46 28 16 14 29 37 38 36 36 36 31 24 26 27 28 30 27 25 26 27 30 33 34 34 35 37 39 41 41 37 40 39 40 39 30 28 30 28 22 24 23 23 26 29 31 33 34
71 71 73 73 70 68 66 59 36 26 14 19 32 39 40 40 40 39 37 31 27 28 30 30 26 24 25 29 32 34 36 38 39 40 40 40 38 40 43 42 25 24 24 24 25 25 26 28 28 29 32 34 36 37
74 72 73 75 72 71 70 67 47 37 22 15 26 36 39 39 41 42 39 37 32 29 30 31 32 29 28 30 31 33 35 36 37 38 37 38 37 40 41 41 26 27 27 28 28 30 30 29 31 34 36 38 40 42
75 76 75 76 75 75 75 71 59 46 33 22 25 31 35 37 36 39 41 41 40 38 34 36 35 34 35 35 37 37 38 38 37 35 38 39 40 42 40 26 24 24 24 24 26 29 30 30 32 34 37 39 42 45
78 78 79 78 79 75 77 75 70 53 44 33 29 32 35 35 35 35 38 41 44 43 39 37 36 34 36 38 40 42 43 47 43 44 42 41 45 44 29 27 26 27 26 25 24 26 28 30 31 33 35 36 38 44
80 81 81 83 81 79 79 80 76 62 56 49 39 40 36 33 34 36 38 41 43 43 42 38 36 42 38 40 43 44 46 48 48 45 45 47 43 30 27 24 23 23 28 29 31 30 26 27 29 31 31 32 35 40
81 83 83 87 86 84 84 83 83 72 71 65 55 49 43 41 40 41 41 42 40 38 33 33 35 39 39 42 44 43 47 49 49 43 46 44 40 29 22 22 22 23 24 27 31 33 32 29 30 29 29 31 36 38
80 82 88 89 92 89 89 87 88 82 82 73 66 61 52 46 46 48 47 41 40 34 31 30 33 35 37 38 40 45 46 47 47 43 46 44 29 21 22 20 20 22 23 28 32 33 33 32 32 34 36 37 38 39
69 80 92 94 93 92 94 95 92 91 90 86 79 71 61 56 57 58 52 43 39 32 32 32 36 35 37 38 41 44 48 49 45 47 42 32 22 20 19 17 22 24 26 29 33 33 31 30 31 32 35 36 36 41
59 73 93 99 99 97 98 99 98 97 97 88 80 76 70 65 56 52 49 41 33 30 32 33 35 32 35 39 42 44 43 44 48 48 34 27 19 20 19 21 23 24 25 27 29 30 29 29 30 33 35 37 39 42
61 63 94 99 99 99 98 98 99 98 97 89 81 77 68 61 61 57 50 45 41 38 36 37 38 36 39 40 40 43 46 47 42 35 28 18 19 19 19 20 24 24 26 26 26 27 30 32 34 36 37 37 38 41
65 73 87 96 99 99 99 98 98 98 97 95 83 74 66 71 68 65 58 51 47 46 41 39 43 45 43 43 45 43 43 39 32 30 21 19 19 19 18 19 22 28 31 33 32 32 33 36 37 38 37 36 38 40
70 68 73 94 99 99 98 98 98 98 98 92 79 73 70 72 68 67 66 59 53 51 51 51 51 45 47 49 47 41 40 32 26 23 22 23 22 24 24 24 25 29 34 37 40 37 35 38 38 40 40 40 41 46
60 71 73 91 99 98 98 98 98 97 90 84 80 72 76 77 76 77 79 69 64 57 54 54 50 52 52 48 45 38 32 30 28 27 28 29 30 34 34 35 36 35 37 39 39 42 42 42 43 41 42 43 39 43
49 69 80 82 96 98 98 97 98 92 82 81 79 76 78 79 80 80 81 83 78 70 65 63 64 58 54 54 50 40 36 35 35 34 34 35 36 36 37 36 37 39 41 43 46 45 46 48 48 49 48 45 41 42
48 59 86 89 90 98 98 98 97 95 88 82 82 83 81 80 82 85 88 88 87 84 74 68 62 61 64 64 60 53 48 45 44 43 42 42 44 44 43 43 44 46 46 46 50 55 53 53 52 50 50 46 41 45
49 56 94 99 98 99 98 97 96 89 87 89 88 91 91 87 86 89 90 93 96 81 73 63 67 70 74 75 75 71 66 63 61 56 53 52 52 49 47 47 47 49 49 51 53 54 60 57 53 55 55 47 42 56
51 65 89 99 99 98 98 97 95 89 90 86 92 93 93 93 90 90 94 96 83 72 69 73 75 78 78 77 76 70 68 64 60 58 58 57 55 55 54 52 50 50 50 52 55 53 55 58 58 58 53 44 49 65
69 69 90 99 98 98 98 97 97 95 94 90 94 97 92 90 89 91 92 78 67 69 74 79 80 81 76 77 74 69 66 62 58 56 53 52 51 50 49 49 48 47 49 52 54 55 56 58 59 60 51 45 57 68
72 82 88 97 98 98 97 96 94 96 94 92 94 92 85 86 88 92 82 66 64 68 72 73 76 76 76 75 74 70 63 55 49 49 47 46 46 45 43 43 43 44 47 50 51 53 55 59 61 59 49 51 66 71
81 85 89 98 98 95 94 93 91 91 89 89 92 91 89 90 91 88 72 64 65 66 67 68 66 65 68 70 72 66 60 54 49 46 47 46 43 41 40 39 40 41 44 47 48 51 55 60 60 54 48 63 72 74
83 87 83 83 92 91 86 88 85 85 88 90 92 91 94 94 91 77 62 61 65 66 66 66 68 70 70 70 65 59 56 52 49 47 47 46 43 41 39 39 41 42 43 44 46 49 53 56 55 47 53 71 77 78
89 90 82 90 93 81 79 78 83 86 87 88 87 90 92 94 81 63 61 64 65 68 68 67 68 69 66 62 56 52 50 50 48 46 45 45 44 41 40 40 40 41 42 43 45 50 54 57 56 52 65 79 82 81
80 78 70 72 83 82 76 77 83 85 83 81 85 88 83 76 66 64 66 68 73 72 67 64 62 60 56 55 56 56 54 50 48 45 43 42 41 39 38 39 43 47 50 51 53 56 56 61 58 60 75 88 86 77
60 60 70 81 85 86 79 74 76 75 71 73 75 79 74 68 67 69 71 74 71 68 63 61 60 57 57 57 58 55 52 49 47 45 42 39 36 36 41 44 48 53 56 58 60 60 61 61 64 70 90 89 79 72
54 59 72 80 86 81 64 65 67 70 74 75 76 76 75 72 73 75 74 71 73 74 69 64 60 59 60 59 58 54 52 49 46 42 39 37 37 38 42 46 50 55 57 60 63 63 64 70 70 88 90 82 75 73
51 58 69 79 78 74 77 74 71 75 79 80 80 80 77 79 80 80 76 74 77 77 71 65 64 64 63 61 60 58 53 49 44 41 39 38 39 42 47 51 54 59 61 61 65 71 71 78 91 89 82 79 74 75
57 65 76 79 76 81 86 87 83 82 85 85 82 80 79 79 74 71 70 74 74 72 70 67 65 64 63 61 59 55 51 44 40 38 38 40 43 46 52 59 64 69 70 71 78 70 78 89 87 83 82 76 76 72
69 70 76 84 87 88 85 89 92 91 91 89 85 83 83 80 72 66 68 70 71 73 70 67 65 64 62 57 52 47 43 40 39 40 41 43 44 47 58 66 72 76 75 72 66 77 89 85 85 82 78 75 70 68

GFSWCAN_prec_cthk_096.txt.gz
RH
67 67 65 67 61 63 54 30 19 18 34 35 32 24 22 22 20 21 22 24 25 23 21 21 22 25 28 29 29 27 27 30 30 32 35 36 38 35 36 31 28 28 32 38 40 42 31 24 28 26 21 22 22 22
68 69 66 65 63 68 60 51 23 17 26 36 35 32 26 24 22 22 23 24 25 26 24 22 22 23 25 26 27 27 28 29 30 33 37 39 39 40 37 35 28 33 27 26 30 26 20 23 23 22 23 23 24 24
68 70 70 68 68 72 67 61 41 23 17 31 37 34 34 29 25 23 24 25 25 25 25 24 23 23 24 26 27 29 29 30 30 31 34 37 39 38 39 39 32 28 29 32 29 20 21 21 22 23 25 25 26 27
69 70 71 71 70 71 73 64 60 33 21 24 35 37 35 36 34 29 25 25 26 28 28 24 24 26 27 29 30 31 33 35 35 35 37 39 39 35 37 34 34 29 33 32 33 26 25 24 23 23 26 28 29 31
68 72 73 71 72 70 70 68 65 50 33 20 29 39 38 38 37 36 35 32 29 29 29 25 23 24 26 28 31 33 35 35 38 40 40 40 37 38 38 40 39 29 29 31 29 24 24 23 24 24 26 27 31 33
68 69 72 72 73 73 68 69 68 63 47 33 22 33 41 39 39 40 38 37 37 36 34 32 26 25 26 26 29 34 37 39 39 40 39 37 36 37 40 39 24 22 22 22 23 24 24 25 25 26 28 31 34 37
64 69 69 71 74 75 73 69 73 69 57 47 34 28 37 41 40 40 40 39 38 35 35 34 32 33 32 33 34 35 38 41 42 42 42 41 40 43 43 40 22 21 22 23 24 25 25 24 25 25 27 30 32 34
56 67 73 70 74 76 78 74 74 75 66 57 46 39 36 39 38 37 38 39 39 38 39 41 34 31 34 36 38 39 41 42 45 45 46 46 44 47 45 29 26 26 26 25 25 26 27 27 29 30 28 29 31 33
44 58 71 79 77 77 80 81 76 78 74 63 54 50 49 43 39 31 34 37 40 42 38 36 34 32 34 36 38 41 41 45 44 46 47 45 45 44 29 28 26 25 23 23 25 26 26 28 30 31 33 32 30 29
39 45 66 75 79 79 80 85 82 81 77 70 65 61 59 52 45 39 33 37 40 42 44 37 32 36 33 36 39 40 45 48 48 46 47 49 41 30 26 24 21 20 21 20 23 26 27 27 29 28 28 31 33 35
41 42 48 65 79 81 83 84 86 87 81 78 75 69 66 61 57 54 49 44 45 44 38 36 36 40 36 41 42 40 43 45 48 43 45 44 38 27 19 16 17 18 16 18 20 24 26 26 27 28 29 30 31 32
39 41 45 54 75 84 87 86 85 88 90 88 79 80 75 67 60 60 63 56 51 44 38 35 35 40 41 42 43 45 43 44 46 42 46 42 27 19 17 17 17 17 19 22 24 23 28 28 27 28 29 30 31 32
32 34 42 51 66 91 87 92 91 92 94 97 91 85 81 76 73 65 64 63 59 46 38 38 40 39 41 41 43 45 49 48 43 47 41 29 20 17 17 17 18 18 23 24 24 26 29 30 28 28 31 31 32 33
38 37 41 48 62 85 94 95 98 95 98 98 95 89 83 75 66 61 61 61 55 50 47 42 40 39 42 45 46 47 45 46 50 49 35 25 18 16 17 16 17 20 23 22 25 28 28 31 30 28 31 37 39 39
35 37 55 48 52 70 88 90 96 99 98 98 94 88 71 64 62 62 63 56 53 52 49 48 48 44 45 47 49 48 49 49 44 36 29 20 17 18 18 18 18 20 23 24 28 32 34 35 35 37 38 39 38 38
38 39 44 53 52 64 81 96 98 98 98 98 94 80 69 71 72 72 71 69 66 65 61 58 57 55 51 49 52 48 48 43 35 33 25 21 20 21 22 22 24 28 30 31 33 33 35 36 39 41 41 42 42 41
49 44 50 60 68 66 80 98 98 98 98 96 82 77 74 71 74 72 70 67 70 70 65 58 57 56 58 60 56 48 47 37 31 29 27 25 24 26 29 31 32 34 36 37 38 38 38 41 41 40 39 43 45 43
46 48 54 62 79 77 93 98 99 98 96 82 81 77 78 77 79 78 77 75 74 73 70 65 57 58 57 55 56 52 45 38 36 32 30 28 29 31 34 37 38 41 40 39 41 44 46 46 45 45 47 50 50 50
43 53 60 62 75 80 88 94 99 97 88 84 82 83 85 79 78 81 84 84 83 83 79 74 68 57 53 54 56 59 59 48 44 41 38 35 38 40 42 45 48 48 47 47 46 47 47 48 48 49 53 54 53 53
47 56 58 67 76 90 90 97 98 98 93 85 85 87 87 83 80 82 86 92 93 90 91 78 62 57 61 61 63 66 69 72 62 54 47 48 51 53 56 59 58 54 53 52 51 51 50 48 48 52 55 58 59 54
56 49 55 71 72 76 91 98 96 91 86 87 86 94 97 92 88 87 87 91 98 92 79 66 66 72 72 73 75 75 75 76 77 76 72 71 73 70 69 66 62 59 57 55 55 53 51 49 48 52 57 58 59 57
58 62 65 60 65 77 91 98 98 91 91 86 93 98 96 92 91 91 94 97 92 73 70 70 71 76 79 78 79 80 81 81 79 76 74 73 72 70 67 65 61 57 52 50 49 48 46 47 49 53 58 60 59 56
75 76 73 79 86 87 88 97 99 96 95 92 94 95 92 88 88 93 97 87 71 69 72 72 73 77 77 78 78 76 81 83 82 81 76 72 71 64 57 55 52 48 46 46 46 46 45 46 48 53 57 59 59 55
78 78 77 81 88 87 86 90 95 97 98 94 92 92 84 88 92 97 87 69 63 70 71 71 74 75 76 74 69 72 78 80 77 80 80 75 69 61 54 51 50 46 43 43 42 42 43 44 47 49 54 57 58 52
83 85 91 98 88 87 79 70 82 92 90 93 96 93 91 94 98 95 75 63 64 67 68 70 72 73 71 66 65 64 71 70 71 71 76 73 64 61 57 54 51 47 44 41 41 40 41 43 44 48 53 56 57 49
88 84 94 76 77 82 84 83 71 82 85 90 92 91 92 98 98 86 63 55 57 63 64 67 70 71 68 66 63 63 66 69 71 74 73 63 58 57 55 52 48 45 44 42 40 40 41 44 46 48 53 58 58 52
89 93 78 68 68 65 64 58 61 74 81 84 80 87 97 98 91 63 54 54 54 57 61 67 69 70 68 66 63 64 67 69 71 69 65 62 59 55 51 48 47 46 42 42 43 45 46 46 47 51 59 63 59 55
84 88 87 76 68 61 65 68 65 62 69 78 78 85 86 77 59 54 57 61 64 70 77 76 74 74 72 67 64 62 61 62 66 65 62 61 58 55 51 48 45 43 42 44 46 48 49 52 54 57 61 65 58 68
74 69 68 70 69 73 68 58 52 48 53 62 71 76 69 62 59 65 68 72 74 72 71 69 70 69 66 65 63 61 62 65 66 64 61 58 54 49 45 43 40 40 42 44 46 51 53 56 59 60 64 64 66 78
57 58 63 65 70 59 47 46 42 51 66 71 75 71 67 61 61 70 71 71 69 69 70 69 68 65 66 64 63 62 63 64 65 64 61 56 51 46 43 41 40 42 43 46 48 52 55 59 64 67 64 64 72 92
47 54 56 54 50 44 45 45 51 63 76 80 81 78 62 67 73 74 70 67 68 72 71 70 69 68 68 69 68 67 65 66 66 66 64 59 52 44 42 41 41 44 48 51 54 58 61 64 63 61 63 71 91 91
53 54 53 53 49 47 48 51 55 65 75 80 81 80 71 72 69 64 65 68 69 67 66 69 70 71 73 77 76 71 68 68 68 67 64 56 49 43 41 41 42 48 54 57 59 61 62 63 63 67 81 94 89 77
67 63 57 57 55 54 54 65 71 71 78 85 83 83 82 77 63 56 60 64 61 63 66 70 71 72 72 74 73 72 70 69 69 65 56 49 45 43 42 44 45 49 55 59 62 63 68 67 74 82 88 85 80 79

GFSWCAN_prec_cthk_099.txt.gz
RH
68 69 69 71 72 66 64 65 57 28 18 26 34 30 21 22 23 23 23 25 25 24 22 21 22 22 25 27 28 27 27 29 29 30 33 34 38 34 36 31 28 28 34 39 41 43 30 22 26 23 19 20 21 23
67 67 71 70 72 72 70 70 63 54 29 22 28 35 30 25 22 22 24 26 27 26 24 23 22 23 24 24 26 27 27 30 31 33 34 37 38 39 36 33 29 32 26 26 29 25 20 22 21 21 21 21 22 22
66 66 68 70 71 72 72 73 69 63 49 31 26 30 35 33 31 25 24 25 25 26 22 22 22 23 24 25 28 29 29 30 32 34 36 38 39 38 39 40 32 27 28 32 30 22 24 24 25 25 27 28 29 30
62 64 64 69 70 71 71 71 70 67 61 49 34 28 32 36 36 34 32 30 29 28 28 22 21 23 24 26 28 30 31 32 32 35 38 40 40 36 36 32 32 25 28 28 29 23 22 20 20 21 21 24 28 30
59 62 62 66 69 70 70 71 69 67 65 54 49 41 31 32 36 37 37 36 36 36 35 28 24 21 21 24 26 27 29 32 35 36 38 39 38 38 37 36 35 24 23 24 23 19 20 19 19 20 20 21 23 25
55 57 63 68 64 67 69 70 70 68 67 59 52 50 46 39 35 35 38 38 39 39 39 37 30 30 30 30 31 32 30 33 35 38 39 38 36 37 40 40 25 24 23 23 24 24 24 24 23 23 23 23 25 27
52 57 58 60 64 65 66 68 70 70 69 65 56 52 52 52 46 41 38 38 38 36 38 36 31 33 33 33 33 35 37 40 43 44 45 44 44 47 45 42 25 24 24 25 25 26 25 24 24 25 25 26 26 29
41 41 51 59 60 61 64 66 70 71 70 71 61 54 52 57 57 50 44 44 43 41 37 41 34 28 33 37 38 40 41 42 44 44 46 46 46 48 45 28 25 25 25 25 23 24 25 26 26 26 26 28 29 29
40 40 38 47 59 66 72 68 70 72 74 74 66 59 57 59 57 54 51 48 48 47 42 37 34 29 30 34 37 39 40 43 43 45 46 47 46 44 29 26 25 24 24 22 21 23 23 24 26 25 26 29 31 30
39 37 36 38 46 61 71 78 78 74 78 78 70 64 62 61 61 60 58 59 56 53 53 44 33 33 30 34 37 39 43 47 48 45 47 48 37 26 25 24 25 24 22 21 21 20 19 23 27 27 29 30 30 32
40 39 39 39 38 48 64 73 78 80 79 83 75 70 69 69 65 63 62 62 63 63 58 52 48 44 38 39 40 40 45 47 50 46 48 45 39 27 22 19 19 20 19 18 18 20 22 27 29 28 29 30 32 30
33 38 35 37 36 39 50 66 76 83 83 86 82 79 77 72 69 67 66 62 61 58 57 60 54 56 56 48 44 45 46 49 50 44 48 44 29 23 21 19 17 17 17 18 23 25 26 27 29 29 28 30 31 33
28 30 28 30 31 33 39 51 72 83 90 92 90 89 83 80 75 69 64 64 65 60 58 58 57 54 58 57 54 50 47 46 43 48 43 31 22 18 17 16 16 18 20 22 24 23 25 29 32 31 30 31 34 36
24 29 31 36 38 37 38 48 65 82 91 94 95 93 88 79 67 60 61 63 60 60 62 59 63 60 60 61 58 55 50 48 50 51 39 29 21 17 16 16 17 18 18 21 24 26 30 34 36 37 38 38 40 42
23 27 29 31 34 34 43 49 55 79 89 96 96 91 76 66 63 60 62 64 65 66 66 64 63 60 62 62 58 59 60 59 50 39 31 23 19 19 19 19 20 22 23 25 28 31 33 35 38 39 40 40 40 41
24 25 27 32 36 44 60 61 59 75 87 91 94 84 68 71 71 70 76 77 75 75 76 70 67 67 64 61 63 61 59 55 45 40 32 28 25 24 23 24 24 26 28 31 35 37 38 39 40 42 42 42 42 43
27 29 28 35 38 48 64 70 66 64 81 95 76 74 72 67 66 71 78 77 79 81 83 81 80 74 71 72 68 59 60 46 38 37 38 35 31 29 28 30 32 33 34 38 40 42 42 41 44 46 45 44 44 45
29 31 33 46 56 57 77 83 80 88 68 72 73 64 74 69 72 78 80 83 86 83 82 80 75 77 74 67 62 55 50 46 45 45 43 41 38 35 34 36 38 41 47 51 54 55 52 50 47 47 48 47 48 48
32 37 37 47 63 71 83 87 92 94 96 88 56 58 70 77 81 81 84 90 93 90 86 85 83 73 65 64 66 61 60 58 52 47 49 57 61 52 45 43 44 49 57 64 65 65 65 63 61 59 56 52 49 50
40 45 44 49 69 84 88 91 87 93 96 90 70 68 76 84 86 87 88 92 96 98 98 92 68 59 62 67 70 72 75 72 69 67 67 68 68 70 66 64 63 68 71 72 71 70 68 62 58 54 53 52 51 50
52 50 55 67 70 85 93 88 87 88 90 83 70 79 84 81 85 88 91 95 98 97 91 71 68 69 74 75 78 81 82 82 82 82 81 78 79 77 78 81 78 74 73 72 71 69 63 56 52 51 52 52 52 52
58 69 71 75 79 83 86 84 83 84 88 80 76 83 85 84 84 85 93 99 96 84 74 74 73 76 79 79 80 84 85 86 83 80 81 81 82 83 85 86 80 76 71 67 64 60 57 54 52 52 51 49 50 53
76 79 80 82 84 83 71 67 70 67 74 69 73 79 77 73 76 86 94 90 76 69 73 72 73 77 77 77 80 81 81 81 78 77 78 79 82 85 85 87 84 81 74 65 58 55 54 56 54 52 51 48 48 52
80 86 85 87 93 89 70 68 64 63 60 62 67 74 73 76 79 86 85 69 57 63 64 66 73 77 77 74 74 75 77 79 77 74 75 76 77 78 77 78 82 80 68 60 57 58 58 58 56 52 48 48 48 50
91 93 92 88 94 87 79 74 73 71 64 65 70 74 87 91 96 94 72 50 46 50 56 61 69 73 70 68 72 74 76 77 74 71 72 71 71 74 74 74 75 70 64 59 58 57 56 56 54 50 48 48 49 51
94 89 89 84 76 78 69 67 66 60 62 68 66 70 82 91 96 89 61 46 48 50 51 55 66 70 68 69 73 75 73 75 73 71 72 70 71 72 73 70 65 63 61 62 59 56 55 54 52 49 48 47 48 51
98 87 74 76 84 85 79 65 71 76 77 67 67 81 87 93 84 62 52 55 63 66 67 64 68 75 71 72 74 75 74 73 71 70 72 70 70 69 65 64 63 64 63 61 58 57 57 57 52 51 47 48 50 55
95 94 86 76 74 74 87 83 75 69 63 59 63 73 73 63 52 44 53 58 65 69 73 75 81 88 85 82 80 80 77 74 71 69 68 68 67 66 66 65 64 62 59 56 55 54 52 53 52 49 51 51 53 57
92 91 78 75 71 73 74 69 61 52 50 53 57 60 53 44 41 46 52 63 70 68 64 67 72 79 80 80 78 76 76 76 72 68 69 70 70 68 64 63 61 58 55 53 50 51 51 49 49 50 52 54 55 58
72 69 78 78 76 71 58 60 56 64 71 70 68 61 50 39 41 60 60 64 63 62 66 70 68 66 72 75 75 76 77 77 73 70 71 72 71 70 68 63 58 56 53 51 52 51 49 48 48 50 52 56 60 57
72 79 83 77 66 53 54 58 65 67 66 63 61 57 42 41 42 50 54 53 53 59 61 60 59 63 71 76 79 80 79 78 74 74 74 73 73 74 72 69 61 57 55 53 52 54 52 51 51 53 57 59 59 54
63 64 64 68 64 61 62 62 62 62 59 56 46 44 42 43 40 32 34 47 52 56 53 55 59 61 65 67 74 80 81 81 80 78 77 76 77 76 74 69 62 57 54 55 55 55 53 54 55 58 61 58 53 63
73 70 72 74 70 68 65 70 67 61 55 49 39 39 43 46 42 25 29 47 56 57 58 60 59 62 69 71 72 76 82 83 84 82 81 81 80 78 75 66 61 57 55 55 54 55 54 55 56 59 58 58 75 86

GFSWCAN_prec_cthk_105.txt.gz
RH
49 54 56 56 59 59 60 63 65 68 65 59 48 37 25 27 30 27 22 20 22 23 20 18 18 20 21 21 21 26 25 28 29 29 26 27 27 27 27 23 22 24 29 34 33 33 35 19 22 19 18 18 20 21
56 56 59 59 59 61 60 62 63 65 66 62 57 49 47 44 27 28 30 29 26 24 22 19 19 19 19 20 22 24 26 27 27 27 27 28 27 28 23 20 22 23 17 18 18 18 17 16 16 17 18 20 21 22
62 63 65 62 61 62 62 61 61 64 63 60 61 55 49 47 49 46 39 31 31 31 28 26 22 21 19 20 20 22 25 24 27 27 28 29 29 26 26 24 21 19 17 19 17 13 14 16 17 19 21 21 22 23
71 69 67 64 61 62 60 61 61 62 64 63 57 58 54 49 46 49 49 49 46 39 35 28 23 24 23 25 28 30 28 25 26 29 32 32 29 26 24 22 24 20 23 22 21 20 20 20 20 21 21 21 21 21
71 68 67 63 63 64 65 61 62 63 65 66 62 59 55 51 48 49 49 50 52 52 51 43 35 29 29 30 31 31 32 33 34 36 36 35 32 33 29 31 28 26 26 28 24 23 23 22 21 21 22 22 22 23
68 65 64 62 63 61 63 63 62 65 63 65 66 61 60 56 52 49 52 54 53 54 53 53 48 45 44 40 33 32 35 39 41 41 39 36 35 34 33 27 20 21 24 24 23 23 23 23 22 23 23 23 24 25
71 66 61 59 56 56 58 62 63 62 62 65 64 64 63 56 53 54 54 52 51 51 50 49 45 45 45 50 50 47 44 42 40 41 38 35 36 38 36 26 18 20 21 23 23 24 24 23 24 23 22 23 24 26
66 61 56 51 50 51 52 50 57 59 60 67 65 64 62 62 57 55 54 55 56 56 55 55 50 44 47 48 51 53 53 53 52 50 47 42 39 41 36 20 19 20 22 24 24 24 24 25 23 21 20 21 23 25
55 53 50 50 48 47 46 48 46 52 59 61 64 64 64 59 55 58 59 58 57 59 59 56 54 54 46 50 52 53 55 57 55 55 55 50 48 43 24 23 20 21 23 23 23 25 27 26 24 21 21 21 24 27
44 43 43 41 42 44 44 45 47 52 59 59 64 69 68 64 65 62 60 62 64 63 63 56 54 53 51 53 55 54 56 55 56 51 53 54 47 32 25 24 24 24 24 25 26 27 27 25 23 24 23 21 26 29
33 35 36 36 37 41 42 41 44 46 51 60 68 72 73 73 72 68 68 66 65 64 58 56 57 56 56 57 58 55 59 57 59 54 54 51 48 36 31 28 27 27 23 21 23 24 24 23 22 22 23 27 29 33
22 23 25 29 29 31 37 40 41 42 51 58 60 64 73 78 75 72 70 68 66 62 58 59 61 63 62 60 60 61 62 58 60 55 55 51 42 37 34 30 27 24 21 17 18 19 20 20 22 23 24 29 32 36
17 20 20 21 25 29 33 37 42 46 49 60 64 67 65 72 72 72 71 70 68 63 63 62 63 65 66 68 68 68 71 65 58 58 52 44 38 36 34 33 31 26 23 22 22 23 22 23 25 27 30 34 36 38
14 14 14 16 17 19 26 33 41 47 54 56 69 67 59 59 65 58 58 63 65 68 73 73 75 76 79 79 76 77 71 71 70 66 55 45 37 34 34 32 29 26 26 29 29 29 30 30 30 32 34 37 40 43
18 20 19 17 16 17 23 34 37 45 59 64 64 60 49 42 39 47 57 60 60 63 71 78 82 80 81 83 80 78 74 74 65 61 54 47 43 42 40 38 36 37 34 33 32 33 35 37 36 36 38 39 41 47
20 20 20 21 20 20 22 31 37 50 60 66 68 54 45 48 45 45 43 45 52 63 73 82 86 89 88 87 84 76 77 73 67 65 57 50 49 46 44 45 44 42 42 39 38 42 52 59 57 50 49 53 64 67
25 30 27 26 27 27 29 40 56 58 65 68 52 34 35 36 35 37 40 44 51 66 82 85 88 90 91 90 81 74 71 69 66 66 65 64 65 62 54 51 48 49 49 47 47 48 56 63 67 65 60 59 74 79
35 35 36 36 37 41 41 46 54 60 65 51 51 37 43 41 49 56 56 63 63 57 62 81 94 98 92 86 71 66 69 65 65 68 74 76 75 71 60 54 58 57 53 54 56 55 57 66 75 81 83 86 85 82
39 42 45 44 47 52 51 52 50 58 48 42 37 45 55 57 55 60 64 72 78 79 81 75 74 82 68 58 63 63 68 69 68 71 69 73 79 80 75 68 69 74 76 59 57 62 67 74 82 90 90 90 83 83
47 52 50 51 61 67 66 61 59 59 42 34 34 41 47 43 43 45 56 69 75 87 90 88 69 55 50 51 56 58 61 68 71 71 66 68 72 76 78 80 78 77 80 84 81 85 87 80 83 91 93 95 87 81
61 62 67 72 73 76 74 67 63 56 49 48 42 47 49 46 48 50 55 73 89 86 79 71 65 64 64 63 58 52 52 59 69 76 70 69 77 80 79 80 80 80 80 83 85 88 88 84 85 88 90 96 96 88
71 77 79 84 86 82 70 53 67 73 70 60 69 75 76 67 63 63 69 76 74 70 67 57 59 63 59 60 58 65 67 66 66 70 71 77 76 77 77 79 82 81 81 83 81 80 82 83 85 88 92 93 95 89
90 89 90 90 91 87 65 63 68 69 73 68 75 81 73 65 61 66 75 67 59 50 53 50 49 56 59 54 57 58 61 63 67 72 71 75 78 76 74 74 78 79 80 82 83 82 83 84 84 89 92 89 86 83
96 98 96 94 90 85 79 80 79 72 79 78 77 69 57 56 63 78 75 49 35 31 31 28 29 45 60 67 63 61 60 67 64 61 62 63 62 61 65 70 75 80 83 84 85 84 84 83 84 88 89 86 81 77
99 98 97 95 89 88 88 82 78 90 87 73 68 66 64 63 75 77 57 35 24 23 24 30 45 53 70 71 69 69 66 70 65 59 58 65 63 65 63 62 67 75 86 88 85 83 82 83 85 87 84 78 75 80
94 87 93 93 85 82 71 68 70 73 78 83 80 72 66 77 83 75 43 26 30 33 36 55 62 61 66 69 62 62 65 89 91 83 75 71 70 68 68 70 71 74 86 87 85 84 84 84 81 77 76 75 79 77
94 88 94 74 68 68 73 68 71 86 92 93 80 78 83 87 80 56 36 41 44 55 66 72 71 81 80 72 67 73 78 81 84 83 81 87 83 76 74 71 67 71 79 85 85 82 78 75 74 74 76 77 74 70
80 79 88 87 85 81 88 89 93 95 96 97 96 98 98 97 78 52 47 46 57 71 79 73 65 68 66 57 57 61 59 58 65 75 82 88 88 84 76 71 71 70 75 80 78 74 74 75 74 72 71 71 69 67
79 69 72 73 75 80 81 80 84 88 83 83 90 94 91 70 53 47 44 56 57 52 53 53 47 50 48 41 44 48 52 54 50 48 56 66 76 83 90 79 75 71 69 74 75 73 73 73 72 70 70 72 70 64
62 62 75 75 82 81 66 64 60 59 63 73 82 85 84 65 49 52 54 49 50 48 46 48 41 38 32 30 24 28 37 40 40 42 42 45 59 74 85 89 81 80 77 78 76 75 74 73 72 72 73 74 66 61
69 80 86 88 86 72 63 65 65 66 65 67 69 73 59 55 54 47 42 39 44 45 42 34 29 26 27 26 23 21 20 32 41 41 41 42 57 70 83 88 83 84 84 83 82 81 79 76 74 75 75 71 69 66
63 66 75 82 77 81 84 77 73 71 67 71 62 57 55 60 51 33 30 42 41 38 30 28 25 20 20 22 21 22 24 32 42 44 42 45 54 62 73 85 86 82 87 87 89 85 80 78 78 77 74 72 69 67
68 69 71 76 71 68 65 80 85 83 76 71 62 58 59 60 48 31 32 32 32 30 27 26 26 27 24 25 26 27 28 33 41 49 49 50 54 58 67 80 90 88 87 91 95 90 83 81 80 78 78 71 67 67

GFSWCAN_prec_cthk_108.txt.gz
RH
42 46 48 47 45 51 55 58 57 60 61 58 60 54 47 38 27 23 24 25 25 26 20 18 18 19 20 21 23 25 25 28 28 29 28 29 30 27 26 21 25 30 36 40 40 41 39 19 19 17 14 15 16 16
50 52 50 50 52 53 57 60 59 60 61 61 57 57 55 51 50 42 36 28 26 26 25 25 24 22 22 22 25 26 26 27 27 28 26 26 27 25 24 27 19 23 18 22 24 24 16 16 14 15 15 16 18 19
60 61 56 53 55 59 61 61 59 60 62 62 61 58 55 52 51 52 51 48 43 36 27 27 25 25 25 24 23 26 28 29 28 26 28 28 31 27 29 25 21 20 18 22 20 14 15 16 17 17 19 20 20 20
66 68 67 60 60 64 64 64 63 61 60 62 63 61 58 55 51 48 49 49 52 53 55 42 37 31 28 26 24 26 28 33 34 32 32 34 34 27 28 24 22 21 21 24 24 20 19 19 19 20 20 20 20 21
73 76 73 70 68 68 64 65 66 66 63 61 60 62 62 58 54 50 49 50 50 52 55 52 50 48 45 42 40 38 36 36 36 37 38 39 35 35 31 31 26 21 19 24 21 19 20 19 20 21 21 21 22 22
79 81 76 72 70 70 66 62 63 67 67 64 62 62 64 63 57 51 51 50 49 52 49 50 48 46 45 45 45 45 46 45 44 47 48 45 42 38 37 34 20 18 18 19 19 20 20 21 22 22 23 23 24 24
84 83 78 72 68 65 63 60 59 65 69 67 67 61 65 62 60 58 55 53 51 52 53 51 48 48 45 46 48 51 50 51 53 54 52 49 48 48 49 40 23 19 20 21 22 22 22 23 24 24 24 25 24 22
82 81 76 72 69 62 58 55 52 53 60 65 64 64 64 62 60 60 60 55 54 56 54 55 50 46 46 49 50 52 52 53 53 52 54 56 54 55 54 37 33 26 24 22 24 27 26 26 25 26 26 24 22 19
79 77 71 64 62 59 56 54 52 50 52 55 60 63 60 58 58 59 61 62 59 59 61 58 54 55 48 48 50 51 55 55 55 56 54 54 53 51 39 35 32 30 30 28 26 24 27 28 27 27 27 24 22 21
66 65 58 52 50 49 48 48 47 50 53 58 62 66 60 56 59 62 62 61 63 64 62 59 56 58 52 53 56 55 57 57 57 55 54 55 46 38 33 33 35 36 37 36 31 28 28 28 30 29 24 24 23 21
54 51 51 49 45 44 45 45 42 43 44 49 56 59 58 57 58 63 68 67 67 66 63 62 61 62 60 61 61 58 62 60 60 60 59 56 47 38 35 35 34 32 31 33 32 31 30 28 27 26 25 24 23 26
42 42 43 42 42 43 40 44 46 47 51 55 56 53 52 50 54 56 63 65 67 66 64 66 66 68 68 66 65 65 65 63 63 60 60 57 43 38 38 36 34 31 28 27 28 29 28 26 24 24 25 26 29 30
36 35 34 33 30 29 34 38 43 45 47 48 50 57 51 48 52 60 62 62 62 61 61 63 63 63 66 68 71 75 75 70 64 66 62 53 45 41 38 38 34 31 32 32 30 31 31 29 28 30 31 31 34 37
27 27 26 26 25 27 29 36 38 43 48 55 52 50 44 47 55 46 43 47 50 58 65 70 71 75 78 81 83 90 83 80 80 77 66 54 44 39 38 38 33 32 36 37 34 34 33 34 35 36 36 39 42 42
21 18 19 20 18 17 20 24 31 37 47 49 56 49 47 41 36 37 43 48 51 56 58 62 61 60 69 82 86 88 88 85 79 73 63 52 51 53 51 49 46 45 45 45 44 44 46 48 49 51 54 63 71 68
21 21 20 21 20 22 21 24 32 48 48 53 47 40 41 39 36 35 36 41 50 55 62 63 67 74 67 65 75 70 73 68 61 66 59 59 63 65 67 67 59 52 51 51 51 50 51 54 55 54 56 60 67 82
24 26 24 26 28 28 29 38 48 51 54 47 36 28 30 34 35 37 41 45 49 57 65 69 72 65 73 79 75 69 62 51 54 53 60 67 68 70 69 71 76 73 59 49 53 54 54 56 59 60 58 62 72 88
29 29 29 37 40 41 42 48 52 55 53 38 36 27 34 31 33 37 50 49 51 55 59 72 78 85 84 73 55 41 43 46 49 49 50 59 70 69 69 71 73 77 71 66 66 68 72 72 66 60 60 68 79 87
33 32 36 45 53 60 58 58 58 55 39 36 31 37 39 36 33 34 43 49 55 65 72 80 84 74 61 52 50 50 48 46 42 46 60 66 69 69 66 68 69 70 74 73 73 72 72 72 72 74 78 83 84 84
43 44 46 61 70 71 71 65 59 56 43 39 35 36 38 33 30 33 34 42 50 70 75 69 60 54 52 51 59 58 54 57 68 65 55 64 68 69 67 66 62 64 71 72 74 76 75 77 80 82 87 91 92 92
50 46 57 73 83 82 78 70 66 59 56 52 45 48 47 41 41 42 44 47 53 53 47 39 36 33 34 38 47 56 65 69 65 65 61 52 49 52 51 53 63 68 69 72 77 81 83 84 86 85 89 91 90 90
58 66 75 85 87 92 87 67 70 66 68 61 64 68 65 57 58 62 59 59 57 50 43 39 36 36 37 40 44 55 60 62 63 67 68 69 65 54 52 55 59 61 70 74 79 79 78 81 84 88 89 88 89 89
77 84 88 87 93 92 82 72 81 72 74 57 59 66 59 59 65 60 68 67 54 41 35 35 32 38 54 55 51 43 49 50 58 68 69 63 59 49 48 51 65 63 58 67 70 69 73 79 84 88 91 92 92 90
88 93 93 96 94 94 88 89 79 72 67 64 61 57 56 49 53 67 66 51 41 32 28 29 40 47 50 48 40 39 40 50 60 63 63 61 59 57 57 52 50 57 59 64 69 69 69 77 87 93 92 91 91 92
97 96 96 93 97 98 97 88 78 76 67 57 68 73 63 63 84 90 78 51 36 27 36 40 44 51 54 50 42 38 42 60 73 70 55 69 64 58 59 69 65 59 59 63 65 71 70 77 86 92 93 94 95 97
97 85 83 82 92 93 89 80 72 68 71 76 78 68 65 80 89 91 69 41 32 38 41 53 66 66 58 52 58 57 63 73 65 58 50 56 60 69 74 79 81 77 75 68 64 72 74 83 87 94 95 95 92 88
98 87 73 63 67 74 81 74 72 81 80 81 72 72 83 93 84 56 40 40 46 47 61 69 73 83 84 79 79 78 74 72 71 57 50 57 63 60 60 67 73 82 84 76 74 76 80 86 91 89 87 83 82 83
76 72 72 65 73 69 74 77 85 89 81 77 85 87 88 83 78 69 67 70 77 77 82 70 66 70 67 71 73 63 62 69 68 58 50 56 57 53 51 51 55 71 88 82 75 80 82 81 78 81 82 80 78 78
67 56 59 65 72 79 83 81 74 65 60 71 78 76 68 56 45 49 48 54 61 61 59 55 55 59 56 50 52 52 54 60 62 44 38 42 41 43 51 49 47 58 75 87 84 80 81 82 78 81 81 78 76 79
52 56 76 73 79 81 64 62 58 54 64 72 71 68 57 47 46 47 46 48 52 52 54 58 50 46 43 47 42 40 44 39 35 34 28 26 33 42 51 50 46 52 69 86 87 86 85 82 82 82 81 81 81 84
69 75 78 71 68 55 50 55 73 76 75 75 76 79 60 49 43 42 46 45 50 55 55 52 47 41 36 34 39 39 28 26 28 27 25 25 30 38 41 47 47 50 69 81 86 88 87 88 88 88 87 86 86 85
64 66 64 69 60 47 63 62 66 71 71 85 83 82 74 70 54 39 35 47 50 50 45 44 45 35 33 33 33 33 27 25 27 27 27 26 27 32 38 50 52 52 65 76 81 88 93 96 93 90 89 89 88 87
74 73 75 77 68 56 54 74 79 73 66 68 65 64 66 62 62 54 44 43 44 42 42 43 40 33 31 33 31 30 31 28 27 28 29 30 31 33 36 45 49 52 60 68 77 87 95 97 97 91 90 90 90 89

GFSWCAN_prec_cthk_111.txt.gz
RH
37 39 42 42 40 40 43 46 50 52 55 56 53 53 53 54 53 42 30 23 22 24 22 22 21 20 21 22 21 23 23 28 29 30 31 30 31 27 27 25 31 33 40 44 47 51 40 18 19 16 12 14 14 15
41 43 46 48 45 46 49 47 51 53 55 58 58 54 53 50 52 53 53 51 45 34 24 21 24 24 23 24 25 25 22 24 26 31 32 29 29 28 28 26 23 27 24 30 31 28 19 20 19 18 18 19 19 19
46 44 48 54 56 57 57 54 55 52 57 58 59 59 54 54 52 49 50 51 52 52 51 46 40 35 29 26 26 26 24 23 26 27 31 32 33 29 30 29 24 21 21 23 22 15 17 18 19 20 21 21 22 23
55 56 58 62 63 63 64 59 56 57 61 61 58 59 60 57 54 52 50 49 51 50 52 47 50 51 51 47 41 41 38 36 34 33 34 37 36 27 28 24 25 22 22 22 22 16 17 17 20 20 21 22 22 23
66 64 62 64 64 65 70 71 66 61 63 65 64 58 59 59 57 54 51 49 48 50 50 48 47 48 48 47 46 48 50 52 50 51 51 53 49 45 38 36 30 28 23 26 21 17 19 18 20 22 22 23 23 23
63 65 75 74 77 74 73 75 72 66 63 66 67 64 62 60 58 57 53 52 49 49 48 49 45 45 44 45 41 45 48 48 50 50 52 50 48 48 51 54 40 33 30 28 25 22 21 20 21 22 23 24 25 26
85 86 86 78 77 75 76 74 71 64 60 60 63 65 66 64 61 60 57 53 55 55 53 51 47 48 46 46 47 47 48 50 51 53 53 52 52 53 53 55 35 34 33 34 32 30 27 25 25 25 25 26 26 27
82 80 83 84 80 75 72 74 70 60 55 54 57 62 64 63 59 57 59 61 59 58 58 57 52 49 48 49 50 51 51 51 53 53 54 55 54 55 52 41 35 34 32 31 31 33 33 32 31 31 30 28 27 28
92 90 88 89 83 77 73 70 64 55 51 50 54 58 58 57 57 59 59 58 59 59 62 60 58 55 51 51 52 54 56 58 58 58 58 56 55 54 43 38 36 34 36 36 35 35 36 37 35 34 33 32 31 30
92 90 88 84 82 77 71 65 59 54 53 56 60 61 66 63 63 62 59 60 59 60 60 58 60 62 57 58 57 58 60 59 61 59 59 60 51 42 39 39 36 35 35 32 33 35 36 35 36 35 36 38 35 30
77 76 74 71 66 63 62 60 59 59 53 55 55 53 53 53 52 52 54 56 60 60 57 58 56 58 57 60 61 63 66 64 64 63 64 61 54 44 41 38 36 36 35 31 32 31 31 31 31 31 33 33 33 29
59 58 58 57 57 58 58 61 65 60 60 62 58 58 52 48 52 55 61 62 60 59 59 59 57 59 61 61 62 65 65 63 62 61 64 61 51 44 43 38 37 34 34 33 32 31 32 33 34 35 35 35 35 34
53 51 48 47 47 48 49 50 56 60 60 60 57 53 51 52 56 60 60 57 58 56 56 57 57 60 57 56 58 64 69 67 64 66 63 57 47 43 41 41 39 33 32 34 34 34 33 33 35 36 35 34 33 32
43 42 43 43 42 42 43 45 47 52 51 56 60 58 52 53 51 47 47 49 50 54 55 60 62 61 62 65 68 74 66 67 72 70 61 56 48 51 51 53 55 55 49 41 41 44 45 48 50 50 49 52 55 58
38 37 36 35 34 36 38 38 41 51 56 56 54 54 49 45 46 46 46 47 51 55 58 61 61 60 60 64 66 65 62 61 60 56 51 49 53 56 61 65 66 65 62 62 61 55 52 52 53 56 57 57 56 58
36 36 33 31 34 37 35 35 39 47 51 50 47 46 47 41 37 36 38 41 45 46 48 52 61 63 65 67 64 63 65 56 36 31 39 47 51 56 63 61 59 61 63 67 68 67 66 61 57 58 62 60 63 64
36 36 31 32 32 34 38 36 39 43 42 44 38 33 35 33 31 32 36 36 40 43 54 62 69 66 67 68 63 57 46 28 30 39 46 50 57 64 64 56 50 49 52 62 68 71 73 76 73 72 74 79 77 74
32 31 32 36 40 41 45 50 53 51 45 35 32 30 32 33 32 31 35 35 37 42 47 56 59 66 66 57 46 35 36 46 52 47 44 49 49 48 56 54 49 47 46 49 57 65 68 70 71 74 78 78 76 74
37 36 36 44 57 61 58 58 54 51 38 33 32 35 37 34 31 32 36 37 39 45 49 56 67 55 45 42 43 43 51 54 56 51 50 47 50 55 51 45 41 40 44 54 64 64 66 67 67 72 77 79 78 81
45 45 46 50 64 73 71 67 59 55 42 35 33 33 32 28 29 30 31 32 38 51 53 49 41 39 42 38 41 41 44 41 46 49 42 45 51 45 43 46 41 45 46 46 49 58 63 56 67 72 75 80 83 83
58 51 56 68 77 84 84 76 66 56 50 46 37 40 37 34 34 37 38 41 52 55 55 45 43 38 31 28 30 35 42 43 45 53 52 47 39 40 44 45 56 53 50 49 46 45 52 55 61 71 71 72 76 78
60 67 70 77 84 87 88 84 76 70 67 60 59 57 50 46 41 37 35 52 49 43 42 45 43 44 49 55 54 53 48 45 47 49 53 50 44 40 39 46 51 52 52 48 44 42 44 54 54 57 66 69 75 77
80 83 88 90 95 94 90 80 86 81 80 68 66 69 60 53 43 39 53 44 37 35 36 35 35 43 54 49 47 43 36 40 44 48 49 44 44 43 40 48 54 53 50 42 50 52 47 49 58 61 67 77 77 78
96 98 97 96 95 93 86 88 81 78 73 71 68 62 57 47 42 51 52 40 32 32 33 36 52 56 50 48 45 38 34 41 52 50 45 44 50 53 57 51 51 55 55 54 61 67 68 59 60 67 75 82 83 84
99 99 97 94 90 91 91 88 85 84 75 68 71 69 58 52 63 67 63 43 32 33 37 46 57 63 66 59 51 50 46 54 62 58 41 61 68 57 51 53 49 48 50 56 73 90 89 81 65 71 75 76 84 90
98 93 92 79 72 74 77 83 77 75 82 83 81 73 70 81 90 87 56 36 39 40 43 55 69 74 67 62 69 67 68 77 74 83 81 81 77 66 54 51 51 52 61 60 59 60 73 88 76 71 74 76 90 95
98 85 69 61 62 65 71 68 69 83 88 91 77 74 84 93 86 55 39 43 48 44 56 69 71 78 75 67 67 70 80 82 88 86 75 70 65 68 67 59 52 54 58 59 55 54 61 85 85 80 83 85 89 93
87 74 69 62 71 67 75 81 78 72 61 55 67 78 76 62 47 38 40 37 45 47 56 55 59 66 73 79 66 54 61 71 72 71 66 58 55 58 62 64 50 48 51 55 57 54 58 79 86 82 88 89 90 90
64 58 68 70 74 79 78 69 62 51 45 57 66 61 55 51 53 50 41 40 43 47 47 48 50 58 61 59 62 56 55 57 54 51 52 48 44 45 52 44 38 39 43 50 56 58 59 73 90 90 88 88 90 90
48 59 69 66 73 74 55 59 58 49 58 70 75 72 65 55 47 50 55 53 55 56 52 52 54 58 56 55 55 50 46 47 43 43 41 35 30 34 35 31 29 32 40 49 54 55 59 69 85 92 89 90 92 90
58 67 71 70 70 63 57 53 68 74 66 61 63 78 66 50 48 47 52 54 62 66 65 57 48 45 45 42 49 49 39 33 38 36 34 30 29 32 30 27 27 29 36 42 51 56 62 69 81 92 94 95 95 94
65 69 72 73 59 50 67 64 67 72 64 63 56 50 53 58 57 44 35 49 56 56 51 50 45 34 27 32 40 42 39 36 37 35 33 32 33 33 31 29 29 30 31 38 46 54 63 73 81 93 98 97 95 94
63 65 72 79 77 76 76 90 79 70 64 62 54 58 60 67 72 56 60 60 56 48 46 49 45 39 35 38 40 37 38 37 33 32 33 36 38 37 35 33 33 34 34 36 45 51 59 71 82 94 98 98 94 97

GFSWCAN_prec_cthk_114.txt.gz
RH
36 38 39 40 40 38 37 38 39 40 44 46 54 54 52 47 47 50 52 50 41 27 19 21 23 23 24 24 22 23 23 25 28 28 30 29 31 27 27 25 33 35 43 47 48 52 41 20 21 20 17 16 17 18
43 43 46 46 45 44 40 39 43 44 48 49 50 56 56 54 49 46 48 49 50 52 50 47 39 26 23 25 26 25 22 25 24 29 31 30 30 31 29 24 25 28 24 30 32 27 18 19 17 17 18 19 20 21
46 47 48 49 50 49 45 47 47 50 53 50 50 52 58 58 57 54 49 47 48 48 46 45 48 47 45 44 43 40 33 32 31 29 30 32 32 31 33 32 25 21 23 26 24 17 18 17 17 17 17 19 20 21
52 52 52 54 54 55 53 53 53 57 58 56 54 54 56 60 60 57 55 50 46 46 49 44 46 48 49 49 49 48 46 46 49 51 50 49 47 40 43 40 41 34 31 30 31 26 23 21 20 19 20 21 22 22
59 55 58 61 62 61 60 56 61 62 62 61 61 62 61 61 61 59 56 52 51 50 49 46 45 45 45 44 45 46 49 49 49 50 52 52 49 47 45 46 48 42 40 40 36 33 32 32 30 28 25 25 26 25
64 65 68 69 68 68 67 65 63 64 67 65 64 64 63 64 65 65 58 55 53 53 51 49 46 46 46 45 45 44 46 49 50 50 51 49 49 49 51 51 39 38 37 36 35 34 33 32 32 32 32 30 30 30
63 64 66 69 68 63 67 67 70 68 65 65 61 64 60 61 65 67 64 60 58 54 55 52 50 50 49 47 47 49 49 50 52 54 55 55 54 55 56 54 41 38 38 37 34 33 32 33 35 35 35 36 36 36
74 73 80 75 75 77 76 74 75 69 65 62 61 62 59 61 60 59 59 62 63 62 62 61 58 56 54 53 53 54 54 55 55 56 57 57 55 58 58 45 42 40 37 33 32 34 35 34 35 37 39 39 38 37
81 78 76 78 78 77 71 67 68 70 68 62 63 65 62 56 57 57 58 59 61 61 63 63 61 60 59 60 58 58 59 62 62 64 62 60 58 58 48 46 42 39 40 38 36 33 34 37 37 39 40 40 38 37
84 83 87 87 85 83 83 80 76 72 72 68 63 67 63 59 59 60 59 57 57 56 58 57 58 58 54 56 59 60 61 60 60 61 60 61 55 45 41 39 39 37 35 34 34 31 30 30 31 32 34 35 37 37
94 95 96 93 89 84 81 79 75 74 72 70 67 65 65 66 61 60 60 63 64 64 63 61 60 57 55 55 56 57 61 59 61 60 62 59 50 40 37 37 34 32 30 30 32 31 31 32 33 34 36 37 37 37
85 83 82 79 77 74 72 70 70 68 69 72 71 72 69 65 67 69 69 70 67 62 61 62 60 59 60 59 58 61 61 60 64 60 62 58 47 40 41 39 38 40 42 37 32 32 33 34 37 39 38 37 36 37
73 70 67 64 62 62 63 63 66 65 67 67 68 67 66 68 73 71 69 71 69 63 62 62 61 61 61 59 56 56 60 61 58 63 61 51 41 41 44 45 48 51 53 53 54 54 51 50 49 48 45 44 48 50
65 62 62 62 61 57 53 53 55 60 62 65 70 69 64 66 60 59 60 60 59 61 59 59 61 60 60 60 61 67 65 66 70 69 51 45 40 46 51 57 55 56 59 57 55 59 64 62 59 57 53 59 61 63
57 52 49 48 47 47 47 48 51 56 64 64 65 65 61 56 59 61 62 62 62 61 60 61 63 61 62 61 61 62 63 62 62 47 44 41 46 46 53 63 59 50 45 39 43 46 53 59 60 57 65 71 73 73
49 46 45 45 47 47 46 45 50 56 64 59 59 59 53 53 50 54 56 56 55 52 51 53 56 54 54 57 59 58 60 53 34 33 31 29 31 41 42 41 52 51 46 41 38 40 43 47 52 55 66 72 74 75
48 48 47 46 44 47 52 52 53 58 57 57 53 48 45 43 42 47 47 49 49 52 55 57 62 54 57 63 60 54 41 29 27 28 25 25 39 46 43 38 36 42 39 34 32 34 36 42 46 48 54 62 65 60
38 38 39 41 43 45 51 53 53 53 52 45 45 43 44 43 42 39 38 38 39 41 41 48 50 54 54 46 33 29 28 28 27 30 37 38 41 36 34 33 34 37 36 32 33 34 35 39 43 44 47 54 63 69
41 41 40 42 44 48 51 56 61 60 47 45 42 43 44 42 36 37 34 33 33 36 44 56 61 50 39 31 30 30 32 35 38 37 34 32 39 35 33 37 41 37 30 26 31 36 39 42 46 45 42 45 49 52
52 50 47 51 56 60 64 62 56 55 45 39 38 39 38 33 32 33 33 34 36 50 60 58 44 38 39 30 31 33 34 37 39 36 29 25 26 28 30 32 33 29 28 26 27 36 42 47 53 52 51 49 47 47
69 71 75 78 77 73 70 67 60 54 50 47 41 44 43 38 36 35 33 34 50 57 54 39 35 32 31 28 29 35 39 43 44 45 41 39 38 40 38 35 32 34 32 32 33 37 55 52 52 56 54 51 50 50
72 77 78 82 86 85 77 64 65 67 69 60 55 54 53 50 46 42 40 49 52 42 36 36 35 33 30 34 36 33 36 45 44 45 49 53 49 41 36 36 36 35 36 40 41 47 52 51 51 56 54 52 54 55
88 87 91 91 91 89 71 62 65 59 69 64 60 65 59 56 48 45 51 46 38 29 33 38 34 32 38 37 39 43 44 45 43 44 47 47 42 41 36 34 37 42 46 42 48 46 45 40 44 58 68 71 74 69
99 98 97 97 95 89 75 71 65 65 70 67 66 65 62 52 56 61 62 46 37 38 38 35 38 43 44 47 45 40 38 42 48 49 52 53 51 45 52 49 45 51 51 57 59 50 47 46 46 53 64 73 81 78
99 99 98 98 87 82 75 71 69 71 66 61 72 80 69 68 75 70 69 54 36 40 41 41 41 44 51 48 46 49 48 54 61 74 60 72 78 73 61 61 58 54 60 63 66 50 55 59 64 61 58 59 80 84
98 97 97 80 71 71 72 72 71 68 74 80 78 68 61 72 82 84 54 35 39 39 37 38 44 51 55 57 65 63 59 67 78 82 66 74 82 86 71 66 70 68 69 76 72 59 64 66 66 62 58 67 79 88
98 91 80 73 71 73 78 71 66 77 80 76 60 63 77 87 79 53 43 40 42 41 43 43 46 53 58 58 61 68 71 69 72 75 68 70 72 75 83 83 76 64 59 66 66 62 55 53 56 62 62 70 82 92
88 77 71 63 75 70 76 79 77 72 64 59 71 78 78 71 57 49 46 43 42 43 47 47 49 51 53 52 52 52 51 56 64 69 65 57 52 57 65 64 64 61 58 61 56 51 46 48 53 62 67 71 84 95
67 61 70 74 75 80 75 70 69 59 53 60 69 68 62 56 53 51 43 43 49 52 50 45 43 45 50 48 46 44 40 43 54 60 58 49 39 46 53 51 48 47 48 50 49 47 42 44 51 60 67 73 84 96
62 63 71 69 74 78 65 63 60 55 62 70 71 65 60 54 44 42 45 44 47 48 45 47 45 47 51 52 46 38 37 40 45 49 50 46 41 38 46 46 38 35 40 39 39 37 33 40 50 56 64 71 86 96
52 60 68 70 67 54 51 55 64 62 57 55 54 64 55 52 41 35 44 45 47 49 52 47 44 47 54 53 56 55 44 34 44 47 48 46 41 38 38 38 33 29 30 33 35 31 33 41 47 52 63 70 86 96
58 59 63 65 51 43 56 53 59 61 58 60 57 61 63 71 58 37 56 70 78 76 67 71 68 58 56 57 51 51 49 43 38 37 40 43 41 36 35 32 30 29 31 34 33 31 32 42 49 57 64 73 89 96
59 57 57 62 63 63 65 84 75 67 61 62 61 65 69 76 74 61 72 82 83 84 84 83 80 73 65 62 59 55 56 50 39 36 38 40 40 39 38 33 31 34 39 40 39 37 37 41 48 55 62 74 89 97

GFSWCAN_prec_cthk_117.txt.gz
RH
40 38 37 37 35 36 37 38 37 39 40 41 42 45 44 48 49 48 47 48 50 49 46 41 36 28 25 24 23 23 24 26 29 29 29 29 31 29 29 26 33 36 43 46 48 52 37 19 20 19 17 16 18 18
49 48 42 40 41 40 42 42 40 41 44 45 44 46 49 48 48 52 51 50 47 46 47 46 48 47 45 36 32 31 28 26 25 30 31 30 30 32 29 25 28 31 29 32 33 29 20 21 20 20 21 22 21 20
54 52 52 48 45 46 45 45 42 47 50 47 47 50 50 51 50 52 55 54 50 47 45 44 45 45 46 49 50 49 49 46 42 41 43 46 45 42 43 44 41 38 34 36 32 31 33 33 32 32 32 31 29 27
59 56 54 54 52 49 49 48 49 50 51 52 52 52 55 56 55 55 52 50 49 50 52 46 44 46 46 46 47 49 48 47 49 50 49 50 49 44 43 40 41 39 39 39 39 36 33 32 33 32 32 31 30 30
63 60 57 56 57 55 54 54 53 54 57 59 60 58 60 60 62 61 58 53 54 56 55 53 51 48 48 47 46 47 47 47 48 48 50 52 50 50 48 49 48 43 41 40 39 38 37 35 33 33 33 33 32 33
67 66 65 63 61 63 62 59 58 60 61 60 62 59 59 62 61 62 60 58 58 61 56 54 52 55 53 51 47 47 48 50 50 51 52 52 51 51 53 54 41 41 41 42 42 41 38 33 31 32 34 34 35 34
73 74 74 69 68 70 65 64 65 64 63 61 60 58 58 61 60 62 61 61 59 60 60 60 56 55 56 53 50 50 50 50 51 53 56 56 57 56 57 57 45 45 46 45 42 41 38 34 34 35 36 34 36 38
75 76 75 73 72 71 73 73 67 63 67 63 62 61 64 61 59 59 59 59 58 57 61 64 62 60 60 60 59 59 60 59 60 59 59 59 59 61 62 52 49 47 42 38 38 40 40 34 30 30 34 35 37 39
86 85 83 75 70 69 71 68 70 68 72 66 60 58 62 63 64 63 62 59 58 57 60 62 63 60 58 59 59 60 62 64 63 65 63 60 57 57 48 43 38 36 34 29 27 28 28 29 28 27 27 29 31 31
90 87 87 86 87 82 76 75 69 71 72 71 70 67 66 70 72 67 66 64 61 61 61 58 61 62 57 58 59 60 62 62 61 60 59 59 52 44 39 32 29 29 30 32 32 30 28 27 28 28 30 33 34 35
97 93 90 89 86 81 74 76 79 78 76 76 73 71 73 73 71 66 65 67 70 69 66 65 65 66 64 63 62 63 65 64 62 60 60 58 52 40 33 35 40 43 45 44 42 40 37 35 33 33 33 35 37 37
99 96 93 90 91 88 83 80 81 79 78 76 74 74 73 71 71 73 73 75 76 75 74 77 74 72 71 68 65 65 65 64 64 61 62 57 43 36 41 45 49 47 45 47 47 47 47 46 45 46 45 44 44 47
98 97 96 94 91 87 83 80 79 81 77 73 70 71 69 72 76 72 72 75 78 74 75 75 74 74 73 71 71 69 67 64 61 65 59 46 39 40 45 46 48 52 51 49 47 45 45 42 44 46 47 45 47 54
89 85 81 78 76 74 72 75 75 77 76 73 72 71 70 74 68 70 70 71 72 75 76 75 76 76 75 71 69 73 69 70 72 71 52 43 42 46 53 53 49 44 40 38 37 39 43 42 38 38 41 41 40 38
80 79 77 75 73 71 68 66 67 69 70 66 66 70 70 64 66 68 71 74 78 79 76 76 74 70 70 70 70 73 74 70 67 51 43 43 47 50 49 46 41 35 33 30 24 23 26 29 29 27 28 29 37 43
70 67 65 63 61 57 56 58 59 62 64 63 62 64 58 61 59 66 76 82 83 78 72 68 66 63 58 59 64 62 61 54 36 36 42 47 47 43 36 35 29 24 28 34 33 30 28 28 27 25 25 30 33 38
64 61 59 57 57 60 58 59 61 62 62 63 59 54 55 54 54 57 61 64 66 66 66 67 70 65 63 66 64 57 47 32 31 34 33 32 28 21 19 23 29 31 32 36 35 32 29 26 26 26 24 28 36 37
58 58 59 59 59 63 64 61 59 58 59 57 55 51 51 49 43 42 44 50 55 55 56 62 59 61 61 53 45 35 32 31 32 33 31 26 26 24 23 21 20 21 21 25 30 26 25 25 22 21 24 27 34 39
52 51 51 51 50 48 51 53 53 55 51 50 49 49 48 45 42 41 40 42 43 45 49 55 58 55 42 33 34 34 33 35 35 30 25 21 24 25 25 27 27 24 22 22 21 20 20 21 24 28 31 34 39 43
53 52 53 52 49 48 47 49 48 48 43 39 38 39 41 38 37 36 37 38 42 53 57 57 46 40 39 32 31 30 30 30 32 31 23 20 23 27 33 36 33 29 29 28 25 24 24 26 32 35 37 39 39 45
69 63 63 60 62 61 59 57 55 52 50 43 38 39 39 36 37 39 39 40 54 58 56 45 38 34 35 34 31 33 34 33 33 31 26 26 27 32 36 37 35 34 34 35 32 26 28 34 36 34 33 32 33 43
81 86 84 84 80 76 68 62 61 60 56 49 46 46 45 43 42 39 41 49 52 48 46 44 43 42 39 37 36 34 33 34 30 28 30 33 38 40 41 43 42 39 38 36 34 36 42 44 37 37 38 38 41 40
87 84 86 90 89 84 72 63 63 59 64 50 49 54 50 46 40 42 51 46 39 34 41 45 43 40 40 38 39 38 37 37 37 37 37 42 45 49 48 49 52 54 51 42 50 56 55 45 42 44 49 52 50 47
98 98 96 98 94 87 73 67 61 58 57 51 51 53 52 46 48 53 49 38 34 34 39 34 34 38 39 41 44 43 40 43 45 47 51 56 56 54 58 59 58 56 58 58 59 64 58 49 52 58 60 60 62 65
99 99 98 98 86 80 72 66 61 63 57 55 63 62 54 52 59 59 52 38 33 31 32 34 37 39 46 47 46 45 49 53 52 63 63 62 63 65 58 54 62 74 69 72 72 70 65 71 74 68 64 63 63 67
98 98 96 85 82 75 68 68 67 65 66 70 64 56 54 64 71 71 49 33 33 35 38 40 45 49 48 48 48 45 42 43 47 51 47 51 63 69 64 56 52 59 67 78 80 72 69 64 62 58 59 54 54 59
98 95 86 75 74 71 74 69 65 70 68 64 58 64 76 84 76 50 42 42 46 44 44 46 48 49 46 45 46 46 45 43 42 39 40 44 48 54 57 61 58 51 58 69 71 70 67 61 58 62 52 47 49 58
90 82 79 71 74 71 76 79 77 68 60 57 66 71 74 67 52 47 46 43 44 48 50 46 43 42 41 42 42 42 41 36 36 41 44 43 38 39 44 56 62 54 52 58 60 57 57 56 50 55 54 44 47 55
85 71 69 73 73 73 71 64 60 54 52 60 72 68 59 51 49 44 40 47 46 47 46 42 40 38 41 38 39 38 41 42 48 47 45 43 34 28 39 47 58 55 50 48 51 55 50 45 43 49 49 44 44 55
65 60 66 65 69 70 51 48 47 47 57 60 65 63 57 42 33 40 45 46 54 60 60 58 57 60 59 57 51 45 44 44 46 54 56 50 41 37 47 46 54 54 53 49 44 44 48 45 41 42 42 44 47 56
55 59 61 59 58 47 43 47 59 60 59 55 53 59 44 41 38 52 60 62 70 71 73 72 70 74 78 72 72 74 63 52 57 54 54 52 48 45 44 39 42 50 50 47 42 38 41 40 39 38 39 45 53 59
50 52 58 58 46 43 53 51 53 53 50 52 51 57 60 65 44 54 68 78 75 74 78 84 83 73 75 80 84 88 92 90 84 72 65 62 53 48 40 35 36 44 47 45 39 37 36 38 42 44 46 50 54 59
54 57 58 59 55 53 58 75 68 63 58 58 55 56 57 64 64 61 70 78 81 81 81 82 84 83 83 88 90 85 86 83 76 81 72 59 51 47 42 36 36 40 44 41 38 35 39 48 50 51 50 52 59 65

GFSWCAN_prec_cthk_120.txt.gz
RH
40 36 36 33 35 36 35 34 35 37 39 39 39 43 43 42 43 43 46 48 46 46 48 50 48 48 45 37 26 23 26 28 29 28 29 30 30 29 29 27 36 39 45 47 47 52 33 21 23 23 23 25 28 28
45 43 43 41 38 38 39 38 40 41 41 41 43 43 44 44 45 45 46 47 50 49 46 46 46 47 47 47 41 40 42 44 39 35 37 37 38 41 37 31 35 40 40 43 45 40 31 32 36 37 37 36 36 35
53 50 48 48 47 47 48 42 40 43 44 46 46 46 46 47 48 49 49 48 47 49 50 48 48 47 46 46 47 47 47 47 47 46 45 47 47 46 46 45 39 39 40 41 38 36 37 36 38 36 38 37 36 34
60 58 53 51 52 51 52 53 48 46 47 48 49 49 49 51 53 53 53 52 51 50 50 48 48 49 50 48 46 48 48 48 50 50 48 48 46 44 45 42 41 39 40 38 39 37 36 36 39 38 34 33 33 34
68 65 60 56 55 59 56 57 53 52 50 50 52 54 55 54 56 56 55 53 53 54 54 51 51 52 53 55 52 51 51 51 49 50 51 51 49 50 52 52 49 43 41 42 42 41 44 40 38 37 34 34 37 38
75 67 66 64 59 68 60 60 60 58 56 55 57 58 57 56 56 56 55 56 55 56 53 55 53 54 53 53 55 57 56 58 56 53 53 51 51 50 54 55 44 44 45 46 47 46 41 39 38 36 34 34 35 35
72 73 71 69 74 69 64 67 69 66 65 64 59 60 59 59 59 55 57 57 58 57 54 54 56 58 59 58 55 54 55 57 57 57 59 60 59 58 59 58 47 48 50 50 46 40 37 37 34 30 29 28 26 26
84 77 77 78 78 74 70 73 74 73 71 68 64 63 61 63 58 57 55 56 57 56 57 59 58 57 58 61 62 62 62 62 63 63 63 65 64 66 65 53 51 49 43 38 37 35 32 31 29 29 28 26 25 26
90 88 81 78 80 79 77 78 79 81 77 77 70 62 66 65 62 60 60 60 60 59 61 63 62 58 59 59 59 60 61 63 63 65 64 64 61 60 48 46 42 38 40 39 35 35 35 33 31 29 26 25 27 28
94 94 92 90 88 90 83 82 81 76 72 68 67 67 68 67 67 67 66 66 66 69 67 65 68 65 58 62 64 64 66 68 68 65 64 64 57 48 46 41 36 35 35 39 41 41 38 37 35 34 34 36 35 35
95 97 89 86 90 89 89 85 81 81 80 81 74 73 74 72 70 67 66 66 68 69 71 72 72 71 69 68 69 69 73 74 72 70 69 65 58 49 42 42 43 45 46 48 48 47 46 42 39 37 36 35 35 34
90 93 98 97 98 98 96 92 91 92 90 84 83 84 78 72 71 72 70 71 73 71 74 78 79 81 79 75 75 78 79 77 77 72 71 67 55 49 49 49 50 50 48 47 44 41 40 39 39 37 35 33 33 34
97 99 98 98 98 98 98 97 96 92 95 93 83 77 72 78 81 74 72 75 77 76 77 79 78 78 80 79 80 80 79 75 73 73 66 56 51 50 53 54 54 52 49 46 43 38 36 34 32 30 29 26 24 24
97 97 98 98 97 97 98 98 97 97 96 87 81 78 79 81 75 75 73 77 77 78 80 81 77 80 81 81 81 82 79 76 75 74 62 58 54 58 57 57 55 54 51 49 47 44 39 34 33 26 23 21 22 21
98 98 98 97 96 95 96 97 97 96 91 82 81 81 79 76 76 76 76 78 80 83 82 84 86 86 88 88 80 75 73 71 72 65 60 52 49 50 52 52 53 53 51 48 40 27 20 21 20 22 25 25 24 21
96 96 95 92 90 88 88 89 92 90 84 78 74 73 72 71 70 69 74 77 81 81 83 83 86 84 77 72 68 66 66 64 54 53 49 50 52 56 58 55 54 47 37 28 21 17 17 18 18 16 16 19 19 21
89 84 82 80 79 81 79 81 82 80 74 71 68 67 68 68 65 64 70 76 85 91 92 91 86 70 63 65 65 60 57 47 42 44 42 39 36 32 28 25 22 20 19 19 20 22 21 19 18 18 16 15 18 23
76 74 72 77 75 74 76 74 69 69 71 68 63 58 59 57 55 53 51 60 65 72 73 76 70 68 66 61 57 47 42 40 36 35 34 33 30 24 20 19 17 17 19 19 23 26 23 21 21 21 21 21 23 30
69 71 74 73 74 73 72 70 70 68 67 63 58 54 53 53 51 50 49 51 53 57 60 61 62 61 50 42 39 37 36 37 36 34 29 24 23 20 19 20 21 23 22 22 26 28 26 24 26 28 27 28 32 32
69 73 72 64 63 60 60 62 59 58 57 54 56 52 49 44 39 38 38 41 46 53 58 59 52 44 43 38 38 36 32 30 32 32 27 25 26 27 27 28 26 26 26 26 28 27 25 27 27 27 30 31 36 32
68 74 73 68 69 64 63 62 60 57 56 53 51 49 45 40 38 34 30 38 44 48 47 37 32 29 29 29 28 29 29 32 35 37 35 32 31 36 32 30 30 30 32 32 33 31 35 38 38 41 39 40 43 40
67 67 72 71 65 62 59 58 56 57 55 52 52 50 47 43 38 33 34 37 36 30 30 29 30 32 30 28 28 32 34 38 39 41 39 39 39 38 37 34 35 35 33 33 37 40 43 50 49 51 55 54 50 46
87 83 79 78 76 68 64 58 57 55 57 51 49 50 47 43 37 35 37 32 27 24 27 31 27 26 29 28 33 35 36 39 42 38 38 38 35 34 37 39 43 41 40 39 47 51 56 66 60 57 61 63 59 58
95 96 93 90 83 81 68 65 60 56 55 53 51 50 47 41 43 47 44 30 25 26 26 25 30 33 33 36 39 35 31 36 41 37 36 40 42 36 40 43 44 43 44 47 53 55 61 71 76 63 65 75 76 72
97 99 98 92 81 76 71 71 67 61 53 53 59 59 52 51 57 55 45 29 26 25 27 31 33 35 41 41 41 39 36 39 40 41 34 35 36 39 38 33 34 36 42 50 61 71 60 60 68 66 76 77 70 59
98 98 96 87 81 78 75 78 72 63 61 65 63 56 53 63 63 55 34 26 30 31 34 36 41 43 44 43 44 40 36 39 45 45 32 32 39 43 41 39 35 30 36 54 62 63 68 63 69 65 67 70 71 67
98 98 96 77 70 70 83 77 71 72 70 66 58 59 67 75 62 38 29 30 39 41 43 45 45 44 43 41 39 38 40 44 49 46 46 46 45 44 45 46 44 36 37 49 57 61 69 62 62 64 60 67 67 60
98 90 82 77 78 81 84 85 82 75 65 56 60 60 63 57 44 33 35 36 39 43 43 38 37 41 41 42 45 44 42 47 47 49 49 46 40 38 39 42 38 37 38 38 44 48 56 57 53 58 56 57 53 49
94 90 90 92 92 93 91 80 68 53 43 49 57 53 45 37 34 36 36 38 38 43 47 48 46 49 51 49 50 54 59 63 67 65 63 60 49 37 43 47 46 44 41 39 39 43 49 54 50 52 52 52 50 46
86 86 90 91 89 83 66 61 52 42 45 47 46 44 42 35 32 40 41 45 56 61 60 61 55 59 63 73 74 75 84 89 92 96 95 86 72 65 60 50 46 43 43 45 43 43 51 60 54 49 45 44 46 47
87 84 83 82 75 55 45 44 46 44 39 37 40 47 38 34 32 39 50 53 60 57 60 65 66 72 80 82 86 86 79 82 91 93 94 94 91 91 91 82 65 52 51 53 51 47 49 58 56 53 43 40 43 49
72 67 64 60 49 41 46 42 38 38 39 43 41 43 41 54 51 40 42 51 58 58 63 66 69 70 76 80 82 89 93 93 92 94 92 90 89 92 94 90 78 67 58 55 53 46 49 57 55 48 41 44 50 54
61 58 55 52 41 33 31 50 57 56 50 50 47 49 53 62 56 44 51 52 56 61 65 66 66 70 75 83 93 96 96 94 85 76 79 83 85 90 88 80 75 67 58 53 50 45 50 54 50 46 47 54 58 59

GFSWCAN_prec_cthk_123.txt.gz
RH
41 41 42 37 36 36 37 36 34 33 33 34 36 40 44 44 41 42 42 45 46 48 47 48 47 47 47 46 42 33 29 30 33 28 27 29 29 29 29 29 38 40 47 49 50 55 36 27 29 29 30 35 37 38
52 44 42 45 41 41 40 40 38 36 37 37 38 40 44 45 45 44 46 46 45 46 48 49 49 48 47 46 45 44 42 44 46 43 41 43 46 46 41 35 40 39 39 42 44 41 35 36 36 37 39 39 37 33
69 53 49 49 47 48 47 47 44 41 40 39 41 44 46 46 48 48 51 50 48 47 47 49 51 50 50 49 48 47 46 45 46 47 48 48 46 47 47 47 41 39 38 41 38 37 37 36 38 40 40 37 34 33
87 68 54 54 54 51 51 51 49 47 47 47 47 49 48 49 51 54 54 55 51 50 51 51 49 49 50 49 49 50 51 49 50 51 50 50 47 43 44 43 43 40 41 41 41 38 39 41 43 40 37 35 33 33
94 78 69 61 72 56 56 54 52 51 51 51 52 53 53 53 52 56 56 54 53 52 53 51 50 52 52 52 52 53 56 58 57 54 53 52 50 50 51 51 51 44 44 44 46 45 49 45 39 38 36 35 32 30
93 93 71 74 79 64 60 62 57 55 55 54 55 55 55 56 54 56 57 55 54 56 51 53 52 51 52 53 53 55 58 59 58 58 57 56 57 56 55 55 49 50 47 47 47 49 45 38 37 36 34 33 32 32
94 94 84 79 74 74 65 70 65 61 60 68 60 59 57 61 64 60 58 57 57 55 52 52 55 56 55 55 56 56 57 59 60 60 61 62 62 61 61 60 52 52 51 50 47 41 40 41 39 38 34 31 27 25
96 96 89 80 80 77 79 75 72 73 68 72 66 64 61 63 67 64 62 60 57 55 54 57 57 54 58 56 57 60 61 61 63 63 66 67 66 66 65 57 56 53 44 40 39 38 35 34 35 34 33 31 31 32
98 98 94 88 84 86 86 75 79 76 82 77 74 73 70 65 64 64 63 62 61 57 60 62 63 60 60 62 60 60 60 61 62 64 65 66 65 64 57 56 53 45 45 45 43 41 41 41 40 39 39 38 37 36
98 97 94 95 93 87 91 89 84 86 80 78 80 80 77 66 62 65 65 64 66 68 63 63 68 67 63 64 65 64 65 67 68 69 71 73 68 60 58 53 49 48 48 47 45 43 44 45 44 43 41 37 33 32
97 95 96 96 93 95 95 95 93 91 85 86 86 84 81 72 70 69 70 67 66 67 68 69 69 70 69 68 70 71 72 73 74 72 74 72 69 62 61 56 56 54 51 48 46 46 46 46 44 43 39 33 30 30
98 96 97 97 97 96 97 97 98 97 92 90 82 81 81 84 85 82 75 74 73 70 72 75 75 73 73 72 74 79 79 79 80 79 79 75 66 58 58 57 55 54 53 52 51 50 47 45 43 41 38 36 34 31
98 98 98 98 98 98 97 98 98 98 96 95 97 94 90 90 89 80 72 74 73 73 76 78 79 79 79 79 81 84 85 85 82 83 77 70 62 62 60 59 60 58 55 53 49 47 45 44 42 38 35 31 24 19
98 98 98 97 99 98 98 98 98 98 98 97 94 94 88 87 80 76 73 74 75 77 80 81 82 82 82 81 82 84 83 81 81 77 70 63 60 60 57 55 54 52 49 49 49 49 46 42 38 36 34 29 22 16
98 98 98 98 98 99 98 98 98 98 97 96 94 93 88 80 80 78 80 83 85 84 83 85 84 84 88 88 84 85 84 81 74 68 60 56 56 55 54 51 48 47 47 47 45 41 38 37 36 30 22 18 16 16
98 98 97 97 98 98 98 98 98 97 96 95 93 90 88 84 84 82 84 82 83 83 86 87 88 89 90 89 86 83 80 73 63 60 54 51 51 52 50 49 48 46 43 38 36 33 31 27 23 18 18 17 18 19
97 96 97 98 98 98 98 98 97 97 94 90 88 83 80 85 84 81 81 86 89 88 90 91 89 87 85 84 82 79 71 61 51 50 51 51 51 49 45 38 31 27 24 22 21 20 20 18 18 17 16 15 18 19
97 98 97 98 97 96 96 96 92 90 89 83 79 78 81 77 68 65 67 70 71 72 71 75 75 80 80 74 69 61 58 54 49 45 40 37 35 31 29 27 25 24 22 20 20 18 17 16 16 17 19 18 22 24
90 92 96 96 95 92 88 89 82 79 82 80 73 69 71 71 68 65 62 60 60 63 67 71 71 68 60 54 51 46 43 39 35 31 29 27 28 28 27 24 23 22 21 21 20 18 18 18 20 24 26 29 35 33
85 95 94 89 86 82 81 83 78 76 77 72 65 65 62 58 54 51 50 51 52 54 57 56 50 39 38 33 31 30 28 28 30 30 28 27 28 30 28 27 26 27 26 22 22 22 22 23 25 31 33 40 49 42
94 95 87 82 79 71 69 70 69 68 64 64 62 60 60 55 53 50 49 48 49 47 41 33 27 25 25 25 24 24 24 28 32 37 35 32 28 34 32 29 27 26 27 26 25 24 30 36 40 40 44 50 61 57
87 90 83 79 75 70 68 68 66 65 63 63 60 59 58 56 52 49 48 47 43 30 27 24 22 20 19 18 17 19 23 26 29 31 30 32 34 29 30 29 29 28 28 27 28 35 38 41 47 47 51 58 68 67
75 81 82 80 75 72 70 66 62 60 61 59 57 55 52 50 47 43 42 35 26 20 20 19 18 17 19 18 21 23 24 25 26 25 26 27 27 29 30 30 33 38 36 33 40 45 48 45 44 52 57 67 68 67
85 85 85 83 76 73 66 64 61 60 58 55 53 50 46 45 45 44 38 24 18 21 21 21 22 23 23 24 26 25 24 27 31 31 30 30 35 33 33 37 36 36 37 41 43 43 40 37 40 47 54 65 75 72
99 98 96 86 79 72 67 65 61 58 56 55 58 55 53 51 51 46 36 22 20 22 20 22 25 28 31 30 31 30 27 31 41 46 32 34 41 40 38 39 39 35 38 38 37 40 36 37 37 41 45 57 70 69
97 95 85 74 70 63 59 63 62 59 61 69 70 66 64 64 60 48 34 25 24 22 24 27 29 32 34 32 33 34 34 35 47 46 31 33 41 46 44 43 39 31 33 39 41 43 42 42 39 38 44 51 66 65
98 97 83 69 67 60 61 60 63 64 69 74 77 77 75 75 63 39 28 25 26 26 26 29 34 36 36 35 39 38 39 42 46 47 47 50 51 53 57 57 53 45 48 43 45 48 47 43 40 40 44 44 54 62
98 94 81 76 81 75 78 77 76 78 75 74 80 85 82 74 48 32 31 29 31 28 29 31 33 38 40 44 49 54 54 59 62 68 71 69 71 75 86 89 85 72 69 57 56 53 50 49 45 42 41 44 50 61
97 96 96 97 97 95 89 86 81 75 72 79 85 82 69 49 37 36 33 27 24 26 28 31 35 44 47 49 52 55 59 63 72 76 77 72 69 72 91 87 84 86 89 83 70 63 53 49 47 47 42 43 50 58
93 91 90 86 89 88 83 87 83 80 78 76 72 61 50 40 32 27 25 22 24 26 38 45 40 45 48 53 52 52 62 73 79 84 84 78 76 82 88 91 94 95 96 97 91 78 64 54 51 50 47 48 56 57
77 83 88 94 96 86 79 78 80 77 68 59 53 50 37 31 25 18 21 26 35 45 43 40 43 50 55 58 62 58 51 63 76 83 92 94 91 88 89 87 88 93 94 96 98 94 78 60 56 54 48 51 57 54
87 90 91 92 85 71 71 66 60 56 46 39 32 27 30 36 37 24 25 35 40 43 40 43 45 53 64 66 69 74 75 75 77 84 91 94 94 88 81 81 86 90 92 94 96 91 72 63 57 51 48 51 52 54
85 81 82 79 70 61 52 53 48 40 33 30 28 31 38 44 37 27 29 35 38 38 44 54 61 65 70 74 79 86 89 88 87 86 91 94 89 78 75 79 83 86 90 93 91 79 66 60 54 49 50 52 54 54

GFSWCAN_prec_cthk_126.txt.gz
RH
81 55 43 44 43 36 34 32 33 32 31 31 33 35 36 38 41 41 40 41 42 43 47 48 48 48 47 48 44 42 36 32 33 29 22 23 24 24 25 25 32 33 36 38 40 42 35 29 30 30 33 36 38 39
95 84 64 45 44 46 46 44 39 37 34 34 35 35 36 39 41 43 44 45 45 44 45 46 49 49 49 47 46 45 41 43 44 42 38 37 38 40 37 33 40 38 36 37 38 35 32 33 34 36 40 40 39 36
94 94 84 67 52 51 48 50 47 42 38 36 37 37 37 39 41 43 45 47 49 49 47 47 47 50 52 51 50 47 47 47 47 45 45 46 43 44 43 41 40 42 42 41 39 37 37 37 37 40 41 39 36 36
94 94 95 84 68 64 53 51 52 51 46 43 42 43 44 46 47 48 48 49 50 51 51 49 48 49 49 49 48 48 48 48 49 50 53 48 45 45 43 41 40 40 41 41 41 39 41 42 45 42 38 37 37 35
95 95 94 96 81 74 66 58 56 55 53 50 48 48 47 51 51 50 53 51 52 52 52 51 50 51 50 51 51 51 51 51 51 54 55 55 51 48 49 48 46 42 41 40 39 42 45 46 41 40 40 39 36 36
98 95 93 93 95 80 79 69 62 60 59 58 55 51 52 54 53 54 56 55 52 53 51 52 51 51 51 51 51 54 56 57 57 57 57 56 54 54 55 52 48 50 47 46 48 49 49 42 38 39 39 37 36 34
82 94 96 96 97 93 80 80 74 70 69 68 57 57 56 56 58 57 57 59 59 55 53 54 55 54 55 55 55 55 56 58 59 59 60 59 59 58 59 56 52 51 51 52 52 47 45 43 42 39 36 35 33 33
74 95 97 97 97 97 87 89 79 86 85 73 62 66 63 60 65 68 63 61 62 59 58 58 56 55 58 59 59 58 58 57 59 62 62 62 63 63 62 55 56 56 53 51 48 46 45 45 43 40 39 39 39 39
69 79 96 98 98 98 92 92 90 92 86 77 70 76 71 69 71 68 64 64 60 58 59 60 57 60 60 62 63 63 62 62 61 61 61 63 62 62 55 55 57 56 50 49 49 49 47 44 43 42 43 44 43 42
71 86 95 99 98 98 95 97 98 93 92 84 85 87 80 74 74 72 66 66 63 61 59 59 61 62 60 64 67 67 67 66 67 65 67 65 60 57 57 59 57 53 54 55 52 52 51 50 48 47 47 47 45 43
67 81 87 95 98 97 94 98 99 98 93 95 96 93 88 83 81 81 80 74 71 67 65 65 66 66 65 66 68 71 73 73 72 68 71 68 65 62 63 62 59 60 57 54 54 54 53 51 48 48 46 43 41 41
71 85 97 99 98 98 96 99 97 98 94 94 95 94 95 96 95 89 84 79 73 68 69 70 73 73 73 71 71 75 76 76 77 76 76 72 66 67 66 63 64 59 57 56 54 52 49 49 47 46 44 43 42 40
72 95 95 98 98 98 97 99 97 99 99 97 97 97 98 97 96 90 80 76 78 75 77 77 78 77 76 75 77 78 81 81 79 78 74 67 65 61 63 62 61 57 53 50 49 48 45 40 40 40 40 39 37 36
87 99 99 98 98 98 97 99 98 98 99 98 98 98 96 96 91 83 77 76 76 78 79 80 80 78 81 82 83 86 85 84 83 78 71 65 62 62 60 55 53 52 51 51 49 45 43 41 40 40 38 35 32 28
98 99 98 98 98 98 98 99 97 97 99 98 98 97 95 89 86 83 82 83 82 81 82 83 84 87 88 88 86 87 87 83 76 71 66 65 62 59 56 53 50 47 45 45 45 44 42 38 36 31 28 24 20 17
99 99 98 98 99 99 98 98 98 98 98 98 97 95 93 89 90 90 85 86 86 88 88 90 93 92 92 90 88 87 83 77 70 70 66 63 60 58 55 52 48 46 46 47 47 42 37 33 26 22 19 18 17 17
99 98 98 99 98 98 98 99 98 98 97 97 96 96 96 94 93 91 88 89 92 92 93 92 91 91 92 92 88 83 79 74 71 69 68 63 60 56 48 45 45 44 42 40 36 31 26 23 22 20 18 16 17 18
99 98 98 98 98 98 98 98 97 97 96 95 96 96 97 93 89 86 86 90 91 93 94 93 89 90 87 82 76 70 67 64 59 54 49 47 46 45 42 37 34 31 30 28 27 26 25 22 21 19 19 20 23 23
98 98 98 98 98 97 97 97 96 95 95 95 95 96 96 88 81 78 81 82 82 81 79 76 74 73 66 59 53 46 43 41 37 34 32 31 31 32 30 29 29 28 28 26 25 24 23 22 23 22 25 29 32 31
98 98 97 97 97 96 97 97 95 94 95 92 87 84 84 84 81 75 69 63 59 56 57 55 48 42 38 33 31 29 29 29 31 31 30 29 27 26 23 23 24 24 25 23 23 23 23 23 23 26 32 33 36 37
97 98 97 96 91 90 92 95 91 90 91 89 86 81 75 72 69 64 61 57 54 51 48 40 34 30 28 26 25 24 24 25 26 26 25 25 21 23 23 24 22 22 23 23 24 24 27 26 26 31 40 42 37 35
97 96 95 94 88 83 83 85 81 82 80 82 81 76 73 68 62 58 58 56 52 39 34 29 25 23 21 20 20 21 21 21 22 21 20 19 20 21 21 23 25 24 25 26 27 29 27 27 29 31 37 41 38 34
94 88 82 80 78 76 84 80 77 77 75 74 72 67 66 63 59 57 53 46 35 23 23 21 19 20 19 18 19 17 16 17 18 21 22 21 24 25 23 24 26 29 29 25 30 33 32 32 33 33 34 37 37 34
87 87 83 81 80 83 82 81 75 74 72 69 65 62 58 56 55 52 45 35 23 21 20 19 20 18 18 17 16 16 16 20 24 25 22 25 28 26 28 30 28 27 26 32 35 33 36 34 36 38 39 39 36 36
79 81 79 79 76 72 74 73 71 68 64 62 60 56 55 53 51 50 42 27 25 25 23 23 22 22 21 17 16 17 18 21 28 31 22 24 35 37 36 34 34 32 44 53 51 52 46 46 46 45 43 43 41 38
87 84 75 68 69 66 67 68 69 64 62 67 64 58 56 58 58 50 35 26 29 27 27 26 24 24 22 20 21 20 20 25 32 35 32 39 47 59 58 56 54 45 77 87 84 78 71 68 65 57 49 46 46 47
95 76 67 63 61 60 62 64 65 63 61 64 65 65 68 67 61 40 29 35 34 33 31 28 28 28 26 22 20 23 25 32 43 46 44 44 52 66 73 69 65 65 74 85 90 92 91 88 87 70 57 49 47 49
95 84 74 70 66 64 71 72 72 74 76 74 73 75 77 68 49 41 44 42 38 33 30 28 26 23 21 20 24 29 36 45 49 53 50 46 54 62 71 73 79 81 84 89 93 95 97 94 92 89 72 54 48 52
95 93 86 89 89 85 80 78 73 71 73 75 74 69 61 54 49 48 41 37 32 29 27 23 20 22 25 28 33 37 42 50 53 51 52 47 45 53 70 71 76 84 92 96 95 97 97 97 95 96 90 67 52 52
87 89 92 93 97 94 84 79 71 75 77 73 69 65 62 55 47 44 37 30 28 24 26 31 31 42 38 36 34 34 40 47 57 65 69 63 61 66 69 75 83 92 95 92 87 84 86 89 93 96 96 85 59 52
68 79 84 91 90 78 78 83 81 78 78 75 74 70 57 50 37 27 22 18 22 32 36 35 36 36 37 39 42 43 45 55 68 76 83 83 81 77 77 82 89 91 88 83 85 88 90 90 92 96 97 86 62 54
71 67 69 72 69 69 75 75 73 70 62 57 51 46 40 38 32 20 14 27 34 41 39 38 38 39 42 45 53 60 65 69 76 80 85 90 93 89 86 88 93 89 84 81 84 89 95 97 98 97 85 68 58 52
86 88 86 78 71 65 64 69 65 57 49 43 35 31 29 32 31 22 29 38 41 38 36 39 44 47 50 57 67 74 79 83 85 87 91 96 97 93 91 88 90 87 78 77 80 85 89 92 88 75 66 59 52 52

GFSWCAN_prec_cthk_129.txt.gz
RH
94 93 86 56 46 37 32 32 37 31 28 26 28 30 32 33 37 38 40 40 40 42 41 42 46 48 47 46 45 46 42 33 30 31 24 21 21 20 23 22 28 28 31 33 34 35 34 25 24 24 27 31 34 36
96 94 93 89 68 53 45 40 42 44 33 31 31 32 33 34 36 38 41 42 43 44 46 44 44 47 49 47 46 47 44 42 45 43 39 31 29 30 29 28 33 34 30 30 32 33 33 33 33 34 35 38 38 38
94 96 94 93 91 73 56 48 46 42 45 43 41 38 37 36 36 38 42 45 45 45 49 49 47 46 48 51 51 50 48 45 47 46 46 45 46 42 39 39 38 41 42 40 39 37 38 37 37 37 38 39 38 37
95 96 96 94 93 91 79 65 57 44 48 46 49 45 43 40 40 41 43 45 49 47 49 52 49 48 45 47 49 50 49 47 48 49 49 47 45 46 43 42 41 41 40 39 38 37 37 38 41 41 41 40 39 39
94 96 98 96 94 95 89 78 74 65 53 54 48 50 50 48 46 46 48 52 52 54 53 51 50 50 49 49 48 49 50 52 52 53 53 53 50 50 51 49 44 42 40 40 38 40 43 44 46 44 44 44 41 39
81 93 97 97 96 97 95 88 78 73 69 67 60 53 53 54 55 53 52 53 55 57 57 55 51 51 51 50 50 51 50 52 54 56 57 56 55 56 55 51 45 45 44 44 46 48 50 50 47 45 44 41 39 36
71 76 93 97 95 97 97 94 90 83 76 74 75 64 58 58 59 58 56 56 60 60 59 60 59 54 53 53 53 53 54 56 55 56 56 57 58 58 58 53 49 48 49 50 49 50 49 48 48 46 43 42 39 37
58 65 76 89 87 92 98 97 94 90 85 83 81 76 68 66 68 64 60 60 62 63 63 66 64 60 60 58 56 55 57 59 59 59 58 57 59 61 60 51 52 52 53 54 54 51 50 48 46 44 43 42 40 40
38 52 64 78 79 81 96 98 98 93 96 90 87 83 80 77 77 72 67 69 66 67 67 64 66 67 61 62 60 60 60 62 61 62 61 60 58 57 49 51 51 53 53 53 52 53 53 52 52 51 51 48 44 44
26 40 50 64 66 72 83 97 98 97 99 96 95 89 86 87 87 79 73 73 70 66 66 63 66 66 63 62 62 62 63 64 65 62 65 65 58 52 50 52 55 57 55 56 57 56 55 55 53 51 50 49 49 49
22 25 35 48 57 70 76 89 99 99 98 95 93 96 90 94 89 83 78 75 74 71 69 69 67 69 68 67 66 66 72 71 71 70 68 65 61 58 58 59 59 60 60 61 61 61 58 55 54 54 53 50 47 42
24 26 28 38 53 67 79 87 99 98 97 95 94 97 98 97 95 94 86 83 80 77 75 75 76 77 75 71 73 74 76 74 75 72 72 67 60 62 63 65 62 62 62 62 60 56 53 51 51 50 48 42 39 37
26 27 29 37 52 64 83 84 97 99 98 99 98 99 98 98 97 89 82 75 77 74 79 81 84 84 83 81 80 79 79 78 73 75 70 64 63 60 63 63 60 60 58 55 52 50 49 50 50 48 44 42 38 35
25 27 30 43 58 67 86 94 99 97 99 99 98 98 96 95 83 75 69 69 71 75 82 87 90 91 89 86 86 86 83 81 81 78 72 66 66 64 66 64 63 61 58 55 51 47 45 43 42 41 42 41 39 35
21 24 31 47 56 72 90 95 98 99 99 99 98 97 91 79 73 72 69 74 77 82 89 94 93 92 92 92 87 88 88 86 80 76 73 69 67 65 64 62 60 57 53 50 49 46 45 45 44 42 42 40 37 31
27 39 52 54 66 85 95 99 99 99 98 98 98 95 86 82 78 77 78 81 88 91 94 95 95 96 95 93 92 90 89 85 78 77 75 70 66 65 63 61 59 57 54 50 48 45 43 42 40 37 33 30 25 24
60 64 60 66 80 89 98 99 99 98 98 97 96 92 86 82 84 85 85 84 89 96 96 96 96 94 95 96 94 90 88 84 81 76 73 72 70 66 61 55 53 50 48 45 42 39 35 32 30 28 26 24 24 23
83 82 84 89 92 99 99 98 98 98 97 93 91 90 92 89 87 89 90 92 95 97 97 97 93 96 92 89 86 82 79 74 70 65 61 56 54 51 48 43 39 34 30 27 27 27 26 25 25 24 22 19 22 21
95 95 99 97 99 98 97 98 97 96 93 90 92 96 97 96 96 95 95 97 97 97 97 96 93 87 86 80 67 58 53 48 43 40 37 35 32 30 27 27 26 25 25 23 21 20 20 20 20 18 17 18 21 22
98 98 93 95 98 98 97 97 97 96 97 96 98 98 97 96 97 98 97 97 95 93 90 79 70 64 56 47 42 39 37 35 35 35 32 30 28 28 27 25 22 20 19 19 19 18 17 15 15 17 19 21 23 23
98 98 98 98 98 97 96 96 97 97 97 98 97 97 97 97 96 95 94 89 87 76 65 55 48 43 41 37 35 33 30 29 28 27 26 26 22 22 20 19 18 21 22 21 19 17 19 22 21 24 26 26 28 31
97 97 97 97 96 96 97 97 97 97 96 97 97 95 95 92 89 85 79 75 68 54 50 42 38 35 33 29 27 26 24 24 22 22 20 19 19 18 18 19 20 23 23 20 20 26 26 26 26 28 32 33 34 33
95 92 91 90 93 96 98 96 95 96 96 97 93 86 83 81 78 71 68 61 50 42 38 34 29 27 25 24 22 21 19 18 18 18 18 18 19 19 19 19 20 23 26 30 37 39 37 35 38 42 44 45 46 42
88 86 87 88 89 96 94 93 91 91 94 91 87 83 80 75 70 65 59 47 36 34 31 29 27 24 22 20 18 17 15 15 16 18 18 18 20 19 21 24 28 33 40 47 52 50 50 55 64 70 74 75 73 72
82 86 86 91 89 89 90 87 85 83 84 84 79 74 70 69 66 63 56 42 31 30 29 26 24 23 22 21 20 16 14 16 18 21 15 16 22 26 29 32 36 42 53 61 58 59 59 66 69 71 74 81 86 91
78 81 81 82 83 80 81 83 82 80 78 77 75 72 69 65 61 52 41 29 27 28 25 25 27 27 27 27 21 18 16 17 21 21 15 17 27 38 42 47 43 36 61 67 66 64 62 66 69 72 77 84 92 95
73 73 72 70 71 70 72 74 74 75 75 73 70 70 70 70 62 43 31 29 32 32 33 35 36 37 33 26 22 20 19 19 22 22 21 25 33 42 52 55 49 48 55 64 71 72 70 71 75 82 85 85 91 96
77 73 68 68 64 63 65 66 68 70 71 68 67 70 65 56 43 34 33 35 39 41 41 40 42 37 28 24 22 21 20 25 26 28 29 27 32 39 51 61 64 70 73 70 72 74 81 87 87 87 85 81 81 92
89 84 81 79 72 64 61 63 62 59 60 60 59 56 53 45 38 39 41 39 39 41 41 40 31 25 23 23 24 23 27 34 39 37 38 34 35 41 59 68 75 80 83 79 76 84 95 97 93 90 85 81 81 88
92 94 92 87 80 68 64 70 69 69 65 62 60 58 54 47 45 47 44 42 42 39 34 26 20 21 26 28 27 27 33 37 41 45 44 43 48 60 72 78 82 85 89 90 89 91 92 93 87 85 88 90 89 92
84 84 86 85 77 72 78 81 79 76 72 68 67 64 57 59 47 41 37 31 28 24 20 18 26 31 31 32 37 35 37 45 51 53 57 63 72 77 80 84 90 95 98 96 94 96 89 81 83 87 92 93 91 95
82 82 78 75 68 64 63 64 67 70 69 68 61 56 52 53 46 30 21 21 19 23 28 35 31 31 36 40 46 50 49 48 55 66 75 79 81 83 88 93 96 98 97 94 92 89 87 80 84 91 95 97 98 93
87 79 76 73 68 65 64 69 66 61 56 51 44 40 37 35 30 18 20 33 43 43 37 32 33 37 43 51 55 59 62 66 71 75 80 88 93 96 98 98 98 99 90 83 82 84 84 73 73 85 90 83 73 66